﻿<?xml version="1.0"?>
<gpx creator="GPS Visualizer http://www.gpsvisualizer.com/" version="1.1" xmlns="http://www.topografix.com/GPX/1/1" xmlns:xsi="http://www.w3.org/2001/XMLSchema-instance" xsi:schemaLocation="http://www.topografix.com/GPX/1/1 http://www.topografix.com/GPX/1/1/gpx.xsd">
<trk>
  <name>3.8. Vipavska dolina</name>
  <trkseg>
    <trkpt lat="45.888797399" lon="13.819729825">
      <ele>116.5</ele>
      <time>2014-05-17T12:14:21Z</time>
    </trkpt>
    <trkpt lat="45.888977023" lon="13.819770142">
      <ele>117.3</ele>
      <time>2014-05-17T12:14:22Z</time>
    </trkpt>
    <trkpt lat="45.888985991" lon="13.819775172">
      <ele>117.3</ele>
      <time>2014-05-17T12:14:24Z</time>
    </trkpt>
    <trkpt lat="45.889028152" lon="13.819796629">
      <ele>117.5</ele>
      <time>2014-05-17T12:14:25Z</time>
    </trkpt>
    <trkpt lat="45.889065284" lon="13.819806436">
      <ele>117.6</ele>
      <time>2014-05-17T12:14:26Z</time>
    </trkpt>
    <trkpt lat="45.889108116" lon="13.819817165">
      <ele>117.8</ele>
      <time>2014-05-17T12:14:27Z</time>
    </trkpt>
    <trkpt lat="45.889152037" lon="13.819834264">
      <ele>117.9</ele>
      <time>2014-05-17T12:14:28Z</time>
    </trkpt>
    <trkpt lat="45.889208866" lon="13.819862846">
      <ele>118.2</ele>
      <time>2014-05-17T12:14:29Z</time>
    </trkpt>
    <trkpt lat="45.889264941" lon="13.819894195">
      <ele>118.4</ele>
      <time>2014-05-17T12:14:30Z</time>
    </trkpt>
    <trkpt lat="45.889318334" lon="13.819934428">
      <ele>118.7</ele>
      <time>2014-05-17T12:14:31Z</time>
    </trkpt>
    <trkpt lat="45.889368122" lon="13.819978265">
      <ele>118.9</ele>
      <time>2014-05-17T12:14:32Z</time>
    </trkpt>
    <trkpt lat="45.889417659" lon="13.820029646">
      <ele>119.2</ele>
      <time>2014-05-17T12:14:33Z</time>
    </trkpt>
    <trkpt lat="45.889467616" lon="13.820090163">
      <ele>119.5</ele>
      <time>2014-05-17T12:14:34Z</time>
    </trkpt>
    <trkpt lat="45.889513716" lon="13.820151519">
      <ele>119.8</ele>
      <time>2014-05-17T12:14:35Z</time>
    </trkpt>
    <trkpt lat="45.889560655" lon="13.820204744">
      <ele>120.1</ele>
      <time>2014-05-17T12:14:36Z</time>
    </trkpt>
    <trkpt lat="45.889609773" lon="13.820259059">
      <ele>120.5</ele>
      <time>2014-05-17T12:14:37Z</time>
    </trkpt>
    <trkpt lat="45.889658891" lon="13.820310943">
      <ele>120.8</ele>
      <time>2014-05-17T12:14:38Z</time>
    </trkpt>
    <trkpt lat="45.889708428" lon="13.82036048">
      <ele>121.2</ele>
      <time>2014-05-17T12:14:39Z</time>
    </trkpt>
    <trkpt lat="45.889760563" lon="13.820413286">
      <ele>121.6</ele>
      <time>2014-05-17T12:14:40Z</time>
    </trkpt>
    <trkpt lat="45.889814962" lon="13.820460895">
      <ele>122.0</ele>
      <time>2014-05-17T12:14:41Z</time>
    </trkpt>
    <trkpt lat="45.889870618" lon="13.820504816">
      <ele>122.4</ele>
      <time>2014-05-17T12:14:42Z</time>
    </trkpt>
    <trkpt lat="45.889930381" lon="13.820549995">
      <ele>122.9</ele>
      <time>2014-05-17T12:14:43Z</time>
    </trkpt>
    <trkpt lat="45.889986288" lon="13.820586121">
      <ele>123.3</ele>
      <time>2014-05-17T12:14:44Z</time>
    </trkpt>
    <trkpt lat="45.890043704" lon="13.820628617">
      <ele>123.7</ele>
      <time>2014-05-17T12:14:45Z</time>
    </trkpt>
    <trkpt lat="45.890098438" lon="13.820670694">
      <ele>124.0</ele>
      <time>2014-05-17T12:14:46Z</time>
    </trkpt>
    <trkpt lat="45.890155602" lon="13.820712604">
      <ele>124.3</ele>
      <time>2014-05-17T12:14:47Z</time>
    </trkpt>
    <trkpt lat="45.890215198" lon="13.820758285">
      <ele>124.6</ele>
      <time>2014-05-17T12:14:48Z</time>
    </trkpt>
    <trkpt lat="45.890278146" lon="13.820810923">
      <ele>125.0</ele>
      <time>2014-05-17T12:14:49Z</time>
    </trkpt>
    <trkpt lat="45.890342854" lon="13.820871441">
      <ele>125.2</ele>
      <time>2014-05-17T12:14:50Z</time>
    </trkpt>
    <trkpt lat="45.890405383" lon="13.820931623">
      <ele>125.5</ele>
      <time>2014-05-17T12:14:51Z</time>
    </trkpt>
    <trkpt lat="45.890468666" lon="13.820996247">
      <ele>125.7</ele>
      <time>2014-05-17T12:14:52Z</time>
    </trkpt>
    <trkpt lat="45.890529603" lon="13.821061626">
      <ele>126.0</ele>
      <time>2014-05-17T12:14:53Z</time>
    </trkpt>
    <trkpt lat="45.890590958" lon="13.821127759">
      <ele>126.3</ele>
      <time>2014-05-17T12:14:54Z</time>
    </trkpt>
    <trkpt lat="45.890648961" lon="13.821193138">
      <ele>126.6</ele>
      <time>2014-05-17T12:14:55Z</time>
    </trkpt>
    <trkpt lat="45.890701851" lon="13.821255667">
      <ele>126.9</ele>
      <time>2014-05-17T12:14:56Z</time>
    </trkpt>
    <trkpt lat="45.89075692" lon="13.821315682">
      <ele>127.2</ele>
      <time>2014-05-17T12:14:57Z</time>
    </trkpt>
    <trkpt lat="45.890808972" lon="13.821376869">
      <ele>127.5</ele>
      <time>2014-05-17T12:14:58Z</time>
    </trkpt>
    <trkpt lat="45.890862616" lon="13.821441159">
      <ele>127.8</ele>
      <time>2014-05-17T12:14:59Z</time>
    </trkpt>
    <trkpt lat="45.890908884" lon="13.821510058">
      <ele>127.9</ele>
      <time>2014-05-17T12:15:00Z</time>
    </trkpt>
    <trkpt lat="45.890958337" lon="13.821665877">
      <ele>128.1</ele>
      <time>2014-05-17T12:15:02Z</time>
    </trkpt>
    <trkpt lat="45.890971664" lon="13.821748104">
      <ele>128.2</ele>
      <time>2014-05-17T12:15:03Z</time>
    </trkpt>
    <trkpt lat="45.890993793" lon="13.821820272">
      <ele>128.3</ele>
      <time>2014-05-17T12:15:04Z</time>
    </trkpt>
    <trkpt lat="45.891029667" lon="13.821892943">
      <ele>128.4</ele>
      <time>2014-05-17T12:15:05Z</time>
    </trkpt>
    <trkpt lat="45.891072499" lon="13.821952539">
      <ele>128.5</ele>
      <time>2014-05-17T12:15:06Z</time>
    </trkpt>
    <trkpt lat="45.891134776" lon="13.822019761">
      <ele>128.7</ele>
      <time>2014-05-17T12:15:07Z</time>
    </trkpt>
    <trkpt lat="45.891198479" lon="13.822081536">
      <ele>128.9</ele>
      <time>2014-05-17T12:15:08Z</time>
    </trkpt>
    <trkpt lat="45.8912626" lon="13.822148088">
      <ele>129.1</ele>
      <time>2014-05-17T12:15:09Z</time>
    </trkpt>
    <trkpt lat="45.891333176" lon="13.822211875">
      <ele>129.4</ele>
      <time>2014-05-17T12:15:10Z</time>
    </trkpt>
    <trkpt lat="45.89141272" lon="13.822273817">
      <ele>129.7</ele>
      <time>2014-05-17T12:15:11Z</time>
    </trkpt>
    <trkpt lat="45.891490169" lon="13.822324276">
      <ele>130.0</ele>
      <time>2014-05-17T12:15:12Z</time>
    </trkpt>
    <trkpt lat="45.891568623" lon="13.82237792">
      <ele>130.4</ele>
      <time>2014-05-17T12:15:13Z</time>
    </trkpt>
    <trkpt lat="45.89164339" lon="13.822424188">
      <ele>130.7</ele>
      <time>2014-05-17T12:15:14Z</time>
    </trkpt>
    <trkpt lat="45.891720084" lon="13.822476575">
      <ele>131.8</ele>
      <time>2014-05-17T12:15:15Z</time>
    </trkpt>
    <trkpt lat="45.891788397" lon="13.822523933">
      <ele>133.3</ele>
      <time>2014-05-17T12:15:16Z</time>
    </trkpt>
    <trkpt lat="45.891857296" lon="13.822570452">
      <ele>135.1</ele>
      <time>2014-05-17T12:15:17Z</time>
    </trkpt>
    <trkpt lat="45.891923932" lon="13.822613955">
      <ele>136.8</ele>
      <time>2014-05-17T12:15:18Z</time>
    </trkpt>
    <trkpt lat="45.89199191" lon="13.822648739">
      <ele>138.4</ele>
      <time>2014-05-17T12:15:19Z</time>
    </trkpt>
    <trkpt lat="45.892066844" lon="13.822662402">
      <ele>139.9</ele>
      <time>2014-05-17T12:15:20Z</time>
    </trkpt>
    <trkpt lat="45.892128367" lon="13.822649075">
      <ele>140.7</ele>
      <time>2014-05-17T12:15:21Z</time>
    </trkpt>
    <trkpt lat="45.892191483" lon="13.822634574">
      <ele>141.6</ele>
      <time>2014-05-17T12:15:22Z</time>
    </trkpt>
    <trkpt lat="45.892259125" lon="13.822575146">
      <ele>142.0</ele>
      <time>2014-05-17T12:15:23Z</time>
    </trkpt>
    <trkpt lat="45.892321235" lon="13.822498368">
      <ele>142.0</ele>
      <time>2014-05-17T12:15:24Z</time>
    </trkpt>
    <trkpt lat="45.892389379" lon="13.82243718">
      <ele>143.3</ele>
      <time>2014-05-17T12:15:25Z</time>
    </trkpt>
    <trkpt lat="45.892458614" lon="13.822405832">
      <ele>144.5</ele>
      <time>2014-05-17T12:15:26Z</time>
    </trkpt>
    <trkpt lat="45.892530195" lon="13.822394935">
      <ele>145.4</ele>
      <time>2014-05-17T12:15:27Z</time>
    </trkpt>
    <trkpt lat="45.892600687" lon="13.822408346">
      <ele>145.7</ele>
      <time>2014-05-17T12:15:28Z</time>
    </trkpt>
    <trkpt lat="45.892660785" lon="13.822446736">
      <ele>145.7</ele>
      <time>2014-05-17T12:15:29Z</time>
    </trkpt>
    <trkpt lat="45.892707976" lon="13.82249183">
      <ele>145.6</ele>
      <time>2014-05-17T12:15:30Z</time>
    </trkpt>
    <trkpt lat="45.89273815" lon="13.822588474">
      <ele>146.6</ele>
      <time>2014-05-17T12:15:31Z</time>
    </trkpt>
    <trkpt lat="45.892776204" lon="13.822677154">
      <ele>147.6</ele>
      <time>2014-05-17T12:15:32Z</time>
    </trkpt>
    <trkpt lat="45.892918529" lon="13.822964653">
      <ele>150.2</ele>
      <time>2014-05-17T12:15:36Z</time>
    </trkpt>
    <trkpt lat="45.893039228" lon="13.823076552">
      <ele>150.6</ele>
      <time>2014-05-17T12:15:40Z</time>
    </trkpt>
    <trkpt lat="45.893224049" lon="13.823378468">
      <ele>150.9</ele>
      <time>2014-05-17T12:15:44Z</time>
    </trkpt>
    <trkpt lat="45.893336618" lon="13.823642749">
      <ele>150.0</ele>
      <time>2014-05-17T12:15:46Z</time>
    </trkpt>
    <trkpt lat="45.893450612" lon="13.823862607">
      <ele>149.9</ele>
      <time>2014-05-17T12:15:48Z</time>
    </trkpt>
    <trkpt lat="45.893716319" lon="13.823977858">
      <ele>149.5</ele>
      <time>2014-05-17T12:15:51Z</time>
    </trkpt>
    <trkpt lat="45.893941624" lon="13.823952964">
      <ele>149.3</ele>
      <time>2014-05-17T12:15:53Z</time>
    </trkpt>
    <trkpt lat="45.89405369" lon="13.823967716">
      <ele>149.1</ele>
      <time>2014-05-17T12:15:54Z</time>
    </trkpt>
    <trkpt lat="45.894164583" lon="13.823989425">
      <ele>149.0</ele>
      <time>2014-05-17T12:15:55Z</time>
    </trkpt>
    <trkpt lat="45.894273547" lon="13.824020438">
      <ele>149.5</ele>
      <time>2014-05-17T12:15:56Z</time>
    </trkpt>
    <trkpt lat="45.89437807" lon="13.824069221">
      <ele>150.0</ele>
      <time>2014-05-17T12:15:57Z</time>
    </trkpt>
    <trkpt lat="45.894483179" lon="13.824123954">
      <ele>150.5</ele>
      <time>2014-05-17T12:15:58Z</time>
    </trkpt>
    <trkpt lat="45.894580912" lon="13.82417785">
      <ele>151.0</ele>
      <time>2014-05-17T12:15:59Z</time>
    </trkpt>
    <trkpt lat="45.894672442" lon="13.824232249">
      <ele>151.7</ele>
      <time>2014-05-17T12:16:00Z</time>
    </trkpt>
    <trkpt lat="45.894775288" lon="13.824291006">
      <ele>152.6</ele>
      <time>2014-05-17T12:16:01Z</time>
    </trkpt>
    <trkpt lat="45.894873692" lon="13.824344901">
      <ele>153.6</ele>
      <time>2014-05-17T12:16:02Z</time>
    </trkpt>
    <trkpt lat="45.894964552" lon="13.824395696">
      <ele>154.7</ele>
      <time>2014-05-17T12:16:03Z</time>
    </trkpt>
    <trkpt lat="45.895046107" lon="13.824448669">
      <ele>155.6</ele>
      <time>2014-05-17T12:16:04Z</time>
    </trkpt>
    <trkpt lat="45.895089526" lon="13.824533746">
      <ele>156.6</ele>
      <time>2014-05-17T12:16:05Z</time>
    </trkpt>
    <trkpt lat="45.895114336" lon="13.824631227">
      <ele>157.6</ele>
      <time>2014-05-17T12:16:06Z</time>
    </trkpt>
    <trkpt lat="45.895106625" lon="13.824733319">
      <ele>158.5</ele>
      <time>2014-05-17T12:16:07Z</time>
    </trkpt>
    <trkpt lat="45.895092711" lon="13.824790651">
      <ele>158.9</ele>
      <time>2014-05-17T12:16:15Z</time>
    </trkpt>
    <trkpt lat="45.895079216" lon="13.824872542">
      <ele>159.5</ele>
      <time>2014-05-17T12:16:50Z</time>
    </trkpt>
    <trkpt lat="45.895066392" lon="13.824934987">
      <ele>160.0</ele>
      <time>2014-05-17T12:16:57Z</time>
    </trkpt>
    <trkpt lat="45.895049544" lon="13.825003887">
      <ele>160.4</ele>
      <time>2014-05-17T12:16:58Z</time>
    </trkpt>
    <trkpt lat="45.895031272" lon="13.825191557">
      <ele>159.9</ele>
      <time>2014-05-17T12:17:01Z</time>
    </trkpt>
    <trkpt lat="45.895032613" lon="13.825268084">
      <ele>159.7</ele>
      <time>2014-05-17T12:17:02Z</time>
    </trkpt>
    <trkpt lat="45.895038564" lon="13.825341174">
      <ele>159.6</ele>
      <time>2014-05-17T12:17:03Z</time>
    </trkpt>
    <trkpt lat="45.895052142" lon="13.825411834">
      <ele>159.7</ele>
      <time>2014-05-17T12:17:04Z</time>
    </trkpt>
    <trkpt lat="45.895070415" lon="13.825489869">
      <ele>159.8</ele>
      <time>2014-05-17T12:17:05Z</time>
    </trkpt>
    <trkpt lat="45.895091621" lon="13.825565726">
      <ele>159.9</ele>
      <time>2014-05-17T12:17:06Z</time>
    </trkpt>
    <trkpt lat="45.895120623" lon="13.825644767">
      <ele>160.2</ele>
      <time>2014-05-17T12:17:07Z</time>
    </trkpt>
    <trkpt lat="45.895160604" lon="13.825728502">
      <ele>160.8</ele>
      <time>2014-05-17T12:17:08Z</time>
    </trkpt>
    <trkpt lat="45.895213578" lon="13.825811399">
      <ele>161.6</ele>
      <time>2014-05-17T12:17:09Z</time>
    </trkpt>
    <trkpt lat="45.895262863" lon="13.825880215">
      <ele>162.4</ele>
      <time>2014-05-17T12:17:10Z</time>
    </trkpt>
    <trkpt lat="45.895309132" lon="13.825942408">
      <ele>163.2</ele>
      <time>2014-05-17T12:17:11Z</time>
    </trkpt>
    <trkpt lat="45.895366296" lon="13.82597493">
      <ele>164.2</ele>
      <time>2014-05-17T12:17:12Z</time>
    </trkpt>
    <trkpt lat="45.895432262" lon="13.825988676">
      <ele>165.3</ele>
      <time>2014-05-17T12:17:13Z</time>
    </trkpt>
    <trkpt lat="45.895498227" lon="13.825957412">
      <ele>166.3</ele>
      <time>2014-05-17T12:17:14Z</time>
    </trkpt>
    <trkpt lat="45.895552458" lon="13.825908462">
      <ele>167.3</ele>
      <time>2014-05-17T12:17:15Z</time>
    </trkpt>
    <trkpt lat="45.89560342" lon="13.825840652">
      <ele>168.1</ele>
      <time>2014-05-17T12:17:16Z</time>
    </trkpt>
    <trkpt lat="45.89565455" lon="13.825790528">
      <ele>168.8</ele>
      <time>2014-05-17T12:17:17Z</time>
    </trkpt>
    <trkpt lat="45.895708865" lon="13.825748619">
      <ele>169.5</ele>
      <time>2014-05-17T12:17:18Z</time>
    </trkpt>
    <trkpt lat="45.895768879" lon="13.825711403">
      <ele>170.3</ele>
      <time>2014-05-17T12:17:19Z</time>
    </trkpt>
    <trkpt lat="45.895834342" lon="13.825681647">
      <ele>171.1</ele>
      <time>2014-05-17T12:17:20Z</time>
    </trkpt>
    <trkpt lat="45.8959019" lon="13.82568039">
      <ele>171.7</ele>
      <time>2014-05-17T12:17:21Z</time>
    </trkpt>
    <trkpt lat="45.895969123" lon="13.825694891">
      <ele>172.4</ele>
      <time>2014-05-17T12:17:22Z</time>
    </trkpt>
    <trkpt lat="45.896118907" lon="13.825836545">
      <ele>175.1</ele>
      <time>2014-05-17T12:21:35Z</time>
    </trkpt>
    <trkpt lat="45.896208258" lon="13.825975936">
      <ele>176.6</ele>
      <time>2014-05-17T12:21:37Z</time>
    </trkpt>
    <trkpt lat="45.896252263" lon="13.826058414">
      <ele>177.5</ele>
      <time>2014-05-17T12:21:38Z</time>
    </trkpt>
    <trkpt lat="45.896296185" lon="13.826133013">
      <ele>178.4</ele>
      <time>2014-05-17T12:21:39Z</time>
    </trkpt>
    <trkpt lat="45.8963448" lon="13.826198056">
      <ele>179.5</ele>
      <time>2014-05-17T12:21:40Z</time>
    </trkpt>
    <trkpt lat="45.89639727" lon="13.826252874">
      <ele>180.7</ele>
      <time>2014-05-17T12:21:41Z</time>
    </trkpt>
    <trkpt lat="45.896449825" lon="13.826304758">
      <ele>181.9</ele>
      <time>2014-05-17T12:21:42Z</time>
    </trkpt>
    <trkpt lat="45.896502715" lon="13.82635857">
      <ele>183.2</ele>
      <time>2014-05-17T12:21:43Z</time>
    </trkpt>
    <trkpt lat="45.896553341" lon="13.826410118">
      <ele>184.5</ele>
      <time>2014-05-17T12:21:44Z</time>
    </trkpt>
    <trkpt lat="45.896592736" lon="13.8264501">
      <ele>185.5</ele>
      <time>2014-05-17T12:21:45Z</time>
    </trkpt>
    <trkpt lat="45.896629281" lon="13.826484466">
      <ele>186.5</ele>
      <time>2014-05-17T12:21:46Z</time>
    </trkpt>
    <trkpt lat="45.896665072" lon="13.826519083">
      <ele>187.6</ele>
      <time>2014-05-17T12:21:47Z</time>
    </trkpt>
    <trkpt lat="45.896703294" lon="13.826557556">
      <ele>188.1</ele>
      <time>2014-05-17T12:21:48Z</time>
    </trkpt>
    <trkpt lat="45.896741766" lon="13.826595275">
      <ele>188.7</ele>
      <time>2014-05-17T12:21:49Z</time>
    </trkpt>
    <trkpt lat="45.896776887" lon="13.826630563">
      <ele>189.3</ele>
      <time>2014-05-17T12:21:50Z</time>
    </trkpt>
    <trkpt lat="45.896811252" lon="13.826665096">
      <ele>189.9</ele>
      <time>2014-05-17T12:21:51Z</time>
    </trkpt>
    <trkpt lat="45.896846205" lon="13.826698372">
      <ele>190.1</ele>
      <time>2014-05-17T12:21:52Z</time>
    </trkpt>
    <trkpt lat="45.896879565" lon="13.826729888">
      <ele>190.3</ele>
      <time>2014-05-17T12:21:53Z</time>
    </trkpt>
    <trkpt lat="45.896913931" lon="13.826762075">
      <ele>190.5</ele>
      <time>2014-05-17T12:21:54Z</time>
    </trkpt>
    <trkpt lat="45.896949554" lon="13.826793674">
      <ele>190.8</ele>
      <time>2014-05-17T12:21:55Z</time>
    </trkpt>
    <trkpt lat="45.896987692" lon="13.826827873">
      <ele>191.1</ele>
      <time>2014-05-17T12:21:56Z</time>
    </trkpt>
    <trkpt lat="45.897029098" lon="13.826864501">
      <ele>191.5</ele>
      <time>2014-05-17T12:21:57Z</time>
    </trkpt>
    <trkpt lat="45.897069918" lon="13.826902388">
      <ele>191.9</ele>
      <time>2014-05-17T12:21:58Z</time>
    </trkpt>
    <trkpt lat="45.897108223" lon="13.826940693">
      <ele>192.4</ele>
      <time>2014-05-17T12:21:59Z</time>
    </trkpt>
    <trkpt lat="45.897144685" lon="13.826980004">
      <ele>192.8</ele>
      <time>2014-05-17T12:22:00Z</time>
    </trkpt>
    <trkpt lat="45.897183409" lon="13.827019483">
      <ele>193.4</ele>
      <time>2014-05-17T12:22:01Z</time>
    </trkpt>
    <trkpt lat="45.897217691" lon="13.827058207">
      <ele>193.9</ele>
      <time>2014-05-17T12:22:02Z</time>
    </trkpt>
    <trkpt lat="45.897283992" lon="13.827135824">
      <ele>194.9</ele>
      <time>2014-05-17T12:22:04Z</time>
    </trkpt>
    <trkpt lat="45.897318106" lon="13.827175051">
      <ele>195.5</ele>
      <time>2014-05-17T12:22:05Z</time>
    </trkpt>
    <trkpt lat="45.897352556" lon="13.827214362">
      <ele>196.1</ele>
      <time>2014-05-17T12:22:06Z</time>
    </trkpt>
    <trkpt lat="45.897387424" lon="13.827252164">
      <ele>196.8</ele>
      <time>2014-05-17T12:22:07Z</time>
    </trkpt>
    <trkpt lat="45.897430256" lon="13.827288626">
      <ele>197.6</ele>
      <time>2014-05-17T12:22:08Z</time>
    </trkpt>
    <trkpt lat="45.897477027" lon="13.827328775">
      <ele>198.5</ele>
      <time>2014-05-17T12:22:09Z</time>
    </trkpt>
    <trkpt lat="45.89752472" lon="13.827375295">
      <ele>199.2</ele>
      <time>2014-05-17T12:22:10Z</time>
    </trkpt>
    <trkpt lat="45.897572329" lon="13.827426676">
      <ele>199.8</ele>
      <time>2014-05-17T12:22:11Z</time>
    </trkpt>
    <trkpt lat="45.897619771" lon="13.827489372">
      <ele>200.4</ele>
      <time>2014-05-17T12:22:12Z</time>
    </trkpt>
    <trkpt lat="45.897661848" lon="13.827569922">
      <ele>200.3</ele>
      <time>2014-05-17T12:22:13Z</time>
    </trkpt>
    <trkpt lat="45.897694873" lon="13.827672349">
      <ele>200.2</ele>
      <time>2014-05-17T12:22:14Z</time>
    </trkpt>
    <trkpt lat="45.897724712" lon="13.827781314">
      <ele>200.0</ele>
      <time>2014-05-17T12:22:15Z</time>
    </trkpt>
    <trkpt lat="45.897756983" lon="13.827889441">
      <ele>200.0</ele>
      <time>2014-05-17T12:22:16Z</time>
    </trkpt>
    <trkpt lat="45.897797132" lon="13.827991951">
      <ele>200.2</ele>
      <time>2014-05-17T12:22:17Z</time>
    </trkpt>
    <trkpt lat="45.89784977" lon="13.828088343">
      <ele>200.7</ele>
      <time>2014-05-17T12:22:18Z</time>
    </trkpt>
    <trkpt lat="45.897908276" lon="13.828177527">
      <ele>201.4</ele>
      <time>2014-05-17T12:22:19Z</time>
    </trkpt>
    <trkpt lat="45.897979019" lon="13.828268554">
      <ele>202.4</ele>
      <time>2014-05-17T12:22:20Z</time>
    </trkpt>
    <trkpt lat="45.89805278" lon="13.828351032">
      <ele>203.6</ele>
      <time>2014-05-17T12:22:21Z</time>
    </trkpt>
    <trkpt lat="45.898125703" lon="13.82842957">
      <ele>204.5</ele>
      <time>2014-05-17T12:22:22Z</time>
    </trkpt>
    <trkpt lat="45.898197619" lon="13.828504672">
      <ele>205.5</ele>
      <time>2014-05-17T12:22:23Z</time>
    </trkpt>
    <trkpt lat="45.898272637" lon="13.82858539">
      <ele>206.6</ele>
      <time>2014-05-17T12:22:24Z</time>
    </trkpt>
    <trkpt lat="45.898352768" lon="13.828671137">
      <ele>207.9</ele>
      <time>2014-05-17T12:22:25Z</time>
    </trkpt>
    <trkpt lat="45.89843072" lon="13.828752609">
      <ele>209.1</ele>
      <time>2014-05-17T12:22:26Z</time>
    </trkpt>
    <trkpt lat="45.898511941" lon="13.828837853">
      <ele>210.3</ele>
      <time>2014-05-17T12:22:27Z</time>
    </trkpt>
    <trkpt lat="45.89858612" lon="13.828924438">
      <ele>211.4</ele>
      <time>2014-05-17T12:22:28Z</time>
    </trkpt>
    <trkpt lat="45.898653511" lon="13.829014627">
      <ele>212.5</ele>
      <time>2014-05-17T12:22:29Z</time>
    </trkpt>
    <trkpt lat="45.898717549" lon="13.829109259">
      <ele>213.5</ele>
      <time>2014-05-17T12:22:30Z</time>
    </trkpt>
    <trkpt lat="45.898777647" lon="13.829202466">
      <ele>214.3</ele>
      <time>2014-05-17T12:22:31Z</time>
    </trkpt>
    <trkpt lat="45.898833973" lon="13.829290643">
      <ele>215.0</ele>
      <time>2014-05-17T12:22:32Z</time>
    </trkpt>
    <trkpt lat="45.898846546" lon="13.829322243">
      <ele>215.1</ele>
      <time>2014-05-17T12:28:41Z</time>
    </trkpt>
    <trkpt lat="45.898961211" lon="13.829517541">
      <ele>216.5</ele>
      <time>2014-05-17T12:28:45Z</time>
    </trkpt>
    <trkpt lat="45.89898359" lon="13.829576969">
      <ele>216.7</ele>
      <time>2014-05-17T12:28:46Z</time>
    </trkpt>
    <trkpt lat="45.899023991" lon="13.829705967">
      <ele>217.1</ele>
      <time>2014-05-17T12:28:48Z</time>
    </trkpt>
    <trkpt lat="45.899042599" lon="13.829768915">
      <ele>217.3</ele>
      <time>2014-05-17T12:28:49Z</time>
    </trkpt>
    <trkpt lat="45.899058608" lon="13.8298296">
      <ele>217.4</ele>
      <time>2014-05-17T12:28:50Z</time>
    </trkpt>
    <trkpt lat="45.899075791" lon="13.829897912">
      <ele>217.5</ele>
      <time>2014-05-17T12:28:51Z</time>
    </trkpt>
    <trkpt lat="45.89909289" lon="13.829971422">
      <ele>217.7</ele>
      <time>2014-05-17T12:28:52Z</time>
    </trkpt>
    <trkpt lat="45.899127591" lon="13.830130761">
      <ele>218.4</ele>
      <time>2014-05-17T12:28:54Z</time>
    </trkpt>
    <trkpt lat="45.899145277" lon="13.830218436">
      <ele>218.8</ele>
      <time>2014-05-17T12:28:55Z</time>
    </trkpt>
    <trkpt lat="45.899163466" lon="13.83030368">
      <ele>219.3</ele>
      <time>2014-05-17T12:28:56Z</time>
    </trkpt>
    <trkpt lat="45.899180565" lon="13.830383811">
      <ele>219.8</ele>
      <time>2014-05-17T12:28:57Z</time>
    </trkpt>
    <trkpt lat="45.899198754" lon="13.830461595">
      <ele>220.4</ele>
      <time>2014-05-17T12:28:58Z</time>
    </trkpt>
    <trkpt lat="45.899218367" lon="13.830544492">
      <ele>221.1</ele>
      <time>2014-05-17T12:28:59Z</time>
    </trkpt>
    <trkpt lat="45.899235886" lon="13.830625964">
      <ele>221.6</ele>
      <time>2014-05-17T12:29:00Z</time>
    </trkpt>
    <trkpt lat="45.899253571" lon="13.830702659">
      <ele>222.2</ele>
      <time>2014-05-17T12:29:01Z</time>
    </trkpt>
    <trkpt lat="45.899271844" lon="13.830777761">
      <ele>222.7</ele>
      <time>2014-05-17T12:29:02Z</time>
    </trkpt>
    <trkpt lat="45.899286596" lon="13.830855461">
      <ele>223.1</ele>
      <time>2014-05-17T12:29:03Z</time>
    </trkpt>
    <trkpt lat="45.89929699" lon="13.830935005">
      <ele>223.3</ele>
      <time>2014-05-17T12:29:04Z</time>
    </trkpt>
    <trkpt lat="45.899302354" lon="13.831015471">
      <ele>223.3</ele>
      <time>2014-05-17T12:29:05Z</time>
    </trkpt>
    <trkpt lat="45.899303444" lon="13.831091998">
      <ele>223.2</ele>
      <time>2014-05-17T12:29:06Z</time>
    </trkpt>
    <trkpt lat="45.899300175" lon="13.831156455">
      <ele>223.0</ele>
      <time>2014-05-17T12:29:08Z</time>
    </trkpt>
    <trkpt lat="45.89928274" lon="13.831210854">
      <ele>222.5</ele>
      <time>2014-05-17T12:29:22Z</time>
    </trkpt>
    <trkpt lat="45.89938391" lon="13.831216637">
      <ele>224.7</ele>
      <time>2014-05-17T12:29:25Z</time>
    </trkpt>
    <trkpt lat="45.899436967" lon="13.831215883">
      <ele>225.8</ele>
      <time>2014-05-17T12:29:26Z</time>
    </trkpt>
    <trkpt lat="45.899446104" lon="13.831175482">
      <ele>226.1</ele>
      <time>2014-05-17T12:30:09Z</time>
    </trkpt>
    <trkpt lat="45.899440572" lon="13.831163161">
      <ele>226.1</ele>
      <time>2014-05-17T12:30:10Z</time>
    </trkpt>
    <trkpt lat="45.899449037" lon="13.831117228">
      <ele>226.4</ele>
      <time>2014-05-17T12:30:14Z</time>
    </trkpt>
    <trkpt lat="45.899465298" lon="13.831087304">
      <ele>226.9</ele>
      <time>2014-05-17T12:30:15Z</time>
    </trkpt>
    <trkpt lat="45.899589015" lon="13.830834171">
      <ele>231.1</ele>
      <time>2014-05-17T12:30:20Z</time>
    </trkpt>
    <trkpt lat="45.899613993" lon="13.830770971">
      <ele>231.8</ele>
      <time>2014-05-17T12:30:21Z</time>
    </trkpt>
    <trkpt lat="45.899641486" lon="13.830721937">
      <ele>232.6</ele>
      <time>2014-05-17T12:30:22Z</time>
    </trkpt>
    <trkpt lat="45.899674762" lon="13.830676423">
      <ele>233.5</ele>
      <time>2014-05-17T12:30:23Z</time>
    </trkpt>
    <trkpt lat="45.899707871" lon="13.83063267">
      <ele>234.4</ele>
      <time>2014-05-17T12:30:24Z</time>
    </trkpt>
    <trkpt lat="45.899741398" lon="13.830583049">
      <ele>235.3</ele>
      <time>2014-05-17T12:30:25Z</time>
    </trkpt>
    <trkpt lat="45.899770902" lon="13.830526806">
      <ele>236.1</ele>
      <time>2014-05-17T12:30:26Z</time>
    </trkpt>
    <trkpt lat="45.899794037" lon="13.830470983">
      <ele>236.8</ele>
      <time>2014-05-17T12:30:27Z</time>
    </trkpt>
    <trkpt lat="45.899815662" lon="13.830405269">
      <ele>237.4</ele>
      <time>2014-05-17T12:30:28Z</time>
    </trkpt>
    <trkpt lat="45.899839383" lon="13.83033067">
      <ele>238.1</ele>
      <time>2014-05-17T12:30:29Z</time>
    </trkpt>
    <trkpt lat="45.899866791" lon="13.830261016">
      <ele>239.0</ele>
      <time>2014-05-17T12:30:30Z</time>
    </trkpt>
    <trkpt lat="45.899894703" lon="13.83018977">
      <ele>239.8</ele>
      <time>2014-05-17T12:30:31Z</time>
    </trkpt>
    <trkpt lat="45.899923788" lon="13.830117434">
      <ele>240.7</ele>
      <time>2014-05-17T12:30:32Z</time>
    </trkpt>
    <trkpt lat="45.899952203" lon="13.830046523">
      <ele>241.6</ele>
      <time>2014-05-17T12:30:33Z</time>
    </trkpt>
    <trkpt lat="45.899978606" lon="13.829981396">
      <ele>242.3</ele>
      <time>2014-05-17T12:30:34Z</time>
    </trkpt>
    <trkpt lat="45.900002578" lon="13.829931607">
      <ele>242.7</ele>
      <time>2014-05-17T12:30:35Z</time>
    </trkpt>
    <trkpt lat="45.900019091" lon="13.829897912">
      <ele>242.9</ele>
      <time>2014-05-17T12:30:36Z</time>
    </trkpt>
    <trkpt lat="45.900026299" lon="13.829883663">
      <ele>243.0</ele>
      <time>2014-05-17T12:30:37Z</time>
    </trkpt>
    <trkpt lat="45.900036274" lon="13.829881065">
      <ele>243.2</ele>
      <time>2014-05-17T12:30:38Z</time>
    </trkpt>
    <trkpt lat="45.900051864" lon="13.829876957">
      <ele>243.5</ele>
      <time>2014-05-17T12:30:39Z</time>
    </trkpt>
    <trkpt lat="45.900070639" lon="13.829889027">
      <ele>243.9</ele>
      <time>2014-05-17T12:30:40Z</time>
    </trkpt>
    <trkpt lat="45.900092768" lon="13.829906965">
      <ele>244.5</ele>
      <time>2014-05-17T12:30:41Z</time>
    </trkpt>
    <trkpt lat="45.90012135" lon="13.829921465">
      <ele>245.2</ele>
      <time>2014-05-17T12:30:42Z</time>
    </trkpt>
    <trkpt lat="45.900156805" lon="13.829929009">
      <ele>246.0</ele>
      <time>2014-05-17T12:30:43Z</time>
    </trkpt>
    <trkpt lat="45.900192428" lon="13.829923728">
      <ele>246.7</ele>
      <time>2014-05-17T12:30:44Z</time>
    </trkpt>
    <trkpt lat="45.900226878" lon="13.829916352">
      <ele>247.4</ele>
      <time>2014-05-17T12:30:45Z</time>
    </trkpt>
    <trkpt lat="45.900259148" lon="13.829911826">
      <ele>248.0</ele>
      <time>2014-05-17T12:30:46Z</time>
    </trkpt>
    <trkpt lat="45.900290245" lon="13.829915263">
      <ele>248.7</ele>
      <time>2014-05-17T12:30:47Z</time>
    </trkpt>
    <trkpt lat="45.900323102" lon="13.829914341">
      <ele>249.4</ele>
      <time>2014-05-17T12:30:48Z</time>
    </trkpt>
    <trkpt lat="45.900354199" lon="13.829905288">
      <ele>250.0</ele>
      <time>2014-05-17T12:30:49Z</time>
    </trkpt>
    <trkpt lat="45.900386218" lon="13.829894224">
      <ele>250.6</ele>
      <time>2014-05-17T12:30:50Z</time>
    </trkpt>
    <trkpt lat="45.900413711" lon="13.829881568">
      <ele>251.1</ele>
      <time>2014-05-17T12:30:51Z</time>
    </trkpt>
    <trkpt lat="45.900430139" lon="13.829848375">
      <ele>251.2</ele>
      <time>2014-05-17T12:30:52Z</time>
    </trkpt>
    <trkpt lat="45.900443718" lon="13.829819039">
      <ele>251.3</ele>
      <time>2014-05-17T12:30:53Z</time>
    </trkpt>
    <trkpt lat="45.900457716" lon="13.829793222">
      <ele>251.3</ele>
      <time>2014-05-17T12:30:54Z</time>
    </trkpt>
    <trkpt lat="45.900473054" lon="13.829762544">
      <ele>251.4</ele>
      <time>2014-05-17T12:30:55Z</time>
    </trkpt>
    <trkpt lat="45.900496691" lon="13.829729185">
      <ele>251.7</ele>
      <time>2014-05-17T12:30:56Z</time>
    </trkpt>
    <trkpt lat="45.900581768" lon="13.829615191">
      <ele>252.4</ele>
      <time>2014-05-17T12:31:00Z</time>
    </trkpt>
    <trkpt lat="45.900581265" lon="13.829607144">
      <ele>252.4</ele>
      <time>2014-05-17T12:31:09Z</time>
    </trkpt>
    <trkpt lat="45.90060926" lon="13.829576382">
      <ele>252.6</ele>
      <time>2014-05-17T12:31:13Z</time>
    </trkpt>
    <trkpt lat="45.900644884" lon="13.829528773">
      <ele>252.9</ele>
      <time>2014-05-17T12:31:14Z</time>
    </trkpt>
    <trkpt lat="45.900703557" lon="13.829416707">
      <ele>253.0</ele>
      <time>2014-05-17T12:31:16Z</time>
    </trkpt>
    <trkpt lat="45.900806654" lon="13.829238592">
      <ele>253.2</ele>
      <time>2014-05-17T12:31:19Z</time>
    </trkpt>
    <trkpt lat="45.900856443" lon="13.829194084">
      <ele>253.4</ele>
      <time>2014-05-17T12:31:20Z</time>
    </trkpt>
    <trkpt lat="45.90091344" lon="13.829155443">
      <ele>253.5</ele>
      <time>2014-05-17T12:31:21Z</time>
    </trkpt>
    <trkpt lat="45.900976639" lon="13.829117138">
      <ele>253.5</ele>
      <time>2014-05-17T12:31:22Z</time>
    </trkpt>
    <trkpt lat="45.901036486" lon="13.829079168">
      <ele>253.6</ele>
      <time>2014-05-17T12:31:23Z</time>
    </trkpt>
    <trkpt lat="45.901153749" lon="13.828977076">
      <ele>253.6</ele>
      <time>2014-05-17T12:31:25Z</time>
    </trkpt>
    <trkpt lat="45.901207728" lon="13.828910859">
      <ele>253.6</ele>
      <time>2014-05-17T12:31:26Z</time>
    </trkpt>
    <trkpt lat="45.901260283" lon="13.828838523">
      <ele>253.5</ele>
      <time>2014-05-17T12:31:27Z</time>
    </trkpt>
    <trkpt lat="45.901311915" lon="13.828761745">
      <ele>253.5</ele>
      <time>2014-05-17T12:31:28Z</time>
    </trkpt>
    <trkpt lat="45.901363213" lon="13.828681698">
      <ele>253.6</ele>
      <time>2014-05-17T12:31:29Z</time>
    </trkpt>
    <trkpt lat="45.901454827" lon="13.828514982">
      <ele>253.7</ele>
      <time>2014-05-17T12:31:31Z</time>
    </trkpt>
    <trkpt lat="45.90148936" lon="13.828410627">
      <ele>253.7</ele>
      <time>2014-05-17T12:31:32Z</time>
    </trkpt>
    <trkpt lat="45.901515596" lon="13.82829898">
      <ele>253.4</ele>
      <time>2014-05-17T12:31:33Z</time>
    </trkpt>
    <trkpt lat="45.901520206" lon="13.828187166">
      <ele>252.5</ele>
      <time>2014-05-17T12:31:34Z</time>
    </trkpt>
    <trkpt lat="45.901508555" lon="13.828076944">
      <ele>251.5</ele>
      <time>2014-05-17T12:31:35Z</time>
    </trkpt>
    <trkpt lat="45.901490701" lon="13.827961441">
      <ele>250.3</ele>
      <time>2014-05-17T12:31:36Z</time>
    </trkpt>
    <trkpt lat="45.901465053" lon="13.827843843">
      <ele>249.0</ele>
      <time>2014-05-17T12:31:37Z</time>
    </trkpt>
    <trkpt lat="45.901440326" lon="13.827732699">
      <ele>247.8</ele>
      <time>2014-05-17T12:31:38Z</time>
    </trkpt>
    <trkpt lat="45.901421383" lon="13.827624572">
      <ele>246.7</ele>
      <time>2014-05-17T12:31:39Z</time>
    </trkpt>
    <trkpt lat="45.901416186" lon="13.827512925">
      <ele>245.8</ele>
      <time>2014-05-17T12:31:40Z</time>
    </trkpt>
    <trkpt lat="45.901497072" lon="13.827109672">
      <ele>243.9</ele>
      <time>2014-05-17T12:31:44Z</time>
    </trkpt>
    <trkpt lat="45.901613748" lon="13.826990984">
      <ele>244.6</ele>
      <time>2014-05-17T12:31:46Z</time>
    </trkpt>
    <trkpt lat="45.901824469" lon="13.826918649">
      <ele>247.2</ele>
      <time>2014-05-17T12:31:49Z</time>
    </trkpt>
    <trkpt lat="45.902306009" lon="13.826855449">
      <ele>253.7</ele>
      <time>2014-05-17T12:31:55Z</time>
    </trkpt>
    <trkpt lat="45.90237407" lon="13.826837512">
      <ele>254.4</ele>
      <time>2014-05-17T12:31:56Z</time>
    </trkpt>
    <trkpt lat="45.902414303" lon="13.826821335">
      <ele>254.8</ele>
      <time>2014-05-17T12:31:57Z</time>
    </trkpt>
    <trkpt lat="45.902440706" lon="13.826788226">
      <ele>254.8</ele>
      <time>2014-05-17T12:31:58Z</time>
    </trkpt>
    <trkpt lat="45.902459146" lon="13.82673936">
      <ele>254.4</ele>
      <time>2014-05-17T12:31:59Z</time>
    </trkpt>
    <trkpt lat="45.902453698" lon="13.826679178">
      <ele>253.5</ele>
      <time>2014-05-17T12:32:00Z</time>
    </trkpt>
    <trkpt lat="45.902417153" lon="13.826609356">
      <ele>252.7</ele>
      <time>2014-05-17T12:32:01Z</time>
    </trkpt>
    <trkpt lat="45.902370634" lon="13.826535679">
      <ele>251.9</ele>
      <time>2014-05-17T12:32:02Z</time>
    </trkpt>
    <trkpt lat="45.902317408" lon="13.826457812">
      <ele>250.9</ele>
      <time>2014-05-17T12:32:03Z</time>
    </trkpt>
    <trkpt lat="45.902266027" lon="13.826380949">
      <ele>249.8</ele>
      <time>2014-05-17T12:32:04Z</time>
    </trkpt>
    <trkpt lat="45.902218586" lon="13.826308865">
      <ele>248.8</ele>
      <time>2014-05-17T12:32:05Z</time>
    </trkpt>
    <trkpt lat="45.902177766" lon="13.826237787">
      <ele>247.9</ele>
      <time>2014-05-17T12:32:06Z</time>
    </trkpt>
    <trkpt lat="45.902142143" lon="13.826163104">
      <ele>247.0</ele>
      <time>2014-05-17T12:32:07Z</time>
    </trkpt>
    <trkpt lat="45.902112219" lon="13.826097976">
      <ele>246.2</ele>
      <time>2014-05-17T12:32:08Z</time>
    </trkpt>
    <trkpt lat="45.902096797" lon="13.826019522">
      <ele>245.6</ele>
      <time>2014-05-17T12:32:09Z</time>
    </trkpt>
    <trkpt lat="45.902101239" lon="13.825928662">
      <ele>245.3</ele>
      <time>2014-05-17T12:32:10Z</time>
    </trkpt>
    <trkpt lat="45.902113141" lon="13.825845765">
      <ele>245.1</ele>
      <time>2014-05-17T12:32:11Z</time>
    </trkpt>
    <trkpt lat="45.902128983" lon="13.825792959">
      <ele>245.3</ele>
      <time>2014-05-17T12:32:12Z</time>
    </trkpt>
    <trkpt lat="45.902139461" lon="13.825744931">
      <ele>245.5</ele>
      <time>2014-05-17T12:32:14Z</time>
    </trkpt>
    <trkpt lat="45.902142311" lon="13.825745601">
      <ele>245.5</ele>
      <time>2014-05-17T12:32:15Z</time>
    </trkpt>
    <trkpt lat="45.902142311" lon="13.825745601">
      <ele>245.5</ele>
      <time>2014-05-17T12:32:28Z</time>
    </trkpt>
    <trkpt lat="45.902142311" lon="13.825745601">
      <ele>245.5</ele>
      <time>2014-05-17T12:32:45Z</time>
    </trkpt>
    <trkpt lat="45.902144825" lon="13.82574535">
      <ele>245.6</ele>
      <time>2014-05-17T12:33:00Z</time>
    </trkpt>
    <trkpt lat="45.902138203" lon="13.825726407">
      <ele>245.5</ele>
      <time>2014-05-17T12:33:06Z</time>
    </trkpt>
    <trkpt lat="45.902136862" lon="13.825705536">
      <ele>245.4</ele>
      <time>2014-05-17T12:33:07Z</time>
    </trkpt>
    <trkpt lat="45.902169216" lon="13.825573605">
      <ele>246.0</ele>
      <time>2014-05-17T12:33:10Z</time>
    </trkpt>
    <trkpt lat="45.902189082" lon="13.825515267">
      <ele>246.3</ele>
      <time>2014-05-17T12:33:11Z</time>
    </trkpt>
    <trkpt lat="45.902213473" lon="13.825450977">
      <ele>246.7</ele>
      <time>2014-05-17T12:33:12Z</time>
    </trkpt>
    <trkpt lat="45.902250186" lon="13.825387191">
      <ele>247.3</ele>
      <time>2014-05-17T12:33:13Z</time>
    </trkpt>
    <trkpt lat="45.902297962" lon="13.82532659">
      <ele>248.1</ele>
      <time>2014-05-17T12:33:14Z</time>
    </trkpt>
    <trkpt lat="45.90247063" lon="13.825110337">
      <ele>250.7</ele>
      <time>2014-05-17T12:33:17Z</time>
    </trkpt>
    <trkpt lat="45.902529052" lon="13.825029368">
      <ele>251.5</ele>
      <time>2014-05-17T12:33:18Z</time>
    </trkpt>
    <trkpt lat="45.902581438" lon="13.824939346">
      <ele>252.0</ele>
      <time>2014-05-17T12:33:19Z</time>
    </trkpt>
    <trkpt lat="45.902628712" lon="13.824844211">
      <ele>252.4</ele>
      <time>2014-05-17T12:33:20Z</time>
    </trkpt>
    <trkpt lat="45.902661234" lon="13.824752178">
      <ele>252.6</ele>
      <time>2014-05-17T12:33:21Z</time>
    </trkpt>
    <trkpt lat="45.902682608" lon="13.824664">
      <ele>252.7</ele>
      <time>2014-05-17T12:33:22Z</time>
    </trkpt>
    <trkpt lat="45.90269384" lon="13.82460298">
      <ele>252.7</ele>
      <time>2014-05-17T12:33:23Z</time>
    </trkpt>
    <trkpt lat="45.902696941" lon="13.824568866">
      <ele>252.7</ele>
      <time>2014-05-17T12:33:24Z</time>
    </trkpt>
    <trkpt lat="45.902694091" lon="13.824550258">
      <ele>252.6</ele>
      <time>2014-05-17T12:33:25Z</time>
    </trkpt>
    <trkpt lat="45.902691828" lon="13.824540703">
      <ele>252.5</ele>
      <time>2014-05-17T12:33:26Z</time>
    </trkpt>
    <trkpt lat="45.902646566" lon="13.824415728">
      <ele>251.4</ele>
      <time>2014-05-17T12:33:30Z</time>
    </trkpt>
    <trkpt lat="45.902539277" lon="13.824129906">
      <ele>248.4</ele>
      <time>2014-05-17T12:33:34Z</time>
    </trkpt>
    <trkpt lat="45.902514299" lon="13.823979199">
      <ele>246.9</ele>
      <time>2014-05-17T12:33:36Z</time>
    </trkpt>
    <trkpt lat="45.902529471" lon="13.823901247">
      <ele>246.6</ele>
      <time>2014-05-17T12:33:37Z</time>
    </trkpt>
    <trkpt lat="45.902603902" lon="13.823774513">
      <ele>247.1</ele>
      <time>2014-05-17T12:33:39Z</time>
    </trkpt>
    <trkpt lat="45.902659725" lon="13.823704943">
      <ele>247.7</ele>
      <time>2014-05-17T12:33:40Z</time>
    </trkpt>
    <trkpt lat="45.902717058" lon="13.823620789">
      <ele>248.1</ele>
      <time>2014-05-17T12:33:41Z</time>
    </trkpt>
    <trkpt lat="45.902766343" lon="13.823521631">
      <ele>248.4</ele>
      <time>2014-05-17T12:33:42Z</time>
    </trkpt>
    <trkpt lat="45.902807666" lon="13.8234099">
      <ele>248.4</ele>
      <time>2014-05-17T12:33:43Z</time>
    </trkpt>
    <trkpt lat="45.902844798" lon="13.823277047">
      <ele>248.2</ele>
      <time>2014-05-17T12:33:44Z</time>
    </trkpt>
    <trkpt lat="45.902882097" lon="13.823149642">
      <ele>248.0</ele>
      <time>2014-05-17T12:33:45Z</time>
    </trkpt>
    <trkpt lat="45.902917888" lon="13.823026428">
      <ele>247.8</ele>
      <time>2014-05-17T12:33:46Z</time>
    </trkpt>
    <trkpt lat="45.902950075" lon="13.822909668">
      <ele>247.6</ele>
      <time>2014-05-17T12:33:47Z</time>
    </trkpt>
    <trkpt lat="45.902975556" lon="13.822798943">
      <ele>247.2</ele>
      <time>2014-05-17T12:33:48Z</time>
    </trkpt>
    <trkpt lat="45.902988045" lon="13.822703306">
      <ele>246.7</ele>
      <time>2014-05-17T12:33:49Z</time>
    </trkpt>
    <trkpt lat="45.902980249" lon="13.822548324">
      <ele>245.4</ele>
      <time>2014-05-17T12:33:51Z</time>
    </trkpt>
    <trkpt lat="45.902956445" lon="13.822479174">
      <ele>244.5</ele>
      <time>2014-05-17T12:33:52Z</time>
    </trkpt>
    <trkpt lat="45.902920989" lon="13.822419411">
      <ele>243.5</ele>
      <time>2014-05-17T12:33:53Z</time>
    </trkpt>
    <trkpt lat="45.902875643" lon="13.822371047">
      <ele>242.4</ele>
      <time>2014-05-17T12:33:54Z</time>
    </trkpt>
    <trkpt lat="45.902819317" lon="13.822348583">
      <ele>241.3</ele>
      <time>2014-05-17T12:33:55Z</time>
    </trkpt>
    <trkpt lat="45.902757458" lon="13.8223485">
      <ele>240.2</ele>
      <time>2014-05-17T12:33:56Z</time>
    </trkpt>
    <trkpt lat="45.902688056" lon="13.822349338">
      <ele>239.1</ele>
      <time>2014-05-17T12:33:57Z</time>
    </trkpt>
    <trkpt lat="45.90261681" lon="13.8223485">
      <ele>237.9</ele>
      <time>2014-05-17T12:33:58Z</time>
    </trkpt>
    <trkpt lat="45.902543804" lon="13.822343638">
      <ele>236.6</ele>
      <time>2014-05-17T12:33:59Z</time>
    </trkpt>
    <trkpt lat="45.902467025" lon="13.822324611">
      <ele>235.2</ele>
      <time>2014-05-17T12:34:00Z</time>
    </trkpt>
    <trkpt lat="45.902387314" lon="13.822286977">
      <ele>233.6</ele>
      <time>2014-05-17T12:34:01Z</time>
    </trkpt>
    <trkpt lat="45.902309194" lon="13.822244983">
      <ele>232.1</ele>
      <time>2014-05-17T12:34:02Z</time>
    </trkpt>
    <trkpt lat="45.902232751" lon="13.82219662">
      <ele>230.6</ele>
      <time>2014-05-17T12:34:03Z</time>
    </trkpt>
    <trkpt lat="45.902161337" lon="13.822149262">
      <ele>229.1</ele>
      <time>2014-05-17T12:34:04Z</time>
    </trkpt>
    <trkpt lat="45.90209621" lon="13.82210115">
      <ele>227.8</ele>
      <time>2014-05-17T12:34:05Z</time>
    </trkpt>
    <trkpt lat="45.902039381" lon="13.822045578">
      <ele>226.6</ele>
      <time>2014-05-17T12:34:06Z</time>
    </trkpt>
    <trkpt lat="45.901986994" lon="13.821974918">
      <ele>225.4</ele>
      <time>2014-05-17T12:34:07Z</time>
    </trkpt>
    <trkpt lat="45.901943073" lon="13.821893027">
      <ele>224.2</ele>
      <time>2014-05-17T12:34:08Z</time>
    </trkpt>
    <trkpt lat="45.901903929" lon="13.821806107">
      <ele>223.2</ele>
      <time>2014-05-17T12:34:09Z</time>
    </trkpt>
    <trkpt lat="45.901862858" lon="13.821702423">
      <ele>222.0</ele>
      <time>2014-05-17T12:34:10Z</time>
    </trkpt>
    <trkpt lat="45.901820697" lon="13.821597733">
      <ele>220.9</ele>
      <time>2014-05-17T12:34:11Z</time>
    </trkpt>
    <trkpt lat="45.901776608" lon="13.821491366">
      <ele>219.9</ele>
      <time>2014-05-17T12:34:12Z</time>
    </trkpt>
    <trkpt lat="45.90172925" lon="13.821389275">
      <ele>218.8</ele>
      <time>2014-05-17T12:34:13Z</time>
    </trkpt>
    <trkpt lat="45.90167854" lon="13.821291458">
      <ele>217.8</ele>
      <time>2014-05-17T12:34:14Z</time>
    </trkpt>
    <trkpt lat="45.901619112" lon="13.821189534">
      <ele>216.7</ele>
      <time>2014-05-17T12:34:15Z</time>
    </trkpt>
    <trkpt lat="45.901558762" lon="13.821089286">
      <ele>215.6</ele>
      <time>2014-05-17T12:34:16Z</time>
    </trkpt>
    <trkpt lat="45.90149506" lon="13.820990967">
      <ele>214.5</ele>
      <time>2014-05-17T12:34:17Z</time>
    </trkpt>
    <trkpt lat="45.901429262" lon="13.820901196">
      <ele>213.4</ele>
      <time>2014-05-17T12:34:18Z</time>
    </trkpt>
    <trkpt lat="45.901357429" lon="13.820826514">
      <ele>212.2</ele>
      <time>2014-05-17T12:34:19Z</time>
    </trkpt>
    <trkpt lat="45.901284171" lon="13.82077463">
      <ele>211.0</ele>
      <time>2014-05-17T12:34:20Z</time>
    </trkpt>
    <trkpt lat="45.901212925" lon="13.820728781">
      <ele>209.9</ele>
      <time>2014-05-17T12:34:21Z</time>
    </trkpt>
    <trkpt lat="45.90115115" lon="13.820676059">
      <ele>208.8</ele>
      <time>2014-05-17T12:34:22Z</time>
    </trkpt>
    <trkpt lat="45.901104799" lon="13.820614368">
      <ele>207.9</ele>
      <time>2014-05-17T12:34:23Z</time>
    </trkpt>
    <trkpt lat="45.901068756" lon="13.820533147">
      <ele>207.1</ele>
      <time>2014-05-17T12:34:24Z</time>
    </trkpt>
    <trkpt lat="45.901043946" lon="13.820420662">
      <ele>206.2</ele>
      <time>2014-05-17T12:34:25Z</time>
    </trkpt>
    <trkpt lat="45.90102274" lon="13.820299795">
      <ele>205.3</ele>
      <time>2014-05-17T12:34:26Z</time>
    </trkpt>
    <trkpt lat="45.900995834" lon="13.82016426">
      <ele>204.3</ele>
      <time>2014-05-17T12:34:27Z</time>
    </trkpt>
    <trkpt lat="45.900959959" lon="13.820029646">
      <ele>203.2</ele>
      <time>2014-05-17T12:34:28Z</time>
    </trkpt>
    <trkpt lat="45.90091981" lon="13.819898805">
      <ele>201.9</ele>
      <time>2014-05-17T12:34:29Z</time>
    </trkpt>
    <trkpt lat="45.900868932" lon="13.819770394">
      <ele>200.4</ele>
      <time>2014-05-17T12:34:30Z</time>
    </trkpt>
    <trkpt lat="45.900806654" lon="13.819656484">
      <ele>199.0</ele>
      <time>2014-05-17T12:34:31Z</time>
    </trkpt>
    <trkpt lat="45.900731971" lon="13.819565037">
      <ele>197.7</ele>
      <time>2014-05-17T12:34:32Z</time>
    </trkpt>
    <trkpt lat="45.900648152" lon="13.819488343">
      <ele>196.5</ele>
      <time>2014-05-17T12:34:33Z</time>
    </trkpt>
    <trkpt lat="45.900564501" lon="13.819432436">
      <ele>195.5</ele>
      <time>2014-05-17T12:34:34Z</time>
    </trkpt>
    <trkpt lat="45.900484454" lon="13.819385413">
      <ele>194.5</ele>
      <time>2014-05-17T12:34:35Z</time>
    </trkpt>
    <trkpt lat="45.900414549" lon="13.819340905">
      <ele>193.7</ele>
      <time>2014-05-17T12:34:36Z</time>
    </trkpt>
    <trkpt lat="45.900366018" lon="13.819276197">
      <ele>192.7</ele>
      <time>2014-05-17T12:34:37Z</time>
    </trkpt>
    <trkpt lat="45.900345063" lon="13.819196401">
      <ele>191.8</ele>
      <time>2014-05-17T12:34:38Z</time>
    </trkpt>
    <trkpt lat="45.900338609" lon="13.819104536">
      <ele>191.0</ele>
      <time>2014-05-17T12:34:39Z</time>
    </trkpt>
    <trkpt lat="45.900334753" lon="13.818992302">
      <ele>190.3</ele>
      <time>2014-05-17T12:34:40Z</time>
    </trkpt>
    <trkpt lat="45.90033249" lon="13.818874452">
      <ele>189.5</ele>
      <time>2014-05-17T12:34:41Z</time>
    </trkpt>
    <trkpt lat="45.900339782" lon="13.818772025">
      <ele>188.9</ele>
      <time>2014-05-17T12:34:42Z</time>
    </trkpt>
    <trkpt lat="45.900366521" lon="13.818682758">
      <ele>188.5</ele>
      <time>2014-05-17T12:34:43Z</time>
    </trkpt>
    <trkpt lat="45.900407173" lon="13.818604387">
      <ele>188.2</ele>
      <time>2014-05-17T12:34:44Z</time>
    </trkpt>
    <trkpt lat="45.900471462" lon="13.818543451">
      <ele>188.2</ele>
      <time>2014-05-17T12:34:45Z</time>
    </trkpt>
    <trkpt lat="45.900535248" lon="13.818519143">
      <ele>188.5</ele>
      <time>2014-05-17T12:34:46Z</time>
    </trkpt>
    <trkpt lat="45.900606411" lon="13.818525514">
      <ele>189.0</ele>
      <time>2014-05-17T12:34:47Z</time>
    </trkpt>
    <trkpt lat="45.90067816" lon="13.818547474">
      <ele>189.6</ele>
      <time>2014-05-17T12:34:48Z</time>
    </trkpt>
    <trkpt lat="45.900749071" lon="13.818547139">
      <ele>190.0</ele>
      <time>2014-05-17T12:34:49Z</time>
    </trkpt>
    <trkpt lat="45.900814952" lon="13.818528531">
      <ele>190.3</ele>
      <time>2014-05-17T12:34:50Z</time>
    </trkpt>
    <trkpt lat="45.900863735" lon="13.818490393">
      <ele>190.5</ele>
      <time>2014-05-17T12:34:51Z</time>
    </trkpt>
    <trkpt lat="45.900890725" lon="13.818438593">
      <ele>190.4</ele>
      <time>2014-05-17T12:34:52Z</time>
    </trkpt>
    <trkpt lat="45.900885779" lon="13.818357959">
      <ele>189.7</ele>
      <time>2014-05-17T12:34:53Z</time>
    </trkpt>
    <trkpt lat="45.90087438" lon="13.818260897">
      <ele>188.9</ele>
      <time>2014-05-17T12:34:54Z</time>
    </trkpt>
    <trkpt lat="45.900859963" lon="13.818151178">
      <ele>188.0</ele>
      <time>2014-05-17T12:34:55Z</time>
    </trkpt>
    <trkpt lat="45.900842696" lon="13.818031149">
      <ele>186.9</ele>
      <time>2014-05-17T12:34:56Z</time>
    </trkpt>
    <trkpt lat="45.900817132" lon="13.817915646">
      <ele>185.9</ele>
      <time>2014-05-17T12:34:57Z</time>
    </trkpt>
    <trkpt lat="45.900746556" lon="13.817691598">
      <ele>183.8</ele>
      <time>2014-05-17T12:34:59Z</time>
    </trkpt>
    <trkpt lat="45.900622839" lon="13.817335702">
      <ele>180.3</ele>
      <time>2014-05-17T12:35:02Z</time>
    </trkpt>
    <trkpt lat="45.900609177" lon="13.817220619">
      <ele>179.3</ele>
      <time>2014-05-17T12:35:03Z</time>
    </trkpt>
    <trkpt lat="45.900607584" lon="13.817098998">
      <ele>178.4</ele>
      <time>2014-05-17T12:35:04Z</time>
    </trkpt>
    <trkpt lat="45.90061387" lon="13.816971006">
      <ele>177.4</ele>
      <time>2014-05-17T12:35:05Z</time>
    </trkpt>
    <trkpt lat="45.900623007" lon="13.816834297">
      <ele>176.5</ele>
      <time>2014-05-17T12:35:06Z</time>
    </trkpt>
    <trkpt lat="45.900633316" lon="13.816693397">
      <ele>175.5</ele>
      <time>2014-05-17T12:35:07Z</time>
    </trkpt>
    <trkpt lat="45.900643794" lon="13.816543948">
      <ele>174.6</ele>
      <time>2014-05-17T12:35:08Z</time>
    </trkpt>
    <trkpt lat="45.90065008" lon="13.81640682">
      <ele>173.7</ele>
      <time>2014-05-17T12:35:09Z</time>
    </trkpt>
    <trkpt lat="45.900650751" lon="13.816271536">
      <ele>172.7</ele>
      <time>2014-05-17T12:35:10Z</time>
    </trkpt>
    <trkpt lat="45.900634825" lon="13.816142455">
      <ele>171.7</ele>
      <time>2014-05-17T12:35:11Z</time>
    </trkpt>
    <trkpt lat="45.900597107" lon="13.816022929">
      <ele>170.6</ele>
      <time>2014-05-17T12:35:12Z</time>
    </trkpt>
    <trkpt lat="45.90054078" lon="13.81592067">
      <ele>169.5</ele>
      <time>2014-05-17T12:35:13Z</time>
    </trkpt>
    <trkpt lat="45.900482861" lon="13.815822685">
      <ele>168.4</ele>
      <time>2014-05-17T12:35:14Z</time>
    </trkpt>
    <trkpt lat="45.90043433" lon="13.815723695">
      <ele>167.7</ele>
      <time>2014-05-17T12:35:15Z</time>
    </trkpt>
    <trkpt lat="45.900405496" lon="13.815619424">
      <ele>167.2</ele>
      <time>2014-05-17T12:35:16Z</time>
    </trkpt>
    <trkpt lat="45.900390493" lon="13.815508615">
      <ele>166.7</ele>
      <time>2014-05-17T12:35:17Z</time>
    </trkpt>
    <trkpt lat="45.900380602" lon="13.815390849">
      <ele>166.2</ele>
      <time>2014-05-17T12:35:18Z</time>
    </trkpt>
    <trkpt lat="45.900378423" lon="13.81527409">
      <ele>165.8</ele>
      <time>2014-05-17T12:35:19Z</time>
    </trkpt>
    <trkpt lat="45.900382027" lon="13.815160096">
      <ele>165.4</ele>
      <time>2014-05-17T12:35:20Z</time>
    </trkpt>
    <trkpt lat="45.900398204" lon="13.815062279">
      <ele>165.1</ele>
      <time>2014-05-17T12:35:21Z</time>
    </trkpt>
    <trkpt lat="45.90042687" lon="13.814978376">
      <ele>165.0</ele>
      <time>2014-05-17T12:35:22Z</time>
    </trkpt>
    <trkpt lat="45.900467271" lon="13.814906627">
      <ele>165.1</ele>
      <time>2014-05-17T12:35:23Z</time>
    </trkpt>
    <trkpt lat="45.900511947" lon="13.81485709">
      <ele>165.3</ele>
      <time>2014-05-17T12:35:24Z</time>
    </trkpt>
    <trkpt lat="45.900556371" lon="13.814816521">
      <ele>165.5</ele>
      <time>2014-05-17T12:35:25Z</time>
    </trkpt>
    <trkpt lat="45.90059082" lon="13.814766733">
      <ele>165.7</ele>
      <time>2014-05-17T12:35:26Z</time>
    </trkpt>
    <trkpt lat="45.90061672" lon="13.814707473">
      <ele>165.9</ele>
      <time>2014-05-17T12:35:27Z</time>
    </trkpt>
    <trkpt lat="45.900635412" lon="13.814642597">
      <ele>166.1</ele>
      <time>2014-05-17T12:35:28Z</time>
    </trkpt>
    <trkpt lat="45.900657456" lon="13.814504463">
      <ele>166.3</ele>
      <time>2014-05-17T12:35:30Z</time>
    </trkpt>
    <trkpt lat="45.900657373" lon="13.814441012">
      <ele>166.4</ele>
      <time>2014-05-17T12:35:31Z</time>
    </trkpt>
    <trkpt lat="45.900654439" lon="13.814382255">
      <ele>166.4</ele>
      <time>2014-05-17T12:35:32Z</time>
    </trkpt>
    <trkpt lat="45.900650416" lon="13.814325174">
      <ele>166.3</ele>
      <time>2014-05-17T12:35:33Z</time>
    </trkpt>
    <trkpt lat="45.900646225" lon="13.814266333">
      <ele>166.3</ele>
      <time>2014-05-17T12:35:34Z</time>
    </trkpt>
    <trkpt lat="45.900634406" lon="13.814147562">
      <ele>166.2</ele>
      <time>2014-05-17T12:35:36Z</time>
    </trkpt>
    <trkpt lat="45.900594844" lon="13.814000459">
      <ele>166.2</ele>
      <time>2014-05-17T12:35:38Z</time>
    </trkpt>
    <trkpt lat="45.900533237" lon="13.813833576">
      <ele>165.8</ele>
      <time>2014-05-17T12:35:40Z</time>
    </trkpt>
    <trkpt lat="45.900405329" lon="13.813576754">
      <ele>164.2</ele>
      <time>2014-05-17T12:35:43Z</time>
    </trkpt>
    <trkpt lat="45.900103496" lon="13.813126395">
      <ele>159.8</ele>
      <time>2014-05-17T12:35:49Z</time>
    </trkpt>
    <trkpt lat="45.90000459" lon="13.81299396">
      <ele>158.9</ele>
      <time>2014-05-17T12:35:51Z</time>
    </trkpt>
    <trkpt lat="45.899954634" lon="13.812937802">
      <ele>159.0</ele>
      <time>2014-05-17T12:35:52Z</time>
    </trkpt>
    <trkpt lat="45.899902331" lon="13.812895641">
      <ele>159.0</ele>
      <time>2014-05-17T12:35:53Z</time>
    </trkpt>
    <trkpt lat="45.899847345" lon="13.812876865">
      <ele>158.7</ele>
      <time>2014-05-17T12:35:54Z</time>
    </trkpt>
    <trkpt lat="45.899793198" lon="13.812865466">
      <ele>158.4</ele>
      <time>2014-05-17T12:35:55Z</time>
    </trkpt>
    <trkpt lat="45.899686748" lon="13.81283462">
      <ele>157.8</ele>
      <time>2014-05-17T12:35:57Z</time>
    </trkpt>
    <trkpt lat="45.899597062" lon="13.812774858">
      <ele>157.5</ele>
      <time>2014-05-17T12:35:59Z</time>
    </trkpt>
    <trkpt lat="45.899488768" lon="13.81270051">
      <ele>157.0</ele>
      <time>2014-05-17T12:36:01Z</time>
    </trkpt>
    <trkpt lat="45.899375109" lon="13.812640077">
      <ele>156.3</ele>
      <time>2014-05-17T12:36:03Z</time>
    </trkpt>
    <trkpt lat="45.899198167" lon="13.812570842">
      <ele>155.0</ele>
      <time>2014-05-17T12:36:06Z</time>
    </trkpt>
    <trkpt lat="45.899137398" lon="13.81256707">
      <ele>154.5</ele>
      <time>2014-05-17T12:36:07Z</time>
    </trkpt>
    <trkpt lat="45.89907378" lon="13.812571177">
      <ele>154.1</ele>
      <time>2014-05-17T12:36:08Z</time>
    </trkpt>
    <trkpt lat="45.899016112" lon="13.812571764">
      <ele>153.7</ele>
      <time>2014-05-17T12:36:09Z</time>
    </trkpt>
    <trkpt lat="45.898952913" lon="13.812577967">
      <ele>153.2</ele>
      <time>2014-05-17T12:36:10Z</time>
    </trkpt>
    <trkpt lat="45.898899436" lon="13.812584588">
      <ele>152.8</ele>
      <time>2014-05-17T12:36:11Z</time>
    </trkpt>
    <trkpt lat="45.898781922" lon="13.812545864">
      <ele>152.1</ele>
      <time>2014-05-17T12:36:13Z</time>
    </trkpt>
    <trkpt lat="45.898664575" lon="13.812435642">
      <ele>151.5</ele>
      <time>2014-05-17T12:36:15Z</time>
    </trkpt>
    <trkpt lat="45.898605734" lon="13.812371101">
      <ele>151.3</ele>
      <time>2014-05-17T12:36:16Z</time>
    </trkpt>
    <trkpt lat="45.898549408" lon="13.812305387">
      <ele>151.0</ele>
      <time>2014-05-17T12:36:17Z</time>
    </trkpt>
    <trkpt lat="45.898494842" lon="13.812234979">
      <ele>150.8</ele>
      <time>2014-05-17T12:36:18Z</time>
    </trkpt>
    <trkpt lat="45.898448825" lon="13.812166331">
      <ele>150.6</ele>
      <time>2014-05-17T12:36:19Z</time>
    </trkpt>
    <trkpt lat="45.898400629" lon="13.812098019">
      <ele>150.4</ele>
      <time>2014-05-17T12:36:20Z</time>
    </trkpt>
    <trkpt lat="45.898350589" lon="13.812049991">
      <ele>150.2</ele>
      <time>2014-05-17T12:36:21Z</time>
    </trkpt>
    <trkpt lat="45.898310607" lon="13.812029287">
      <ele>150.3</ele>
      <time>2014-05-17T12:36:22Z</time>
    </trkpt>
    <trkpt lat="45.898278756" lon="13.812019983">
      <ele>150.7</ele>
      <time>2014-05-17T12:36:23Z</time>
    </trkpt>
    <trkpt lat="45.898252185" lon="13.812031047">
      <ele>150.9</ele>
      <time>2014-05-17T12:36:24Z</time>
    </trkpt>
    <trkpt lat="45.898222011" lon="13.812071867">
      <ele>150.9</ele>
      <time>2014-05-17T12:36:25Z</time>
    </trkpt>
    <trkpt lat="45.898174653" lon="13.812118135">
      <ele>151.0</ele>
      <time>2014-05-17T12:36:26Z</time>
    </trkpt>
    <trkpt lat="45.898124278" lon="13.812172366">
      <ele>151.0</ele>
      <time>2014-05-17T12:36:27Z</time>
    </trkpt>
    <trkpt lat="45.898061162" lon="13.812222406">
      <ele>150.9</ele>
      <time>2014-05-17T12:36:28Z</time>
    </trkpt>
    <trkpt lat="45.897905678" lon="13.812331455">
      <ele>150.1</ele>
      <time>2014-05-17T12:36:30Z</time>
    </trkpt>
    <trkpt lat="45.897827977" lon="13.812396834">
      <ele>149.3</ele>
      <time>2014-05-17T12:36:31Z</time>
    </trkpt>
    <trkpt lat="45.897750193" lon="13.812464811">
      <ele>148.2</ele>
      <time>2014-05-17T12:36:32Z</time>
    </trkpt>
    <trkpt lat="45.897672744" lon="13.812534465">
      <ele>147.3</ele>
      <time>2014-05-17T12:36:33Z</time>
    </trkpt>
    <trkpt lat="45.897596469" lon="13.812611075">
      <ele>146.7</ele>
      <time>2014-05-17T12:36:34Z</time>
    </trkpt>
    <trkpt lat="45.89752363" lon="13.812667066">
      <ele>146.3</ele>
      <time>2014-05-17T12:36:35Z</time>
    </trkpt>
    <trkpt lat="45.897455234" lon="13.812698247">
      <ele>146.0</ele>
      <time>2014-05-17T12:36:36Z</time>
    </trkpt>
    <trkpt lat="45.897395555" lon="13.812723057">
      <ele>145.7</ele>
      <time>2014-05-17T12:36:37Z</time>
    </trkpt>
    <trkpt lat="45.897343168" lon="13.812748203">
      <ele>145.5</ele>
      <time>2014-05-17T12:36:38Z</time>
    </trkpt>
    <trkpt lat="45.897297151" lon="13.812766559">
      <ele>145.4</ele>
      <time>2014-05-17T12:36:39Z</time>
    </trkpt>
    <trkpt lat="45.897249542" lon="13.812784497">
      <ele>145.2</ele>
      <time>2014-05-17T12:36:40Z</time>
    </trkpt>
    <trkpt lat="45.89720034" lon="13.81280411">
      <ele>145.1</ele>
      <time>2014-05-17T12:36:41Z</time>
    </trkpt>
    <trkpt lat="45.897143511" lon="13.81282188">
      <ele>144.9</ele>
      <time>2014-05-17T12:36:42Z</time>
    </trkpt>
    <trkpt lat="45.89707654" lon="13.812840823">
      <ele>144.8</ele>
      <time>2014-05-17T12:36:43Z</time>
    </trkpt>
    <trkpt lat="45.897001689" lon="13.812861359">
      <ele>144.6</ele>
      <time>2014-05-17T12:36:44Z</time>
    </trkpt>
    <trkpt lat="45.896924492" lon="13.812879799">
      <ele>144.4</ele>
      <time>2014-05-17T12:36:45Z</time>
    </trkpt>
    <trkpt lat="45.896845618" lon="13.812895222">
      <ele>144.3</ele>
      <time>2014-05-17T12:36:46Z</time>
    </trkpt>
    <trkpt lat="45.896700276" lon="13.812905028">
      <ele>144.1</ele>
      <time>2014-05-17T12:36:48Z</time>
    </trkpt>
    <trkpt lat="45.896629533" lon="13.812891366">
      <ele>144.0</ele>
      <time>2014-05-17T12:36:49Z</time>
    </trkpt>
    <trkpt lat="45.896458877" lon="13.812842835">
      <ele>143.8</ele>
      <time>2014-05-17T12:36:51Z</time>
    </trkpt>
    <trkpt lat="45.896163331" lon="13.812796399">
      <ele>142.9</ele>
      <time>2014-05-17T12:36:54Z</time>
    </trkpt>
    <trkpt lat="45.896063922" lon="13.812778629">
      <ele>142.4</ele>
      <time>2014-05-17T12:36:55Z</time>
    </trkpt>
    <trkpt lat="45.895968117" lon="13.812749628">
      <ele>141.7</ele>
      <time>2014-05-17T12:36:56Z</time>
    </trkpt>
    <trkpt lat="45.89587424" lon="13.812711239">
      <ele>140.7</ele>
      <time>2014-05-17T12:36:57Z</time>
    </trkpt>
    <trkpt lat="45.895782961" lon="13.812664468">
      <ele>139.5</ele>
      <time>2014-05-17T12:36:58Z</time>
    </trkpt>
    <trkpt lat="45.895703752" lon="13.812604453">
      <ele>138.2</ele>
      <time>2014-05-17T12:36:59Z</time>
    </trkpt>
    <trkpt lat="45.895632086" lon="13.812537901">
      <ele>136.8</ele>
      <time>2014-05-17T12:37:00Z</time>
    </trkpt>
    <trkpt lat="45.895506022" lon="13.812295329">
      <ele>135.3</ele>
      <time>2014-05-17T12:37:03Z</time>
    </trkpt>
    <trkpt lat="45.895489678" lon="13.812199524">
      <ele>135.0</ele>
      <time>2014-05-17T12:37:04Z</time>
    </trkpt>
    <trkpt lat="45.895478781" lon="13.812085865">
      <ele>134.7</ele>
      <time>2014-05-17T12:37:05Z</time>
    </trkpt>
    <trkpt lat="45.89545724" lon="13.811973548">
      <ele>134.4</ele>
      <time>2014-05-17T12:37:06Z</time>
    </trkpt>
    <trkpt lat="45.895418264" lon="13.811876569">
      <ele>134.0</ele>
      <time>2014-05-17T12:37:07Z</time>
    </trkpt>
    <trkpt lat="45.895366631" lon="13.811793253">
      <ele>133.6</ele>
      <time>2014-05-17T12:37:08Z</time>
    </trkpt>
    <trkpt lat="45.895312317" lon="13.811733071">
      <ele>133.3</ele>
      <time>2014-05-17T12:37:09Z</time>
    </trkpt>
    <trkpt lat="45.895188935" lon="13.811664172">
      <ele>132.7</ele>
      <time>2014-05-17T12:37:11Z</time>
    </trkpt>
    <trkpt lat="45.895129591" lon="13.811634332">
      <ele>132.3</ele>
      <time>2014-05-17T12:37:12Z</time>
    </trkpt>
    <trkpt lat="45.894922893" lon="13.811529307">
      <ele>130.9</ele>
      <time>2014-05-17T12:37:17Z</time>
    </trkpt>
    <trkpt lat="45.894911829" lon="13.811526708">
      <ele>130.9</ele>
      <time>2014-05-17T12:37:18Z</time>
    </trkpt>
    <trkpt lat="45.894902358" lon="13.811525116">
      <ele>130.8</ele>
      <time>2014-05-17T12:37:19Z</time>
    </trkpt>
    <trkpt lat="45.894897832" lon="13.811525451">
      <ele>130.8</ele>
      <time>2014-05-17T12:37:20Z</time>
    </trkpt>
    <trkpt lat="45.894889114" lon="13.811527127">
      <ele>130.8</ele>
      <time>2014-05-17T12:37:22Z</time>
    </trkpt>
    <trkpt lat="45.894804122" lon="13.811516818">
      <ele>130.3</ele>
      <time>2014-05-17T12:37:25Z</time>
    </trkpt>
    <trkpt lat="45.894549061" lon="13.811416989">
      <ele>128.7</ele>
      <time>2014-05-17T12:37:29Z</time>
    </trkpt>
    <trkpt lat="45.894204481" lon="13.811209705">
      <ele>127.1</ele>
      <time>2014-05-17T12:37:33Z</time>
    </trkpt>
    <trkpt lat="45.893838275" lon="13.810922876">
      <ele>125.7</ele>
      <time>2014-05-17T12:37:37Z</time>
    </trkpt>
    <trkpt lat="45.893744063" lon="13.810847523">
      <ele>125.5</ele>
      <time>2014-05-17T12:37:38Z</time>
    </trkpt>
    <trkpt lat="45.893646413" lon="13.810766637">
      <ele>125.0</ele>
      <time>2014-05-17T12:37:39Z</time>
    </trkpt>
    <trkpt lat="45.89356008" lon="13.810687345">
      <ele>124.7</ele>
      <time>2014-05-17T12:37:40Z</time>
    </trkpt>
    <trkpt lat="45.893474249" lon="13.810600424">
      <ele>124.4</ele>
      <time>2014-05-17T12:37:41Z</time>
    </trkpt>
    <trkpt lat="45.893394705" lon="13.810508391">
      <ele>124.1</ele>
      <time>2014-05-17T12:37:42Z</time>
    </trkpt>
    <trkpt lat="45.893313065" lon="13.810418034">
      <ele>123.9</ele>
      <time>2014-05-17T12:37:43Z</time>
    </trkpt>
    <trkpt lat="45.893231509" lon="13.810338238">
      <ele>123.3</ele>
      <time>2014-05-17T12:37:44Z</time>
    </trkpt>
    <trkpt lat="45.89315163" lon="13.810271854">
      <ele>122.8</ele>
      <time>2014-05-17T12:37:45Z</time>
    </trkpt>
    <trkpt lat="45.893070577" lon="13.810202451">
      <ele>122.4</ele>
      <time>2014-05-17T12:37:46Z</time>
    </trkpt>
    <trkpt lat="45.893001258" lon="13.81013657">
      <ele>122.1</ele>
      <time>2014-05-17T12:37:47Z</time>
    </trkpt>
    <trkpt lat="45.892940322" lon="13.810072113">
      <ele>122.0</ele>
      <time>2014-05-17T12:37:48Z</time>
    </trkpt>
    <trkpt lat="45.892877709" lon="13.810017966">
      <ele>121.8</ele>
      <time>2014-05-17T12:37:49Z</time>
    </trkpt>
    <trkpt lat="45.892811911" lon="13.809979828">
      <ele>121.4</ele>
      <time>2014-05-17T12:37:50Z</time>
    </trkpt>
    <trkpt lat="45.892761368" lon="13.809940936">
      <ele>121.1</ele>
      <time>2014-05-17T12:37:51Z</time>
    </trkpt>
    <trkpt lat="45.892719543" lon="13.809909001">
      <ele>120.8</ele>
      <time>2014-05-17T12:37:52Z</time>
    </trkpt>
    <trkpt lat="45.892684925" lon="13.809869522">
      <ele>120.5</ele>
      <time>2014-05-17T12:37:53Z</time>
    </trkpt>
    <trkpt lat="45.892661875" lon="13.809831887">
      <ele>120.3</ele>
      <time>2014-05-17T12:37:54Z</time>
    </trkpt>
    <trkpt lat="45.892652906" lon="13.809806826">
      <ele>120.2</ele>
      <time>2014-05-17T12:37:55Z</time>
    </trkpt>
    <trkpt lat="45.892647626" lon="13.809790732">
      <ele>120.1</ele>
      <time>2014-05-17T12:37:56Z</time>
    </trkpt>
    <trkpt lat="45.892646033" lon="13.809785703">
      <ele>120.1</ele>
      <time>2014-05-17T12:37:57Z</time>
    </trkpt>
    <trkpt lat="45.892647961" lon="13.809784194">
      <ele>120.1</ele>
      <time>2014-05-17T12:37:58Z</time>
    </trkpt>
    <trkpt lat="45.892647961" lon="13.809784194">
      <ele>120.1</ele>
      <time>2014-05-17T12:37:59Z</time>
    </trkpt>
    <trkpt lat="45.892647961" lon="13.809784194">
      <ele>120.1</ele>
      <time>2014-05-17T12:38:00Z</time>
    </trkpt>
    <trkpt lat="45.892647961" lon="13.809784194">
      <ele>120.1</ele>
      <time>2014-05-17T12:38:01Z</time>
    </trkpt>
    <trkpt lat="45.89264025" lon="13.809752343">
      <ele>120.0</ele>
      <time>2014-05-17T12:38:03Z</time>
    </trkpt>
    <trkpt lat="45.892643686" lon="13.80970289">
      <ele>119.9</ele>
      <time>2014-05-17T12:38:04Z</time>
    </trkpt>
    <trkpt lat="45.892688949" lon="13.809609767">
      <ele>119.8</ele>
      <time>2014-05-17T12:38:06Z</time>
    </trkpt>
    <trkpt lat="45.892754914" lon="13.80946585">
      <ele>119.5</ele>
      <time>2014-05-17T12:38:08Z</time>
    </trkpt>
    <trkpt lat="45.892798416" lon="13.809367446">
      <ele>119.4</ele>
      <time>2014-05-17T12:38:09Z</time>
    </trkpt>
    <trkpt lat="45.892939735" lon="13.809025129">
      <ele>118.6</ele>
      <time>2014-05-17T12:38:12Z</time>
    </trkpt>
    <trkpt lat="45.892997487" lon="13.80889236">
      <ele>118.3</ele>
      <time>2014-05-17T12:38:13Z</time>
    </trkpt>
    <trkpt lat="45.893059261" lon="13.808749449">
      <ele>118.0</ele>
      <time>2014-05-17T12:38:14Z</time>
    </trkpt>
    <trkpt lat="45.893123467" lon="13.808603939">
      <ele>117.8</ele>
      <time>2014-05-17T12:38:15Z</time>
    </trkpt>
    <trkpt lat="45.89318742" lon="13.808459435">
      <ele>117.7</ele>
      <time>2014-05-17T12:38:16Z</time>
    </trkpt>
    <trkpt lat="45.893254392" lon="13.8083125">
      <ele>117.6</ele>
      <time>2014-05-17T12:38:17Z</time>
    </trkpt>
    <trkpt lat="45.893595703" lon="13.807527451">
      <ele>117.3</ele>
      <time>2014-05-17T12:38:22Z</time>
    </trkpt>
    <trkpt lat="45.893725455" lon="13.807220254">
      <ele>116.5</ele>
      <time>2014-05-17T12:38:24Z</time>
    </trkpt>
    <trkpt lat="45.894063581" lon="13.806457249">
      <ele>114.5</ele>
      <time>2014-05-17T12:38:29Z</time>
    </trkpt>
    <trkpt lat="45.894137342" lon="13.806310818">
      <ele>114.5</ele>
      <time>2014-05-17T12:38:30Z</time>
    </trkpt>
    <trkpt lat="45.89421194" lon="13.806165894">
      <ele>114.4</ele>
      <time>2014-05-17T12:38:31Z</time>
    </trkpt>
    <trkpt lat="45.894285785" lon="13.806022899">
      <ele>114.1</ele>
      <time>2014-05-17T12:38:32Z</time>
    </trkpt>
    <trkpt lat="45.894363821" lon="13.805874707">
      <ele>113.8</ele>
      <time>2014-05-17T12:38:33Z</time>
    </trkpt>
    <trkpt lat="45.894436827" lon="13.805731377">
      <ele>113.4</ele>
      <time>2014-05-17T12:38:34Z</time>
    </trkpt>
    <trkpt lat="45.894510923" lon="13.805594165">
      <ele>113.0</ele>
      <time>2014-05-17T12:38:35Z</time>
    </trkpt>
    <trkpt lat="45.894581247" lon="13.805460306">
      <ele>112.6</ele>
      <time>2014-05-17T12:38:36Z</time>
    </trkpt>
    <trkpt lat="45.894647632" lon="13.805329045">
      <ele>112.3</ele>
      <time>2014-05-17T12:38:37Z</time>
    </trkpt>
    <trkpt lat="45.894890204" lon="13.804859323">
      <ele>112.1</ele>
      <time>2014-05-17T12:38:41Z</time>
    </trkpt>
    <trkpt lat="45.894968072" lon="13.804786569">
      <ele>112.4</ele>
      <time>2014-05-17T12:38:42Z</time>
    </trkpt>
    <trkpt lat="45.895054154" lon="13.804711383">
      <ele>112.7</ele>
      <time>2014-05-17T12:38:43Z</time>
    </trkpt>
    <trkpt lat="45.895144511" lon="13.804642148">
      <ele>112.8</ele>
      <time>2014-05-17T12:38:44Z</time>
    </trkpt>
    <trkpt lat="45.895233108" lon="13.804560089">
      <ele>113.1</ele>
      <time>2014-05-17T12:38:45Z</time>
    </trkpt>
    <trkpt lat="45.895312484" lon="13.804454645">
      <ele>113.4</ele>
      <time>2014-05-17T12:38:46Z</time>
    </trkpt>
    <trkpt lat="45.895386664" lon="13.80435423">
      <ele>113.8</ele>
      <time>2014-05-17T12:38:47Z</time>
    </trkpt>
    <trkpt lat="45.895455312" lon="13.804253563">
      <ele>114.2</ele>
      <time>2014-05-17T12:38:48Z</time>
    </trkpt>
    <trkpt lat="45.89551826" lon="13.804158596">
      <ele>114.6</ele>
      <time>2014-05-17T12:38:49Z</time>
    </trkpt>
    <trkpt lat="45.895579113" lon="13.804061953">
      <ele>114.8</ele>
      <time>2014-05-17T12:38:50Z</time>
    </trkpt>
    <trkpt lat="45.895642899" lon="13.803962125">
      <ele>115.0</ele>
      <time>2014-05-17T12:38:51Z</time>
    </trkpt>
    <trkpt lat="45.895705512" lon="13.80385777">
      <ele>115.2</ele>
      <time>2014-05-17T12:38:52Z</time>
    </trkpt>
    <trkpt lat="45.895769298" lon="13.803750062">
      <ele>115.4</ele>
      <time>2014-05-17T12:38:53Z</time>
    </trkpt>
    <trkpt lat="45.895831827" lon="13.803635482">
      <ele>115.6</ele>
      <time>2014-05-17T12:38:54Z</time>
    </trkpt>
    <trkpt lat="45.895898296" lon="13.803514782">
      <ele>115.7</ele>
      <time>2014-05-17T12:38:55Z</time>
    </trkpt>
    <trkpt lat="45.895961747" lon="13.803399699">
      <ele>115.9</ele>
      <time>2014-05-17T12:38:56Z</time>
    </trkpt>
    <trkpt lat="45.8960314" lon="13.803290231">
      <ele>116.0</ele>
      <time>2014-05-17T12:38:57Z</time>
    </trkpt>
    <trkpt lat="45.896107005" lon="13.803183194">
      <ele>116.3</ele>
      <time>2014-05-17T12:38:58Z</time>
    </trkpt>
    <trkpt lat="45.89618789" lon="13.803076409">
      <ele>116.7</ele>
      <time>2014-05-17T12:38:59Z</time>
    </trkpt>
    <trkpt lat="45.896271793" lon="13.802964175">
      <ele>117.4</ele>
      <time>2014-05-17T12:39:00Z</time>
    </trkpt>
    <trkpt lat="45.896356618" lon="13.802849008">
      <ele>118.3</ele>
      <time>2014-05-17T12:39:01Z</time>
    </trkpt>
    <trkpt lat="45.896445382" lon="13.802737026">
      <ele>119.5</ele>
      <time>2014-05-17T12:39:02Z</time>
    </trkpt>
    <trkpt lat="45.896540936" lon="13.802618086">
      <ele>121.0</ele>
      <time>2014-05-17T12:39:04Z</time>
    </trkpt>
    <trkpt lat="45.896636909" lon="13.802510463">
      <ele>122.6</ele>
      <time>2014-05-17T12:39:05Z</time>
    </trkpt>
    <trkpt lat="45.896732546" lon="13.802404935">
      <ele>124.2</ele>
      <time>2014-05-17T12:39:06Z</time>
    </trkpt>
    <trkpt lat="45.896824831" lon="13.802299658">
      <ele>125.6</ele>
      <time>2014-05-17T12:39:07Z</time>
    </trkpt>
    <trkpt lat="45.896916529" lon="13.802193459">
      <ele>127.0</ele>
      <time>2014-05-17T12:39:08Z</time>
    </trkpt>
    <trkpt lat="45.897003785" lon="13.802086003">
      <ele>128.4</ele>
      <time>2014-05-17T12:39:09Z</time>
    </trkpt>
    <trkpt lat="45.897078803" lon="13.801978044">
      <ele>129.7</ele>
      <time>2014-05-17T12:39:10Z</time>
    </trkpt>
    <trkpt lat="45.897142757" lon="13.801852232">
      <ele>131.1</ele>
      <time>2014-05-17T12:39:11Z</time>
    </trkpt>
    <trkpt lat="45.897174273" lon="13.801712086">
      <ele>132.4</ele>
      <time>2014-05-17T12:39:12Z</time>
    </trkpt>
    <trkpt lat="45.897174524" lon="13.801559536">
      <ele>133.8</ele>
      <time>2014-05-17T12:39:13Z</time>
    </trkpt>
    <trkpt lat="45.897165556" lon="13.801420815">
      <ele>135.0</ele>
      <time>2014-05-17T12:39:14Z</time>
    </trkpt>
    <trkpt lat="45.897137392" lon="13.801279999">
      <ele>136.2</ele>
      <time>2014-05-17T12:39:15Z</time>
    </trkpt>
    <trkpt lat="45.897092214" lon="13.801137088">
      <ele>137.3</ele>
      <time>2014-05-17T12:39:16Z</time>
    </trkpt>
    <trkpt lat="45.897042593" lon="13.800994512">
      <ele>138.4</ele>
      <time>2014-05-17T12:39:17Z</time>
    </trkpt>
    <trkpt lat="45.896991044" lon="13.800848834">
      <ele>139.4</ele>
      <time>2014-05-17T12:39:18Z</time>
    </trkpt>
    <trkpt lat="45.896931281" lon="13.800693518">
      <ele>139.9</ele>
      <time>2014-05-17T12:39:19Z</time>
    </trkpt>
    <trkpt lat="45.896874703" lon="13.800540799">
      <ele>140.2</ele>
      <time>2014-05-17T12:39:20Z</time>
    </trkpt>
    <trkpt lat="45.89682743" lon="13.800392272">
      <ele>140.6</ele>
      <time>2014-05-17T12:39:21Z</time>
    </trkpt>
    <trkpt lat="45.896791806" lon="13.800251037">
      <ele>140.9</ele>
      <time>2014-05-17T12:39:22Z</time>
    </trkpt>
    <trkpt lat="45.896765403" lon="13.800102929">
      <ele>141.3</ele>
      <time>2014-05-17T12:39:23Z</time>
    </trkpt>
    <trkpt lat="45.896737995" lon="13.799954485">
      <ele>141.7</ele>
      <time>2014-05-17T12:39:24Z</time>
    </trkpt>
    <trkpt lat="45.896710251" lon="13.79979833">
      <ele>142.2</ele>
      <time>2014-05-17T12:39:25Z</time>
    </trkpt>
    <trkpt lat="45.896680746" lon="13.799636811">
      <ele>142.8</ele>
      <time>2014-05-17T12:39:26Z</time>
    </trkpt>
    <trkpt lat="45.896653924" lon="13.799465736">
      <ele>143.5</ele>
      <time>2014-05-17T12:39:27Z</time>
    </trkpt>
    <trkpt lat="45.896636825" lon="13.799312096">
      <ele>144.2</ele>
      <time>2014-05-17T12:39:28Z</time>
    </trkpt>
    <trkpt lat="45.896620648" lon="13.799168514">
      <ele>144.9</ele>
      <time>2014-05-17T12:39:29Z</time>
    </trkpt>
    <trkpt lat="45.896651242" lon="13.799029794">
      <ele>145.3</ele>
      <time>2014-05-17T12:39:30Z</time>
    </trkpt>
    <trkpt lat="45.896696085" lon="13.79888881">
      <ele>145.7</ele>
      <time>2014-05-17T12:39:31Z</time>
    </trkpt>
    <trkpt lat="45.896739168" lon="13.798754951">
      <ele>146.1</ele>
      <time>2014-05-17T12:39:32Z</time>
    </trkpt>
    <trkpt lat="45.896782419" lon="13.798614722">
      <ele>146.5</ele>
      <time>2014-05-17T12:39:33Z</time>
    </trkpt>
    <trkpt lat="45.896824496" lon="13.798462087">
      <ele>146.9</ele>
      <time>2014-05-17T12:39:34Z</time>
    </trkpt>
    <trkpt lat="45.896864142" lon="13.798308028">
      <ele>147.4</ele>
      <time>2014-05-17T12:39:35Z</time>
    </trkpt>
    <trkpt lat="45.89690337" lon="13.798155645">
      <ele>148.2</ele>
      <time>2014-05-17T12:39:36Z</time>
    </trkpt>
    <trkpt lat="45.896941675" lon="13.798002675">
      <ele>149.0</ele>
      <time>2014-05-17T12:39:37Z</time>
    </trkpt>
    <trkpt lat="45.896975035" lon="13.797844509">
      <ele>149.9</ele>
      <time>2014-05-17T12:39:38Z</time>
    </trkpt>
    <trkpt lat="45.897005461" lon="13.79768936">
      <ele>150.8</ele>
      <time>2014-05-17T12:39:39Z</time>
    </trkpt>
    <trkpt lat="45.897089364" lon="13.797409991">
      <ele>152.4</ele>
      <time>2014-05-17T12:39:41Z</time>
    </trkpt>
    <trkpt lat="45.897158012" lon="13.797286609">
      <ele>153.1</ele>
      <time>2014-05-17T12:39:42Z</time>
    </trkpt>
    <trkpt lat="45.897233365" lon="13.797192229">
      <ele>153.7</ele>
      <time>2014-05-17T12:39:43Z</time>
    </trkpt>
    <trkpt lat="45.897314921" lon="13.797116624">
      <ele>154.3</ele>
      <time>2014-05-17T12:39:44Z</time>
    </trkpt>
    <trkpt lat="45.89739589" lon="13.797046551">
      <ele>154.9</ele>
      <time>2014-05-17T12:39:45Z</time>
    </trkpt>
    <trkpt lat="45.897477781" lon="13.796977904">
      <ele>155.4</ele>
      <time>2014-05-17T12:39:46Z</time>
    </trkpt>
    <trkpt lat="45.897557996" lon="13.796910848">
      <ele>156.0</ele>
      <time>2014-05-17T12:39:47Z</time>
    </trkpt>
    <trkpt lat="45.897641731" lon="13.796843709">
      <ele>156.7</ele>
      <time>2014-05-17T12:39:48Z</time>
    </trkpt>
    <trkpt lat="45.897733178" lon="13.796770116">
      <ele>157.3</ele>
      <time>2014-05-17T12:39:49Z</time>
    </trkpt>
    <trkpt lat="45.897821859" lon="13.796692248">
      <ele>158.0</ele>
      <time>2014-05-17T12:39:50Z</time>
    </trkpt>
    <trkpt lat="45.897906851" lon="13.796614381">
      <ele>158.3</ele>
      <time>2014-05-17T12:39:51Z</time>
    </trkpt>
    <trkpt lat="45.897989916" lon="13.796535674">
      <ele>158.4</ele>
      <time>2014-05-17T12:39:52Z</time>
    </trkpt>
    <trkpt lat="45.89806946" lon="13.796455543">
      <ele>158.5</ele>
      <time>2014-05-17T12:39:53Z</time>
    </trkpt>
    <trkpt lat="45.898331059" lon="13.796495441">
      <ele>159.6</ele>
    </trkpt>
    <trkpt lat="45.898694834" lon="13.796476498">
      <ele>161.4</ele>
    </trkpt>
    <trkpt lat="45.899085598" lon="13.796476498">
      <ele>163.4</ele>
    </trkpt>
    <trkpt lat="45.899476362" lon="13.796382034">
      <ele>165.8</ele>
    </trkpt>
    <trkpt lat="45.89970544" lon="13.796363175">
      <ele>167.3</ele>
    </trkpt>
    <trkpt lat="45.899921022" lon="13.796344232">
      <ele>168.8</ele>
    </trkpt>
    <trkpt lat="45.90021749" lon="13.79666551">
      <ele>170.6</ele>
    </trkpt>
    <trkpt lat="45.900460063" lon="13.797043366">
      <ele>171.1</ele>
    </trkpt>
    <trkpt lat="45.900729541" lon="13.797175717">
      <ele>173.3</ele>
    </trkpt>
    <trkpt lat="45.901066409" lon="13.797062309">
      <ele>176.7</ele>
    </trkpt>
    <trkpt lat="45.901389783" lon="13.7969111">
      <ele>179.5</ele>
    </trkpt>
    <trkpt lat="45.90157846" lon="13.796986705">
      <ele>181.4</ele>
    </trkpt>
    <trkpt lat="45.901847938" lon="13.796816636">
      <ele>183.1</ele>
    </trkpt>
    <trkpt lat="45.902117416" lon="13.796533244">
      <ele>183.6</ele>
    </trkpt>
    <trkpt lat="45.902400389" lon="13.796382034">
      <ele>184.2</ele>
    </trkpt>
    <trkpt lat="45.902589066" lon="13.796041897">
      <ele>183.3</ele>
    </trkpt>
    <trkpt lat="45.902723763" lon="13.795437226">
      <ele>180.4</ele>
    </trkpt>
    <trkpt lat="45.902750753" lon="13.794775894">
      <ele>175.6</ele>
    </trkpt>
    <trkpt lat="45.902804649" lon="13.794227885">
      <ele>173.3</ele>
    </trkpt>
    <trkpt lat="45.903033726" lon="13.793812227">
      <ele>177.7</ele>
    </trkpt>
    <trkpt lat="45.903316699" lon="13.793528751">
      <ele>182.4</ele>
    </trkpt>
    <trkpt lat="45.903572682" lon="13.793207556">
      <ele>186.6</ele>
    </trkpt>
    <trkpt lat="45.903667063" lon="13.793056346">
      <ele>188.3</ele>
    </trkpt>
    <trkpt lat="45.903572682" lon="13.792527281">
      <ele>186.3</ele>
    </trkpt>
    <trkpt lat="45.903437985" lon="13.792073736">
      <ele>183.5</ele>
    </trkpt>
    <trkpt lat="45.903235814" lon="13.791714739">
      <ele>180.0</ele>
    </trkpt>
    <trkpt lat="45.903114527" lon="13.791412404">
      <ele>177.7</ele>
    </trkpt>
    <trkpt lat="45.902818143" lon="13.791393461">
      <ele>174.7</ele>
    </trkpt>
    <trkpt lat="45.90253517" lon="13.791525811">
      <ele>172.2</ele>
    </trkpt>
    <trkpt lat="45.902373483" lon="13.791355742">
      <ele>170.0</ele>
    </trkpt>
    <trkpt lat="45.902117416" lon="13.791091125">
      <ele>166.6</ele>
    </trkpt>
    <trkpt lat="45.901901834" lon="13.79078879">
      <ele>163.8</ele>
    </trkpt>
    <trkpt lat="45.901632356" lon="13.790581003">
      <ele>160.8</ele>
    </trkpt>
    <trkpt lat="45.901389783" lon="13.790354189">
      <ele>159.5</ele>
    </trkpt>
    <trkpt lat="45.901308982" lon="13.79031647">
      <ele>159.0</ele>
    </trkpt>
    <trkpt lat="45.901206806" lon="13.790178839">
      <ele>158.4</ele>
      <time>2014-05-17T12:44:52Z</time>
    </trkpt>
    <trkpt lat="45.901217284" lon="13.790117651">
      <ele>158.4</ele>
      <time>2014-05-17T12:44:53Z</time>
    </trkpt>
    <trkpt lat="45.901250476" lon="13.790048165">
      <ele>158.5</ele>
      <time>2014-05-17T12:44:54Z</time>
    </trkpt>
    <trkpt lat="45.901337229" lon="13.789887149">
      <ele>158.8</ele>
      <time>2014-05-17T12:44:56Z</time>
    </trkpt>
    <trkpt lat="45.901542921" lon="13.789457241">
      <ele>159.1</ele>
      <time>2014-05-17T12:45:00Z</time>
    </trkpt>
    <trkpt lat="45.901650963" lon="13.789206957">
      <ele>159.0</ele>
      <time>2014-05-17T12:45:02Z</time>
    </trkpt>
    <trkpt lat="45.901708212" lon="13.788912082">
      <ele>158.4</ele>
      <time>2014-05-17T12:45:04Z</time>
    </trkpt>
    <trkpt lat="45.90178608" lon="13.788478822">
      <ele>157.2</ele>
      <time>2014-05-17T12:45:07Z</time>
    </trkpt>
    <trkpt lat="45.901844669" lon="13.788361391">
      <ele>157.0</ele>
      <time>2014-05-17T12:45:08Z</time>
    </trkpt>
    <trkpt lat="45.901917927" lon="13.788238764">
      <ele>156.4</ele>
      <time>2014-05-17T12:45:09Z</time>
    </trkpt>
    <trkpt lat="45.901993448" lon="13.7881127">
      <ele>155.5</ele>
      <time>2014-05-17T12:45:10Z</time>
    </trkpt>
    <trkpt lat="45.902074333" lon="13.787986133">
      <ele>154.4</ele>
      <time>2014-05-17T12:45:11Z</time>
    </trkpt>
    <trkpt lat="45.902154883" lon="13.787856549">
      <ele>153.2</ele>
      <time>2014-05-17T12:45:12Z</time>
    </trkpt>
    <trkpt lat="45.90222965" lon="13.78772093">
      <ele>151.8</ele>
      <time>2014-05-17T12:45:13Z</time>
    </trkpt>
    <trkpt lat="45.902301231" lon="13.787579443">
      <ele>150.2</ele>
      <time>2014-05-17T12:45:14Z</time>
    </trkpt>
    <trkpt lat="45.902369879" lon="13.787436113">
      <ele>148.8</ele>
      <time>2014-05-17T12:45:15Z</time>
    </trkpt>
    <trkpt lat="45.902429139" lon="13.787278449">
      <ele>148.0</ele>
      <time>2014-05-17T12:45:16Z</time>
    </trkpt>
    <trkpt lat="45.902470211" lon="13.787115756">
      <ele>147.2</ele>
      <time>2014-05-17T12:45:17Z</time>
    </trkpt>
    <trkpt lat="45.902507007" lon="13.786945352">
      <ele>146.4</ele>
      <time>2014-05-17T12:45:18Z</time>
    </trkpt>
    <trkpt lat="45.902548246" lon="13.7867695">
      <ele>146.3</ele>
      <time>2014-05-17T12:45:19Z</time>
    </trkpt>
    <trkpt lat="45.902590156" lon="13.78659457">
      <ele>146.7</ele>
      <time>2014-05-17T12:45:20Z</time>
    </trkpt>
    <trkpt lat="45.902730972" lon="13.785859225">
      <ele>150.5</ele>
      <time>2014-05-17T12:45:24Z</time>
    </trkpt>
    <trkpt lat="45.902744131" lon="13.785679769">
      <ele>151.4</ele>
      <time>2014-05-17T12:45:25Z</time>
    </trkpt>
    <trkpt lat="45.902744802" lon="13.785503916">
      <ele>152.0</ele>
      <time>2014-05-17T12:45:26Z</time>
    </trkpt>
    <trkpt lat="45.902743293" lon="13.785332507">
      <ele>152.6</ele>
      <time>2014-05-17T12:45:27Z</time>
    </trkpt>
    <trkpt lat="45.902739605" lon="13.785165036">
      <ele>153.1</ele>
      <time>2014-05-17T12:45:28Z</time>
    </trkpt>
    <trkpt lat="45.902720662" lon="13.785031009">
      <ele>153.3</ele>
      <time>2014-05-17T12:45:29Z</time>
    </trkpt>
    <trkpt lat="45.902702054" lon="13.784891618">
      <ele>153.6</ele>
      <time>2014-05-17T12:45:30Z</time>
    </trkpt>
    <trkpt lat="45.902679926" lon="13.784745857">
      <ele>153.9</ele>
      <time>2014-05-17T12:45:31Z</time>
    </trkpt>
    <trkpt lat="45.902663246" lon="13.784607053">
      <ele>154.3</ele>
      <time>2014-05-17T12:45:32Z</time>
    </trkpt>
    <trkpt lat="45.902650673" lon="13.784464393">
      <ele>154.8</ele>
      <time>2014-05-17T12:45:33Z</time>
    </trkpt>
    <trkpt lat="45.902632233" lon="13.784312345">
      <ele>155.3</ele>
      <time>2014-05-17T12:45:34Z</time>
    </trkpt>
    <trkpt lat="45.902636759" lon="13.784174882">
      <ele>155.9</ele>
      <time>2014-05-17T12:45:35Z</time>
    </trkpt>
    <trkpt lat="45.902649499" lon="13.784037167">
      <ele>156.1</ele>
      <time>2014-05-17T12:45:36Z</time>
    </trkpt>
    <trkpt lat="45.902673807" lon="13.783888808">
      <ele>156.3</ele>
      <time>2014-05-17T12:45:37Z</time>
    </trkpt>
    <trkpt lat="45.902697193" lon="13.783764085">
      <ele>156.4</ele>
      <time>2014-05-17T12:45:38Z</time>
    </trkpt>
    <trkpt lat="45.902749998" lon="13.783646906">
      <ele>156.7</ele>
      <time>2014-05-17T12:45:39Z</time>
    </trkpt>
    <trkpt lat="45.902808085" lon="13.783551939">
      <ele>156.9</ele>
      <time>2014-05-17T12:45:40Z</time>
    </trkpt>
    <trkpt lat="45.902876565" lon="13.783474071">
      <ele>157.0</ele>
      <time>2014-05-17T12:45:41Z</time>
    </trkpt>
    <trkpt lat="45.902948566" lon="13.783399304">
      <ele>157.2</ele>
      <time>2014-05-17T12:45:42Z</time>
    </trkpt>
    <trkpt lat="45.903020902" lon="13.783325795">
      <ele>157.2</ele>
      <time>2014-05-17T12:45:43Z</time>
    </trkpt>
    <trkpt lat="45.903106229" lon="13.783211885">
      <ele>156.7</ele>
      <time>2014-05-17T12:45:44Z</time>
    </trkpt>
    <trkpt lat="45.903163562" lon="13.783077104">
      <ele>155.9</ele>
      <time>2014-05-17T12:45:45Z</time>
    </trkpt>
    <trkpt lat="45.903201951" lon="13.78291307">
      <ele>154.9</ele>
      <time>2014-05-17T12:45:46Z</time>
    </trkpt>
    <trkpt lat="45.903222989" lon="13.782755909">
      <ele>153.9</ele>
      <time>2014-05-17T12:45:47Z</time>
    </trkpt>
    <trkpt lat="45.903243106" lon="13.782604784">
      <ele>152.8</ele>
      <time>2014-05-17T12:45:48Z</time>
    </trkpt>
    <trkpt lat="45.903273867" lon="13.782455837">
      <ele>152.0</ele>
      <time>2014-05-17T12:45:49Z</time>
    </trkpt>
    <trkpt lat="45.903315693" lon="13.782322733">
      <ele>151.6</ele>
      <time>2014-05-17T12:45:50Z</time>
    </trkpt>
    <trkpt lat="45.903369337" lon="13.782199686">
      <ele>151.3</ele>
      <time>2014-05-17T12:45:51Z</time>
    </trkpt>
    <trkpt lat="45.903428178" lon="13.782097008">
      <ele>151.0</ele>
      <time>2014-05-17T12:45:52Z</time>
    </trkpt>
    <trkpt lat="45.903492132" lon="13.781995839">
      <ele>150.6</ele>
      <time>2014-05-17T12:45:53Z</time>
    </trkpt>
    <trkpt lat="45.903565055" lon="13.781909086">
      <ele>150.3</ele>
      <time>2014-05-17T12:45:54Z</time>
    </trkpt>
    <trkpt lat="45.903638061" lon="13.781840857">
      <ele>149.9</ele>
      <time>2014-05-17T12:45:55Z</time>
    </trkpt>
    <trkpt lat="45.903798826" lon="13.781729126">
      <ele>149.2</ele>
      <time>2014-05-17T12:45:57Z</time>
    </trkpt>
    <trkpt lat="45.903882897" lon="13.781665256">
      <ele>148.7</ele>
      <time>2014-05-17T12:45:58Z</time>
    </trkpt>
    <trkpt lat="45.903964285" lon="13.781596692">
      <ele>148.6</ele>
      <time>2014-05-17T12:45:59Z</time>
    </trkpt>
    <trkpt lat="45.904042572" lon="13.781523518">
      <ele>148.5</ele>
      <time>2014-05-17T12:46:00Z</time>
    </trkpt>
    <trkpt lat="45.904121026" lon="13.781442633">
      <ele>148.4</ele>
      <time>2014-05-17T12:46:01Z</time>
    </trkpt>
    <trkpt lat="45.904198391" lon="13.781364178">
      <ele>148.3</ele>
      <time>2014-05-17T12:46:02Z</time>
    </trkpt>
    <trkpt lat="45.904279109" lon="13.78129377">
      <ele>148.2</ele>
      <time>2014-05-17T12:46:03Z</time>
    </trkpt>
    <trkpt lat="45.904360581" lon="13.781228224">
      <ele>148.1</ele>
      <time>2014-05-17T12:46:04Z</time>
    </trkpt>
    <trkpt lat="45.90460483" lon="13.781040972">
      <ele>147.7</ele>
      <time>2014-05-17T12:46:07Z</time>
    </trkpt>
    <trkpt lat="45.904688062" lon="13.780974504">
      <ele>147.6</ele>
      <time>2014-05-17T12:46:08Z</time>
    </trkpt>
    <trkpt lat="45.904770624" lon="13.780902838">
      <ele>147.5</ele>
      <time>2014-05-17T12:46:09Z</time>
    </trkpt>
    <trkpt lat="45.904841954" lon="13.780829078">
      <ele>147.4</ele>
      <time>2014-05-17T12:46:10Z</time>
    </trkpt>
    <trkpt lat="45.904907919" lon="13.780758418">
      <ele>146.8</ele>
      <time>2014-05-17T12:46:11Z</time>
    </trkpt>
    <trkpt lat="45.904952846" lon="13.780689184">
      <ele>146.1</ele>
      <time>2014-05-17T12:46:12Z</time>
    </trkpt>
    <trkpt lat="45.904984949" lon="13.78062984">
      <ele>145.6</ele>
      <time>2014-05-17T12:46:13Z</time>
    </trkpt>
    <trkpt lat="45.905024093" lon="13.780580135">
      <ele>145.3</ele>
      <time>2014-05-17T12:46:14Z</time>
    </trkpt>
    <trkpt lat="45.905085532" lon="13.780540908">
      <ele>145.2</ele>
      <time>2014-05-17T12:46:15Z</time>
    </trkpt>
    <trkpt lat="45.905165663" lon="13.780507967">
      <ele>145.2</ele>
      <time>2014-05-17T12:46:16Z</time>
    </trkpt>
    <trkpt lat="45.905334977" lon="13.780452562">
      <ele>145.4</ele>
      <time>2014-05-17T12:46:18Z</time>
    </trkpt>
    <trkpt lat="45.905540753" lon="13.780380981">
      <ele>145.7</ele>
      <time>2014-05-17T12:46:20Z</time>
    </trkpt>
    <trkpt lat="45.905773351" lon="13.780305963">
      <ele>146.2</ele>
      <time>2014-05-17T12:46:22Z</time>
    </trkpt>
    <trkpt lat="45.905892542" lon="13.780269334">
      <ele>146.6</ele>
      <time>2014-05-17T12:46:23Z</time>
    </trkpt>
    <trkpt lat="45.906016175" lon="13.780236645">
      <ele>147.0</ele>
      <time>2014-05-17T12:46:24Z</time>
    </trkpt>
    <trkpt lat="45.906158583" lon="13.780202866">
      <ele>147.6</ele>
      <time>2014-05-17T12:46:25Z</time>
    </trkpt>
    <trkpt lat="45.906264614" lon="13.780179229">
      <ele>148.1</ele>
      <time>2014-05-17T12:46:26Z</time>
    </trkpt>
    <trkpt lat="45.906392438" lon="13.780148467">
      <ele>148.7</ele>
      <time>2014-05-17T12:46:27Z</time>
    </trkpt>
    <trkpt lat="45.906522609" lon="13.780121477">
      <ele>149.4</ele>
      <time>2014-05-17T12:46:28Z</time>
    </trkpt>
    <trkpt lat="45.906654289" lon="13.780096415">
      <ele>150.0</ele>
      <time>2014-05-17T12:46:29Z</time>
    </trkpt>
    <trkpt lat="45.906787645" lon="13.780074539">
      <ele>151.1</ele>
      <time>2014-05-17T12:46:30Z</time>
    </trkpt>
    <trkpt lat="45.906918151" lon="13.780048387">
      <ele>152.2</ele>
      <time>2014-05-17T12:46:31Z</time>
    </trkpt>
    <trkpt lat="45.907041701" lon="13.780046543">
      <ele>153.3</ele>
      <time>2014-05-17T12:46:32Z</time>
    </trkpt>
    <trkpt lat="45.90716064" lon="13.780031037">
      <ele>154.2</ele>
      <time>2014-05-17T12:46:33Z</time>
    </trkpt>
    <trkpt lat="45.907280082" lon="13.779990133">
      <ele>155.2</ele>
      <time>2014-05-17T12:46:34Z</time>
    </trkpt>
    <trkpt lat="45.907555008" lon="13.779726019">
      <ele>157.9</ele>
      <time>2014-05-17T12:46:37Z</time>
    </trkpt>
    <trkpt lat="45.907612341" lon="13.779571122">
      <ele>159.0</ele>
      <time>2014-05-17T12:46:38Z</time>
    </trkpt>
    <trkpt lat="45.90766741" lon="13.779410692">
      <ele>160.0</ele>
      <time>2014-05-17T12:46:39Z</time>
    </trkpt>
    <trkpt lat="45.907708229" lon="13.779260321">
      <ele>160.9</ele>
      <time>2014-05-17T12:46:40Z</time>
    </trkpt>
    <trkpt lat="45.907746954" lon="13.779117912">
      <ele>161.6</ele>
      <time>2014-05-17T12:46:41Z</time>
    </trkpt>
    <trkpt lat="45.907786097" lon="13.778984305">
      <ele>162.1</ele>
      <time>2014-05-17T12:46:42Z</time>
    </trkpt>
    <trkpt lat="45.907825409" lon="13.778856732">
      <ele>162.6</ele>
      <time>2014-05-17T12:46:43Z</time>
    </trkpt>
    <trkpt lat="45.907862121" lon="13.77872983">
      <ele>163.0</ele>
      <time>2014-05-17T12:46:44Z</time>
    </trkpt>
    <trkpt lat="45.907902354" lon="13.778598737">
      <ele>163.4</ele>
      <time>2014-05-17T12:46:45Z</time>
    </trkpt>
    <trkpt lat="45.907946359" lon="13.778463118">
      <ele>163.8</ele>
      <time>2014-05-17T12:46:46Z</time>
    </trkpt>
    <trkpt lat="45.907987515" lon="13.778335797">
      <ele>164.2</ele>
      <time>2014-05-17T12:46:47Z</time>
    </trkpt>
    <trkpt lat="45.908027999" lon="13.778203782">
      <ele>164.6</ele>
      <time>2014-05-17T12:46:48Z</time>
    </trkpt>
    <trkpt lat="45.908068232" lon="13.778082915">
      <ele>165.0</ele>
      <time>2014-05-17T12:46:49Z</time>
    </trkpt>
    <trkpt lat="45.90810813" lon="13.77796297">
      <ele>165.3</ele>
      <time>2014-05-17T12:46:50Z</time>
    </trkpt>
    <trkpt lat="45.908147525" lon="13.777842103">
      <ele>165.4</ele>
      <time>2014-05-17T12:46:51Z</time>
    </trkpt>
    <trkpt lat="45.908183986" lon="13.77771914">
      <ele>165.5</ele>
      <time>2014-05-17T12:46:52Z</time>
    </trkpt>
    <trkpt lat="45.908226231" lon="13.777593328">
      <ele>165.4</ele>
      <time>2014-05-17T12:46:53Z</time>
    </trkpt>
    <trkpt lat="45.908273002" lon="13.777472293">
      <ele>165.5</ele>
      <time>2014-05-17T12:46:54Z</time>
    </trkpt>
    <trkpt lat="45.908262106" lon="13.777433736">
      <ele>165.4</ele>
      <time>2014-05-17T12:48:27Z</time>
    </trkpt>
    <trkpt lat="45.908162445" lon="13.777314797">
      <ele>164.5</ele>
      <time>2014-05-17T12:48:31Z</time>
    </trkpt>
    <trkpt lat="45.908014253" lon="13.777165851">
      <ele>163.2</ele>
      <time>2014-05-17T12:48:35Z</time>
    </trkpt>
    <trkpt lat="45.907978127" lon="13.777128132">
      <ele>162.8</ele>
      <time>2014-05-17T12:48:36Z</time>
    </trkpt>
    <trkpt lat="45.907931188" lon="13.77700123">
      <ele>162.3</ele>
      <time>2014-05-17T12:48:37Z</time>
    </trkpt>
    <trkpt lat="45.907882405" lon="13.776906934">
      <ele>161.8</ele>
      <time>2014-05-17T12:48:38Z</time>
    </trkpt>
    <trkpt lat="45.907826666" lon="13.77683904">
      <ele>161.3</ele>
      <time>2014-05-17T12:48:39Z</time>
    </trkpt>
    <trkpt lat="45.907663554" lon="13.776669055">
      <ele>159.6</ele>
      <time>2014-05-17T12:48:42Z</time>
    </trkpt>
    <trkpt lat="45.907618124" lon="13.776600072">
      <ele>158.8</ele>
      <time>2014-05-17T12:48:43Z</time>
    </trkpt>
    <trkpt lat="45.907580322" lon="13.776523462">
      <ele>158.1</ele>
      <time>2014-05-17T12:48:44Z</time>
    </trkpt>
    <trkpt lat="45.9075478" lon="13.776443247">
      <ele>157.4</ele>
      <time>2014-05-17T12:48:45Z</time>
    </trkpt>
    <trkpt lat="45.907513434" lon="13.776341071">
      <ele>156.6</ele>
      <time>2014-05-17T12:48:46Z</time>
    </trkpt>
    <trkpt lat="45.90746725" lon="13.776247948">
      <ele>155.6</ele>
      <time>2014-05-17T12:48:47Z</time>
    </trkpt>
    <trkpt lat="45.907406816" lon="13.776168991">
      <ele>154.6</ele>
      <time>2014-05-17T12:48:48Z</time>
    </trkpt>
    <trkpt lat="45.907349065" lon="13.776088608">
      <ele>153.7</ele>
      <time>2014-05-17T12:48:49Z</time>
    </trkpt>
    <trkpt lat="45.907300198" lon="13.776006885">
      <ele>152.8</ele>
      <time>2014-05-17T12:48:50Z</time>
    </trkpt>
    <trkpt lat="45.90725108" lon="13.775785351">
      <ele>151.5</ele>
      <time>2014-05-17T12:48:52Z</time>
    </trkpt>
    <trkpt lat="45.907232305" lon="13.77565057">
      <ele>151.0</ele>
      <time>2014-05-17T12:48:53Z</time>
    </trkpt>
    <trkpt lat="45.907204142" lon="13.775511347">
      <ele>150.4</ele>
      <time>2014-05-17T12:48:54Z</time>
    </trkpt>
    <trkpt lat="45.907163573" lon="13.775364412">
      <ele>149.9</ele>
      <time>2014-05-17T12:48:55Z</time>
    </trkpt>
    <trkpt lat="45.906945392" lon="13.774931151">
      <ele>148.8</ele>
      <time>2014-05-17T12:48:58Z</time>
    </trkpt>
    <trkpt lat="45.906872135" lon="13.774800561">
      <ele>148.8</ele>
      <time>2014-05-17T12:48:59Z</time>
    </trkpt>
    <trkpt lat="45.906799212" lon="13.774677347">
      <ele>148.6</ele>
      <time>2014-05-17T12:49:00Z</time>
    </trkpt>
    <trkpt lat="45.906732576" lon="13.774557319">
      <ele>148.4</ele>
      <time>2014-05-17T12:49:01Z</time>
    </trkpt>
    <trkpt lat="45.90669251" lon="13.774454221">
      <ele>148.2</ele>
      <time>2014-05-17T12:49:02Z</time>
    </trkpt>
    <trkpt lat="45.906642722" lon="13.774357326">
      <ele>147.9</ele>
      <time>2014-05-17T12:49:03Z</time>
    </trkpt>
    <trkpt lat="45.906593855" lon="13.774284236">
      <ele>147.9</ele>
      <time>2014-05-17T12:49:04Z</time>
    </trkpt>
    <trkpt lat="45.906549683" lon="13.774220198">
      <ele>147.8</ele>
      <time>2014-05-17T12:49:05Z</time>
    </trkpt>
    <trkpt lat="45.90651582" lon="13.774175607">
      <ele>147.8</ele>
      <time>2014-05-17T12:49:06Z</time>
    </trkpt>
    <trkpt lat="45.906490255" lon="13.774157166">
      <ele>147.8</ele>
      <time>2014-05-17T12:49:07Z</time>
    </trkpt>
    <trkpt lat="45.906472402" lon="13.774145935">
      <ele>147.8</ele>
      <time>2014-05-17T12:49:08Z</time>
    </trkpt>
    <trkpt lat="45.906345164" lon="13.774314662">
      <ele>147.3</ele>
      <time>2014-05-17T12:50:23Z</time>
    </trkpt>
    <trkpt lat="45.906263776" lon="13.774393117">
      <ele>147.0</ele>
      <time>2014-05-17T12:50:26Z</time>
    </trkpt>
    <trkpt lat="45.906176604" lon="13.774442906">
      <ele>146.6</ele>
      <time>2014-05-17T12:50:28Z</time>
    </trkpt>
    <trkpt lat="45.906123212" lon="13.774464028">
      <ele>146.4</ele>
      <time>2014-05-17T12:50:29Z</time>
    </trkpt>
    <trkpt lat="45.905978624" lon="13.774488755">
      <ele>145.9</ele>
      <time>2014-05-17T12:50:32Z</time>
    </trkpt>
    <trkpt lat="45.90580998" lon="13.774459166">
      <ele>145.4</ele>
      <time>2014-05-17T12:50:37Z</time>
    </trkpt>
    <trkpt lat="45.905648042" lon="13.774460675">
      <ele>144.0</ele>
      <time>2014-05-17T12:50:42Z</time>
    </trkpt>
    <trkpt lat="45.905548967" lon="13.774461346">
      <ele>143.2</ele>
      <time>2014-05-17T12:50:45Z</time>
    </trkpt>
    <trkpt lat="45.905518541" lon="13.774465537">
      <ele>142.9</ele>
      <time>2014-05-17T12:50:46Z</time>
    </trkpt>
    <trkpt lat="45.90548845" lon="13.774471153">
      <ele>142.7</ele>
      <time>2014-05-17T12:50:47Z</time>
    </trkpt>
    <trkpt lat="45.905460287" lon="13.774479199">
      <ele>142.4</ele>
      <time>2014-05-17T12:50:48Z</time>
    </trkpt>
    <trkpt lat="45.905434806" lon="13.774488503">
      <ele>142.2</ele>
      <time>2014-05-17T12:50:49Z</time>
    </trkpt>
    <trkpt lat="45.905375881" lon="13.774511721">
      <ele>141.6</ele>
      <time>2014-05-17T12:50:51Z</time>
    </trkpt>
    <trkpt lat="45.905333804" lon="13.774533765">
      <ele>141.2</ele>
      <time>2014-05-17T12:50:52Z</time>
    </trkpt>
    <trkpt lat="45.905290302" lon="13.774555642">
      <ele>140.8</ele>
      <time>2014-05-17T12:50:53Z</time>
    </trkpt>
    <trkpt lat="45.905245626" lon="13.774574669">
      <ele>140.4</ele>
      <time>2014-05-17T12:50:54Z</time>
    </trkpt>
    <trkpt lat="45.905195335" lon="13.774596881">
      <ele>140.0</ele>
      <time>2014-05-17T12:50:55Z</time>
    </trkpt>
    <trkpt lat="45.905045466" lon="13.774659075">
      <ele>138.7</ele>
      <time>2014-05-17T12:50:58Z</time>
    </trkpt>
    <trkpt lat="45.904996684" lon="13.77468464">
      <ele>138.3</ele>
      <time>2014-05-17T12:50:59Z</time>
    </trkpt>
    <trkpt lat="45.904948739" lon="13.774706433">
      <ele>137.9</ele>
      <time>2014-05-17T12:51:00Z</time>
    </trkpt>
    <trkpt lat="45.90490222" lon="13.774730405">
      <ele>137.4</ele>
      <time>2014-05-17T12:51:01Z</time>
    </trkpt>
    <trkpt lat="45.904855197" lon="13.774753958">
      <ele>136.9</ele>
      <time>2014-05-17T12:51:02Z</time>
    </trkpt>
    <trkpt lat="45.904724021" lon="13.774793101">
      <ele>135.8</ele>
      <time>2014-05-17T12:51:05Z</time>
    </trkpt>
    <trkpt lat="45.904686637" lon="13.774788072">
      <ele>135.4</ele>
      <time>2014-05-17T12:51:06Z</time>
    </trkpt>
    <trkpt lat="45.904649002" lon="13.774784468">
      <ele>135.1</ele>
      <time>2014-05-17T12:51:07Z</time>
    </trkpt>
    <trkpt lat="45.904615559" lon="13.774780864">
      <ele>134.8</ele>
      <time>2014-05-17T12:51:08Z</time>
    </trkpt>
    <trkpt lat="45.904583205" lon="13.77477265">
      <ele>134.5</ele>
      <time>2014-05-17T12:51:09Z</time>
    </trkpt>
    <trkpt lat="45.904482622" lon="13.774738787">
      <ele>133.4</ele>
      <time>2014-05-17T12:51:12Z</time>
    </trkpt>
    <trkpt lat="45.904454291" lon="13.774726633">
      <ele>133.1</ele>
      <time>2014-05-17T12:51:13Z</time>
    </trkpt>
    <trkpt lat="45.90442705" lon="13.774710959">
      <ele>132.8</ele>
      <time>2014-05-17T12:51:14Z</time>
    </trkpt>
    <trkpt lat="45.904403832" lon="13.774696207">
      <ele>132.5</ele>
      <time>2014-05-17T12:51:15Z</time>
    </trkpt>
    <trkpt lat="45.904381368" lon="13.774681706">
      <ele>132.2</ele>
      <time>2014-05-17T12:51:16Z</time>
    </trkpt>
    <trkpt lat="45.904358989" lon="13.774666619">
      <ele>131.9</ele>
      <time>2014-05-17T12:51:17Z</time>
    </trkpt>
    <trkpt lat="45.904329233" lon="13.774650777">
      <ele>131.6</ele>
      <time>2014-05-17T12:51:18Z</time>
    </trkpt>
    <trkpt lat="45.904240636" lon="13.774588499">
      <ele>130.3</ele>
      <time>2014-05-17T12:51:21Z</time>
    </trkpt>
    <trkpt lat="45.904212054" lon="13.774558911">
      <ele>129.9</ele>
      <time>2014-05-17T12:51:22Z</time>
    </trkpt>
    <trkpt lat="45.904181795" lon="13.774528066">
      <ele>129.3</ele>
      <time>2014-05-17T12:51:23Z</time>
    </trkpt>
    <trkpt lat="45.904148603" lon="13.774503674">
      <ele>128.9</ele>
      <time>2014-05-17T12:51:24Z</time>
    </trkpt>
    <trkpt lat="45.904112477" lon="13.774480121">
      <ele>128.5</ele>
      <time>2014-05-17T12:51:25Z</time>
    </trkpt>
    <trkpt lat="45.904079452" lon="13.774453551">
      <ele>128.2</ele>
      <time>2014-05-17T12:51:26Z</time>
    </trkpt>
    <trkpt lat="45.904050199" lon="13.774430081">
      <ele>127.8</ele>
      <time>2014-05-17T12:51:27Z</time>
    </trkpt>
    <trkpt lat="45.904016672" lon="13.774410132">
      <ele>127.5</ele>
      <time>2014-05-17T12:51:28Z</time>
    </trkpt>
    <trkpt lat="45.903977863" lon="13.774384232">
      <ele>127.1</ele>
      <time>2014-05-17T12:51:29Z</time>
    </trkpt>
    <trkpt lat="45.903939139" lon="13.774352632">
      <ele>126.7</ele>
      <time>2014-05-17T12:51:30Z</time>
    </trkpt>
    <trkpt lat="45.903895469" lon="13.774318434">
      <ele>126.2</ele>
      <time>2014-05-17T12:51:31Z</time>
    </trkpt>
    <trkpt lat="45.903850207" lon="13.774283482">
      <ele>125.7</ele>
      <time>2014-05-17T12:51:32Z</time>
    </trkpt>
    <trkpt lat="45.903802179" lon="13.774246266">
      <ele>125.2</ele>
      <time>2014-05-17T12:51:33Z</time>
    </trkpt>
    <trkpt lat="45.90375172" lon="13.774207039">
      <ele>124.7</ele>
      <time>2014-05-17T12:51:34Z</time>
    </trkpt>
    <trkpt lat="45.903702853" lon="13.774168566">
      <ele>124.2</ele>
      <time>2014-05-17T12:51:35Z</time>
    </trkpt>
    <trkpt lat="45.903650131" lon="13.774130009">
      <ele>123.8</ele>
      <time>2014-05-17T12:51:36Z</time>
    </trkpt>
    <trkpt lat="45.903597325" lon="13.774083909">
      <ele>123.3</ele>
      <time>2014-05-17T12:51:37Z</time>
    </trkpt>
    <trkpt lat="45.903539658" lon="13.77403345">
      <ele>122.9</ele>
      <time>2014-05-17T12:51:38Z</time>
    </trkpt>
    <trkpt lat="45.903480062" lon="13.773982236">
      <ele>122.5</ele>
      <time>2014-05-17T12:51:39Z</time>
    </trkpt>
    <trkpt lat="45.903427592" lon="13.773931693">
      <ele>122.1</ele>
      <time>2014-05-17T12:51:40Z</time>
    </trkpt>
    <trkpt lat="45.90339968" lon="13.773897663">
      <ele>121.9</ele>
      <time>2014-05-17T12:51:41Z</time>
    </trkpt>
    <trkpt lat="45.90333824" lon="13.773839995">
      <ele>121.6</ele>
      <time>2014-05-17T12:51:43Z</time>
    </trkpt>
    <trkpt lat="45.903297421" lon="13.773805294">
      <ele>121.4</ele>
      <time>2014-05-17T12:51:44Z</time>
    </trkpt>
    <trkpt lat="45.903249728" lon="13.77376724">
      <ele>121.2</ele>
      <time>2014-05-17T12:51:45Z</time>
    </trkpt>
    <trkpt lat="45.903200023" lon="13.773727845">
      <ele>121.0</ele>
      <time>2014-05-17T12:51:46Z</time>
    </trkpt>
    <trkpt lat="45.903151659" lon="13.773683924">
      <ele>120.8</ele>
      <time>2014-05-17T12:51:47Z</time>
    </trkpt>
    <trkpt lat="45.903065829" lon="13.773578648">
      <ele>120.3</ele>
      <time>2014-05-17T12:51:49Z</time>
    </trkpt>
    <trkpt lat="45.902998103" lon="13.773468258">
      <ele>120.0</ele>
      <time>2014-05-17T12:51:51Z</time>
    </trkpt>
    <trkpt lat="45.9029142" lon="13.773362311">
      <ele>119.5</ele>
      <time>2014-05-17T12:51:53Z</time>
    </trkpt>
    <trkpt lat="45.902869273" lon="13.773307912">
      <ele>119.3</ele>
      <time>2014-05-17T12:51:54Z</time>
    </trkpt>
    <trkpt lat="45.902831219" lon="13.773269271">
      <ele>119.1</ele>
      <time>2014-05-17T12:51:55Z</time>
    </trkpt>
    <trkpt lat="45.902804565" lon="13.773239851">
      <ele>119.0</ele>
      <time>2014-05-17T12:51:56Z</time>
    </trkpt>
    <trkpt lat="45.902772294" lon="13.773219148">
      <ele>118.9</ele>
      <time>2014-05-17T12:51:57Z</time>
    </trkpt>
    <trkpt lat="45.902687972" lon="13.773177825">
      <ele>118.5</ele>
      <time>2014-05-17T12:51:59Z</time>
    </trkpt>
    <trkpt lat="45.902639441" lon="13.773171455">
      <ele>118.3</ele>
      <time>2014-05-17T12:52:00Z</time>
    </trkpt>
    <trkpt lat="45.902586887" lon="13.773175478">
      <ele>118.1</ele>
      <time>2014-05-17T12:52:01Z</time>
    </trkpt>
    <trkpt lat="45.902549168" lon="13.773186877">
      <ele>118.0</ele>
      <time>2014-05-17T12:52:02Z</time>
    </trkpt>
    <trkpt lat="45.90253274" lon="13.773187632">
      <ele>117.9</ele>
      <time>2014-05-17T12:52:03Z</time>
    </trkpt>
    <trkpt lat="45.902518407" lon="13.773192661">
      <ele>117.9</ele>
      <time>2014-05-17T12:52:04Z</time>
    </trkpt>
    <trkpt lat="45.902500469" lon="13.773207497">
      <ele>117.9</ele>
      <time>2014-05-17T12:52:05Z</time>
    </trkpt>
    <trkpt lat="45.902462164" lon="13.773226356">
      <ele>117.7</ele>
      <time>2014-05-17T12:52:06Z</time>
    </trkpt>
    <trkpt lat="45.902374657" lon="13.773259465">
      <ele>117.3</ele>
      <time>2014-05-17T12:52:08Z</time>
    </trkpt>
    <trkpt lat="45.902244486" lon="13.773317467">
      <ele>116.7</ele>
      <time>2014-05-17T12:52:11Z</time>
    </trkpt>
    <trkpt lat="45.902222777" lon="13.773331717">
      <ele>116.7</ele>
      <time>2014-05-17T12:52:12Z</time>
    </trkpt>
    <trkpt lat="45.902201319" lon="13.773340601">
      <ele>116.6</ele>
      <time>2014-05-17T12:52:13Z</time>
    </trkpt>
    <trkpt lat="45.902176592" lon="13.773354599">
      <ele>116.5</ele>
      <time>2014-05-17T12:52:14Z</time>
    </trkpt>
    <trkpt lat="45.902062934" lon="13.773379661">
      <ele>116.0</ele>
      <time>2014-05-17T12:52:17Z</time>
    </trkpt>
    <trkpt lat="45.901933936" lon="13.773340434">
      <ele>115.3</ele>
      <time>2014-05-17T12:52:20Z</time>
    </trkpt>
    <trkpt lat="45.901890853" lon="13.773316965">
      <ele>115.0</ele>
      <time>2014-05-17T12:52:21Z</time>
    </trkpt>
    <trkpt lat="45.90184819" lon="13.77329031">
      <ele>114.7</ele>
      <time>2014-05-17T12:52:22Z</time>
    </trkpt>
    <trkpt lat="45.901804436" lon="13.773261979">
      <ele>114.4</ele>
      <time>2014-05-17T12:52:23Z</time>
    </trkpt>
    <trkpt lat="45.901762946" lon="13.773235744">
      <ele>114.1</ele>
      <time>2014-05-17T12:52:24Z</time>
    </trkpt>
    <trkpt lat="45.90163135" lon="13.773149075">
      <ele>113.2</ele>
      <time>2014-05-17T12:52:28Z</time>
    </trkpt>
    <trkpt lat="45.901591703" lon="13.773122756">
      <ele>112.9</ele>
      <time>2014-05-17T12:52:29Z</time>
    </trkpt>
    <trkpt lat="45.901546776" lon="13.773090402">
      <ele>112.6</ele>
      <time>2014-05-17T12:52:30Z</time>
    </trkpt>
    <trkpt lat="45.901498916" lon="13.773054276">
      <ele>112.3</ele>
      <time>2014-05-17T12:52:31Z</time>
    </trkpt>
    <trkpt lat="45.901447954" lon="13.773012618">
      <ele>111.9</ele>
      <time>2014-05-17T12:52:32Z</time>
    </trkpt>
    <trkpt lat="45.901398249" lon="13.772974312">
      <ele>111.6</ele>
      <time>2014-05-17T12:52:33Z</time>
    </trkpt>
    <trkpt lat="45.901212255" lon="13.772832071">
      <ele>110.3</ele>
      <time>2014-05-17T12:52:37Z</time>
    </trkpt>
    <trkpt lat="45.901166992" lon="13.772804746">
      <ele>110.1</ele>
      <time>2014-05-17T12:52:38Z</time>
    </trkpt>
    <trkpt lat="45.901126675" lon="13.772781361">
      <ele>109.9</ele>
      <time>2014-05-17T12:52:39Z</time>
    </trkpt>
    <trkpt lat="45.901089711" lon="13.772753282">
      <ele>109.6</ele>
      <time>2014-05-17T12:52:40Z</time>
    </trkpt>
    <trkpt lat="45.901044281" lon="13.772712378">
      <ele>109.3</ele>
      <time>2014-05-17T12:52:41Z</time>
    </trkpt>
    <trkpt lat="45.901000947" lon="13.772684885">
      <ele>109.1</ele>
      <time>2014-05-17T12:52:42Z</time>
    </trkpt>
    <trkpt lat="45.900821406" lon="13.772576507">
      <ele>108.2</ele>
      <time>2014-05-17T12:52:46Z</time>
    </trkpt>
    <trkpt lat="45.900776731" lon="13.772553038">
      <ele>108.1</ele>
      <time>2014-05-17T12:52:47Z</time>
    </trkpt>
    <trkpt lat="45.900732139" lon="13.772529401">
      <ele>107.9</ele>
      <time>2014-05-17T12:52:48Z</time>
    </trkpt>
    <trkpt lat="45.90068805" lon="13.772508362">
      <ele>107.8</ele>
      <time>2014-05-17T12:52:49Z</time>
    </trkpt>
    <trkpt lat="45.90064262" lon="13.772488916">
      <ele>107.8</ele>
      <time>2014-05-17T12:52:50Z</time>
    </trkpt>
    <trkpt lat="45.900454111" lon="13.772438793">
      <ele>107.7</ele>
      <time>2014-05-17T12:52:54Z</time>
    </trkpt>
    <trkpt lat="45.900408514" lon="13.772429153">
      <ele>107.6</ele>
      <time>2014-05-17T12:52:55Z</time>
    </trkpt>
    <trkpt lat="45.900363419" lon="13.772422951">
      <ele>107.6</ele>
      <time>2014-05-17T12:52:56Z</time>
    </trkpt>
    <trkpt lat="45.900316397" lon="13.77241415">
      <ele>107.5</ele>
      <time>2014-05-17T12:52:57Z</time>
    </trkpt>
    <trkpt lat="45.900272476" lon="13.772403672">
      <ele>107.5</ele>
      <time>2014-05-17T12:52:58Z</time>
    </trkpt>
    <trkpt lat="45.900226459" lon="13.772389339">
      <ele>107.4</ele>
      <time>2014-05-17T12:52:59Z</time>
    </trkpt>
    <trkpt lat="45.900099305" lon="13.772349693">
      <ele>107.3</ele>
      <time>2014-05-17T12:53:02Z</time>
    </trkpt>
    <trkpt lat="45.900059743" lon="13.772327984">
      <ele>107.3</ele>
      <time>2014-05-17T12:53:03Z</time>
    </trkpt>
    <trkpt lat="45.899987156" lon="13.772250116">
      <ele>107.2</ele>
      <time>2014-05-17T12:53:06Z</time>
    </trkpt>
    <trkpt lat="45.899956729" lon="13.772225054">
      <ele>107.0</ele>
      <time>2014-05-17T12:53:07Z</time>
    </trkpt>
    <trkpt lat="45.899935607" lon="13.772209967">
      <ele>106.8</ele>
      <time>2014-05-17T12:53:08Z</time>
    </trkpt>
    <trkpt lat="45.899915323" lon="13.772196723">
      <ele>106.7</ele>
      <time>2014-05-17T12:53:09Z</time>
    </trkpt>
    <trkpt lat="45.899893614" lon="13.772182893">
      <ele>106.5</ele>
      <time>2014-05-17T12:53:10Z</time>
    </trkpt>
    <trkpt lat="45.899874838" lon="13.772170991">
      <ele>106.4</ele>
      <time>2014-05-17T12:53:11Z</time>
    </trkpt>
    <trkpt lat="45.89961106" lon="13.7720057">
      <ele>104.2</ele>
      <time>2014-05-17T12:53:20Z</time>
    </trkpt>
    <trkpt lat="45.899569904" lon="13.771978039">
      <ele>103.9</ele>
      <time>2014-05-17T12:53:21Z</time>
    </trkpt>
    <trkpt lat="45.899539227" lon="13.771952558">
      <ele>103.6</ele>
      <time>2014-05-17T12:53:22Z</time>
    </trkpt>
    <trkpt lat="45.899514249" lon="13.771932106">
      <ele>103.4</ele>
      <time>2014-05-17T12:53:23Z</time>
    </trkpt>
    <trkpt lat="45.899484912" lon="13.771914002">
      <ele>103.1</ele>
      <time>2014-05-17T12:53:24Z</time>
    </trkpt>
    <trkpt lat="45.899457084" lon="13.771894639">
      <ele>102.9</ele>
      <time>2014-05-17T12:53:25Z</time>
    </trkpt>
    <trkpt lat="45.899422718" lon="13.771871338">
      <ele>102.6</ele>
      <time>2014-05-17T12:53:26Z</time>
    </trkpt>
    <trkpt lat="45.899221133" lon="13.771756422">
      <ele>100.6</ele>
      <time>2014-05-17T12:53:30Z</time>
    </trkpt>
    <trkpt lat="45.899065481" lon="13.771646954">
      <ele>99.6</ele>
      <time>2014-05-17T12:53:33Z</time>
    </trkpt>
    <trkpt lat="45.899024075" lon="13.771617366">
      <ele>99.5</ele>
      <time>2014-05-17T12:53:34Z</time>
    </trkpt>
    <trkpt lat="45.898984512" lon="13.771588197">
      <ele>99.3</ele>
      <time>2014-05-17T12:53:35Z</time>
    </trkpt>
    <trkpt lat="45.898947632" lon="13.771562967">
      <ele>99.2</ele>
      <time>2014-05-17T12:53:36Z</time>
    </trkpt>
    <trkpt lat="45.898904968" lon="13.771538828">
      <ele>99.1</ele>
      <time>2014-05-17T12:53:37Z</time>
    </trkpt>
    <trkpt lat="45.898826933" lon="13.771469174">
      <ele>98.8</ele>
      <time>2014-05-17T12:53:39Z</time>
    </trkpt>
    <trkpt lat="45.898787621" lon="13.771434724">
      <ele>98.6</ele>
      <time>2014-05-17T12:53:40Z</time>
    </trkpt>
    <trkpt lat="45.898748394" lon="13.771403292">
      <ele>98.5</ele>
      <time>2014-05-17T12:53:41Z</time>
    </trkpt>
    <trkpt lat="45.898711765" lon="13.771373034">
      <ele>98.4</ele>
      <time>2014-05-17T12:53:42Z</time>
    </trkpt>
    <trkpt lat="45.898673376" lon="13.771344451">
      <ele>98.2</ele>
      <time>2014-05-17T12:53:43Z</time>
    </trkpt>
    <trkpt lat="45.898384955" lon="13.771132389">
      <ele>97.2</ele>
      <time>2014-05-17T12:53:50Z</time>
    </trkpt>
    <trkpt lat="45.898347488" lon="13.771101795">
      <ele>97.1</ele>
      <time>2014-05-17T12:53:51Z</time>
    </trkpt>
    <trkpt lat="45.898311362" lon="13.771071872">
      <ele>97.0</ele>
      <time>2014-05-17T12:53:52Z</time>
    </trkpt>
    <trkpt lat="45.898277918" lon="13.771047732">
      <ele>97.0</ele>
      <time>2014-05-17T12:53:53Z</time>
    </trkpt>
    <trkpt lat="45.898238523" lon="13.771030381">
      <ele>97.0</ele>
      <time>2014-05-17T12:53:54Z</time>
    </trkpt>
    <trkpt lat="45.898123607" lon="13.77097263">
      <ele>97.0</ele>
      <time>2014-05-17T12:53:57Z</time>
    </trkpt>
    <trkpt lat="45.897970721" lon="13.770895852">
      <ele>97.0</ele>
      <time>2014-05-17T12:54:01Z</time>
    </trkpt>
    <trkpt lat="45.897925962" lon="13.770877076">
      <ele>97.0</ele>
      <time>2014-05-17T12:54:02Z</time>
    </trkpt>
    <trkpt lat="45.897881957" lon="13.770868862">
      <ele>97.0</ele>
      <time>2014-05-17T12:54:03Z</time>
    </trkpt>
    <trkpt lat="45.897834264" lon="13.770856038">
      <ele>97.0</ele>
      <time>2014-05-17T12:54:04Z</time>
    </trkpt>
    <trkpt lat="45.897785984" lon="13.770841705">
      <ele>97.0</ele>
      <time>2014-05-17T12:54:05Z</time>
    </trkpt>
    <trkpt lat="45.897644833" lon="13.770818738">
      <ele>97.0</ele>
      <time>2014-05-17T12:54:09Z</time>
    </trkpt>
    <trkpt lat="45.897522038" lon="13.770790324">
      <ele>97.0</ele>
      <time>2014-05-17T12:54:12Z</time>
    </trkpt>
    <trkpt lat="45.89747753" lon="13.770779427">
      <ele>96.9</ele>
      <time>2014-05-17T12:54:13Z</time>
    </trkpt>
    <trkpt lat="45.89736538" lon="13.770751348">
      <ele>96.7</ele>
      <time>2014-05-17T12:54:17Z</time>
    </trkpt>
    <trkpt lat="45.897177458" lon="13.770733494">
      <ele>96.2</ele>
      <time>2014-05-17T12:54:22Z</time>
    </trkpt>
    <trkpt lat="45.896908399" lon="13.770688986">
      <ele>95.5</ele>
      <time>2014-05-17T12:54:29Z</time>
    </trkpt>
    <trkpt lat="45.896710753" lon="13.770776242">
      <ele>95.0</ele>
      <time>2014-05-17T12:54:34Z</time>
    </trkpt>
    <trkpt lat="45.896427864" lon="13.770913538">
      <ele>94.3</ele>
      <time>2014-05-17T12:54:40Z</time>
    </trkpt>
    <trkpt lat="45.896346811" lon="13.770966176">
      <ele>94.3</ele>
      <time>2014-05-17T12:54:42Z</time>
    </trkpt>
    <trkpt lat="45.8962614" lon="13.771040859">
      <ele>94.3</ele>
      <time>2014-05-17T12:54:45Z</time>
    </trkpt>
    <trkpt lat="45.896227118" lon="13.771055611">
      <ele>94.2</ele>
      <time>2014-05-17T12:54:46Z</time>
    </trkpt>
    <trkpt lat="45.89619007" lon="13.77106634">
      <ele>94.1</ele>
      <time>2014-05-17T12:54:47Z</time>
    </trkpt>
    <trkpt lat="45.896149669" lon="13.771074722">
      <ele>94.0</ele>
      <time>2014-05-17T12:54:48Z</time>
    </trkpt>
    <trkpt lat="45.896105664" lon="13.771087462">
      <ele>93.8</ele>
      <time>2014-05-17T12:54:49Z</time>
    </trkpt>
    <trkpt lat="45.89606409" lon="13.771098359">
      <ele>93.7</ele>
      <time>2014-05-17T12:54:50Z</time>
    </trkpt>
    <trkpt lat="45.895842304" lon="13.771066424">
      <ele>92.4</ele>
      <time>2014-05-17T12:54:56Z</time>
    </trkpt>
    <trkpt lat="45.89580819" lon="13.771059047">
      <ele>92.4</ele>
      <time>2014-05-17T12:54:57Z</time>
    </trkpt>
    <trkpt lat="45.89576955" lon="13.771045133">
      <ele>92.4</ele>
      <time>2014-05-17T12:54:58Z</time>
    </trkpt>
    <trkpt lat="45.895730658" lon="13.771035327">
      <ele>92.4</ele>
      <time>2014-05-17T12:54:59Z</time>
    </trkpt>
    <trkpt lat="45.895690173" lon="13.771024514">
      <ele>92.4</ele>
      <time>2014-05-17T12:55:00Z</time>
    </trkpt>
    <trkpt lat="45.895649521" lon="13.771016216">
      <ele>92.4</ele>
      <time>2014-05-17T12:55:01Z</time>
    </trkpt>
    <trkpt lat="45.895530498" lon="13.771000793">
      <ele>92.5</ele>
      <time>2014-05-17T12:55:04Z</time>
    </trkpt>
    <trkpt lat="45.895212069" lon="13.770938767">
      <ele>92.6</ele>
      <time>2014-05-17T12:55:12Z</time>
    </trkpt>
    <trkpt lat="45.895126574" lon="13.770869365">
      <ele>92.1</ele>
      <time>2014-05-17T12:55:14Z</time>
    </trkpt>
    <trkpt lat="45.895084413" lon="13.77083106">
      <ele>91.9</ele>
      <time>2014-05-17T12:55:15Z</time>
    </trkpt>
    <trkpt lat="45.895038731" lon="13.770802561">
      <ele>91.8</ele>
      <time>2014-05-17T12:55:16Z</time>
    </trkpt>
    <trkpt lat="45.894990787" lon="13.77077356">
      <ele>91.6</ele>
      <time>2014-05-17T12:55:17Z</time>
    </trkpt>
    <trkpt lat="45.894940831" lon="13.770745313">
      <ele>91.2</ele>
      <time>2014-05-17T12:55:18Z</time>
    </trkpt>
    <trkpt lat="45.894887354" lon="13.770715222">
      <ele>90.8</ele>
      <time>2014-05-17T12:55:19Z</time>
    </trkpt>
    <trkpt lat="45.894584181" lon="13.770576669">
      <ele>88.8</ele>
      <time>2014-05-17T12:55:25Z</time>
    </trkpt>
    <trkpt lat="45.894500613" lon="13.770540962">
      <ele>88.3</ele>
      <time>2014-05-17T12:55:27Z</time>
    </trkpt>
    <trkpt lat="45.89445971" lon="13.770520259">
      <ele>88.0</ele>
      <time>2014-05-17T12:55:28Z</time>
    </trkpt>
    <trkpt lat="45.894423751" lon="13.770492431">
      <ele>87.8</ele>
      <time>2014-05-17T12:55:29Z</time>
    </trkpt>
    <trkpt lat="45.894387625" lon="13.77046519">
      <ele>87.5</ele>
      <time>2014-05-17T12:55:30Z</time>
    </trkpt>
    <trkpt lat="45.894320486" lon="13.770425292">
      <ele>87.1</ele>
      <time>2014-05-17T12:55:32Z</time>
    </trkpt>
    <trkpt lat="45.894180257" lon="13.77041121">
      <ele>86.5</ele>
      <time>2014-05-17T12:55:38Z</time>
    </trkpt>
    <trkpt lat="45.894117896" lon="13.770507518">
      <ele>86.6</ele>
      <time>2014-05-17T12:55:41Z</time>
    </trkpt>
    <trkpt lat="45.894087469" lon="13.770557642">
      <ele>86.7</ele>
      <time>2014-05-17T12:55:42Z</time>
    </trkpt>
    <trkpt lat="45.893851183" lon="13.770873137">
      <ele>87.2</ele>
      <time>2014-05-17T12:55:48Z</time>
    </trkpt>
    <trkpt lat="45.893543568" lon="13.771133814">
      <ele>88.1</ele>
      <time>2014-05-17T12:55:54Z</time>
    </trkpt>
    <trkpt lat="45.893427646" lon="13.771172538">
      <ele>87.9</ele>
      <time>2014-05-17T12:55:58Z</time>
    </trkpt>
    <trkpt lat="45.893351287" lon="13.771216124">
      <ele>87.8</ele>
      <time>2014-05-17T12:56:03Z</time>
    </trkpt>
    <trkpt lat="45.893272161" lon="13.771246383">
      <ele>87.9</ele>
      <time>2014-05-17T12:56:05Z</time>
    </trkpt>
    <trkpt lat="45.893228827" lon="13.771247724">
      <ele>87.9</ele>
      <time>2014-05-17T12:56:06Z</time>
    </trkpt>
    <trkpt lat="45.892966809" lon="13.771275133">
      <ele>87.7</ele>
      <time>2014-05-17T12:56:11Z</time>
    </trkpt>
    <trkpt lat="45.892914087" lon="13.771269349">
      <ele>87.6</ele>
      <time>2014-05-17T12:56:12Z</time>
    </trkpt>
    <trkpt lat="45.892701522" lon="13.77130162">
      <ele>87.6</ele>
      <time>2014-05-17T12:56:16Z</time>
    </trkpt>
    <trkpt lat="45.892466996" lon="13.77143221">
      <ele>88.2</ele>
      <time>2014-05-17T12:56:21Z</time>
    </trkpt>
    <trkpt lat="45.892439" lon="13.771466324">
      <ele>88.4</ele>
      <time>2014-05-17T12:56:22Z</time>
    </trkpt>
    <trkpt lat="45.8924131" lon="13.771503456">
      <ele>88.5</ele>
      <time>2014-05-17T12:56:23Z</time>
    </trkpt>
    <trkpt lat="45.892411172" lon="13.771531703">
      <ele>88.7</ele>
      <time>2014-05-17T12:56:24Z</time>
    </trkpt>
    <trkpt lat="45.892404383" lon="13.771557854">
      <ele>88.9</ele>
      <time>2014-05-17T12:56:25Z</time>
    </trkpt>
    <trkpt lat="45.892388877" lon="13.77159968">
      <ele>89.1</ele>
      <time>2014-05-17T12:56:26Z</time>
    </trkpt>
    <trkpt lat="45.89237689" lon="13.771645948">
      <ele>89.4</ele>
      <time>2014-05-17T12:56:27Z</time>
    </trkpt>
    <trkpt lat="45.89228645" lon="13.771883743">
      <ele>91.0</ele>
      <time>2014-05-17T12:56:31Z</time>
    </trkpt>
    <trkpt lat="45.892230794" lon="13.772004191">
      <ele>91.9</ele>
      <time>2014-05-17T12:56:33Z</time>
    </trkpt>
    <trkpt lat="45.892074807" lon="13.77215649">
      <ele>92.9</ele>
      <time>2014-05-17T12:56:36Z</time>
    </trkpt>
    <trkpt lat="45.891870707" lon="13.772184653">
      <ele>92.9</ele>
      <time>2014-05-17T12:56:39Z</time>
    </trkpt>
    <trkpt lat="45.891712205" lon="13.772004275">
      <ele>90.7</ele>
      <time>2014-05-17T12:56:42Z</time>
    </trkpt>
    <trkpt lat="45.891672391" lon="13.771915007">
      <ele>89.7</ele>
      <time>2014-05-17T12:56:43Z</time>
    </trkpt>
    <trkpt lat="45.891634254" lon="13.771826494">
      <ele>88.5</ele>
      <time>2014-05-17T12:56:44Z</time>
    </trkpt>
    <trkpt lat="45.891601816" lon="13.771731947">
      <ele>87.3</ele>
      <time>2014-05-17T12:56:45Z</time>
    </trkpt>
    <trkpt lat="45.891580777" lon="13.771630945">
      <ele>86.3</ele>
      <time>2014-05-17T12:56:46Z</time>
    </trkpt>
    <trkpt lat="45.891547417" lon="13.771408908">
      <ele>84.8</ele>
      <time>2014-05-17T12:56:48Z</time>
    </trkpt>
    <trkpt lat="45.891528307" lon="13.771303464">
      <ele>84.1</ele>
      <time>2014-05-17T12:56:49Z</time>
    </trkpt>
    <trkpt lat="45.891508861" lon="13.771193493">
      <ele>83.3</ele>
      <time>2014-05-17T12:56:50Z</time>
    </trkpt>
    <trkpt lat="45.891491426" lon="13.77109224">
      <ele>82.6</ele>
      <time>2014-05-17T12:56:51Z</time>
    </trkpt>
    <trkpt lat="45.891474495" lon="13.770997105">
      <ele>82.0</ele>
      <time>2014-05-17T12:56:52Z</time>
    </trkpt>
    <trkpt lat="45.891457396" lon="13.770924518">
      <ele>81.5</ele>
      <time>2014-05-17T12:56:53Z</time>
    </trkpt>
    <trkpt lat="45.891427305" lon="13.770874813">
      <ele>81.1</ele>
      <time>2014-05-17T12:56:54Z</time>
    </trkpt>
    <trkpt lat="45.891375085" lon="13.770852685">
      <ele>80.7</ele>
      <time>2014-05-17T12:56:55Z</time>
    </trkpt>
    <trkpt lat="45.891314065" lon="13.770867772">
      <ele>80.5</ele>
      <time>2014-05-17T12:56:56Z</time>
    </trkpt>
    <trkpt lat="45.891241394" lon="13.770899037">
      <ele>80.3</ele>
      <time>2014-05-17T12:56:57Z</time>
    </trkpt>
    <trkpt lat="45.891172914" lon="13.770920411">
      <ele>80.1</ele>
      <time>2014-05-17T12:56:58Z</time>
    </trkpt>
    <trkpt lat="45.890926151" lon="13.770927703">
      <ele>78.9</ele>
      <time>2014-05-17T12:57:01Z</time>
    </trkpt>
    <trkpt lat="45.890576541" lon="13.770902641">
      <ele>76.3</ele>
      <time>2014-05-17T12:57:05Z</time>
    </trkpt>
    <trkpt lat="45.890493141" lon="13.770893253">
      <ele>75.6</ele>
      <time>2014-05-17T12:57:06Z</time>
    </trkpt>
    <trkpt lat="45.890412508" lon="13.770881267">
      <ele>74.8</ele>
      <time>2014-05-17T12:57:07Z</time>
    </trkpt>
    <trkpt lat="45.890333634" lon="13.770866934">
      <ele>74.1</ele>
      <time>2014-05-17T12:57:08Z</time>
    </trkpt>
    <trkpt lat="45.890259035" lon="13.770845057">
      <ele>73.3</ele>
      <time>2014-05-17T12:57:09Z</time>
    </trkpt>
    <trkpt lat="45.890109167" lon="13.770781355">
      <ele>71.9</ele>
      <time>2014-05-17T12:57:11Z</time>
    </trkpt>
    <trkpt lat="45.890036831" lon="13.77073383">
      <ele>71.4</ele>
      <time>2014-05-17T12:57:12Z</time>
    </trkpt>
    <trkpt lat="45.889968853" lon="13.770683454">
      <ele>71.3</ele>
      <time>2014-05-17T12:57:13Z</time>
    </trkpt>
    <trkpt lat="45.889901714" lon="13.770631906">
      <ele>71.7</ele>
      <time>2014-05-17T12:57:14Z</time>
    </trkpt>
    <trkpt lat="45.889831893" lon="13.770579351">
      <ele>72.0</ele>
      <time>2014-05-17T12:57:15Z</time>
    </trkpt>
    <trkpt lat="45.889758719" lon="13.770526629">
      <ele>72.3</ele>
      <time>2014-05-17T12:57:16Z</time>
    </trkpt>
    <trkpt lat="45.88968345" lon="13.770472147">
      <ele>72.6</ele>
      <time>2014-05-17T12:57:17Z</time>
    </trkpt>
    <trkpt lat="45.889605414" lon="13.770417329">
      <ele>72.9</ele>
      <time>2014-05-17T12:57:18Z</time>
    </trkpt>
    <trkpt lat="45.889526624" lon="13.770359913">
      <ele>73.2</ele>
      <time>2014-05-17T12:57:19Z</time>
    </trkpt>
    <trkpt lat="45.889445152" lon="13.770297635">
      <ele>73.5</ele>
      <time>2014-05-17T12:57:20Z</time>
    </trkpt>
    <trkpt lat="45.889368122" lon="13.770237789">
      <ele>73.7</ele>
      <time>2014-05-17T12:57:21Z</time>
    </trkpt>
    <trkpt lat="45.889042653" lon="13.770030253">
      <ele>74.2</ele>
      <time>2014-05-17T12:57:25Z</time>
    </trkpt>
    <trkpt lat="45.888881385" lon="13.769963449">
      <ele>74.2</ele>
      <time>2014-05-17T12:57:27Z</time>
    </trkpt>
    <trkpt lat="45.888341842" lon="13.769843336">
      <ele>74.2</ele>
      <time>2014-05-17T12:57:34Z</time>
    </trkpt>
    <trkpt lat="45.888255257" lon="13.769849958">
      <ele>73.8</ele>
      <time>2014-05-17T12:57:35Z</time>
    </trkpt>
    <trkpt lat="45.888171773" lon="13.769858759">
      <ele>73.3</ele>
      <time>2014-05-17T12:57:36Z</time>
    </trkpt>
    <trkpt lat="45.888088457" lon="13.769869823">
      <ele>72.7</ele>
      <time>2014-05-17T12:57:37Z</time>
    </trkpt>
    <trkpt lat="45.888005476" lon="13.769888934">
      <ele>72.3</ele>
      <time>2014-05-17T12:57:38Z</time>
    </trkpt>
    <trkpt lat="45.887920819" lon="13.769907458">
      <ele>71.8</ele>
      <time>2014-05-17T12:57:39Z</time>
    </trkpt>
    <trkpt lat="45.887761898" lon="13.769973172">
      <ele>70.8</ele>
      <time>2014-05-17T12:57:41Z</time>
    </trkpt>
    <trkpt lat="45.887628291" lon="13.770070653">
      <ele>70.2</ele>
      <time>2014-05-17T12:57:43Z</time>
    </trkpt>
    <trkpt lat="45.887464928" lon="13.770218259">
      <ele>69.6</ele>
      <time>2014-05-17T12:57:46Z</time>
    </trkpt>
    <trkpt lat="45.887371385" lon="13.77034558">
      <ele>69.6</ele>
      <time>2014-05-17T12:57:48Z</time>
    </trkpt>
    <trkpt lat="45.887237862" lon="13.770770626">
      <ele>70.5</ele>
      <time>2014-05-17T12:57:51Z</time>
    </trkpt>
    <trkpt lat="45.887203496" lon="13.770885961">
      <ele>70.7</ele>
      <time>2014-05-17T12:57:52Z</time>
    </trkpt>
    <trkpt lat="45.887010796" lon="13.77147303">
      <ele>71.2</ele>
      <time>2014-05-17T12:57:59Z</time>
    </trkpt>
    <trkpt lat="45.886803763" lon="13.771977704">
      <ele>71.5</ele>
      <time>2014-05-17T12:58:06Z</time>
    </trkpt>
    <trkpt lat="45.88661978" lon="13.772413647">
      <ele>70.8</ele>
      <time>2014-05-17T12:58:11Z</time>
    </trkpt>
    <trkpt lat="45.886371005" lon="13.773003314">
      <ele>73.0</ele>
      <time>2014-05-17T12:58:17Z</time>
    </trkpt>
    <trkpt lat="45.886330437" lon="13.773059975">
      <ele>73.0</ele>
      <time>2014-05-17T12:58:18Z</time>
    </trkpt>
    <trkpt lat="45.886268243" lon="13.773088809">
      <ele>72.6</ele>
      <time>2014-05-17T12:58:20Z</time>
    </trkpt>
    <trkpt lat="45.886199344" lon="13.773084618">
      <ele>72.0</ele>
      <time>2014-05-17T12:58:22Z</time>
    </trkpt>
    <trkpt lat="45.886110915" lon="13.773103058">
      <ele>71.4</ele>
      <time>2014-05-17T12:58:24Z</time>
    </trkpt>
    <trkpt lat="45.885998514" lon="13.7732541">
      <ele>70.7</ele>
      <time>2014-05-17T12:58:27Z</time>
    </trkpt>
    <trkpt lat="45.885956269" lon="13.773329789">
      <ele>70.3</ele>
      <time>2014-05-17T12:58:28Z</time>
    </trkpt>
    <trkpt lat="45.885908995" lon="13.773414027">
      <ele>70.7</ele>
      <time>2014-05-17T12:58:29Z</time>
    </trkpt>
    <trkpt lat="45.885857278" lon="13.7734986">
      <ele>71.0</ele>
      <time>2014-05-17T12:58:30Z</time>
    </trkpt>
    <trkpt lat="45.885796426" lon="13.773582084">
      <ele>71.6</ele>
      <time>2014-05-17T12:58:31Z</time>
    </trkpt>
    <trkpt lat="45.885407589" lon="13.774153395">
      <ele>73.8</ele>
      <time>2014-05-17T12:58:38Z</time>
    </trkpt>
    <trkpt lat="45.885118749" lon="13.774567461">
      <ele>74.2</ele>
      <time>2014-05-17T12:58:43Z</time>
    </trkpt>
    <trkpt lat="45.884927725" lon="13.774765357">
      <ele>73.1</ele>
      <time>2014-05-17T12:58:47Z</time>
    </trkpt>
    <trkpt lat="45.884811804" lon="13.774669971">
      <ele>71.9</ele>
      <time>2014-05-17T12:58:50Z</time>
    </trkpt>
    <trkpt lat="45.884757321" lon="13.774614986">
      <ele>71.4</ele>
      <time>2014-05-17T12:58:51Z</time>
    </trkpt>
    <trkpt lat="45.884569315" lon="13.774422035">
      <ele>70.3</ele>
      <time>2014-05-17T12:58:54Z</time>
    </trkpt>
    <trkpt lat="45.884287013" lon="13.774098745">
      <ele>70.3</ele>
      <time>2014-05-17T12:58:59Z</time>
    </trkpt>
    <trkpt lat="45.884250049" lon="13.774048788">
      <ele>70.6</ele>
      <time>2014-05-17T12:59:00Z</time>
    </trkpt>
    <trkpt lat="45.884206127" lon="13.774005035">
      <ele>70.9</ele>
      <time>2014-05-17T12:59:01Z</time>
    </trkpt>
    <trkpt lat="45.884060115" lon="13.773856927">
      <ele>76.1</ele>
      <time>2014-05-17T12:59:05Z</time>
    </trkpt>
    <trkpt lat="45.883927932" lon="13.773764307">
      <ele>82.4</ele>
      <time>2014-05-17T12:59:09Z</time>
    </trkpt>
    <trkpt lat="45.883893566" lon="13.77378149">
      <ele>83.6</ele>
      <time>2014-05-17T12:59:10Z</time>
    </trkpt>
    <trkpt lat="45.883811256" lon="13.773904117">
      <ele>85.6</ele>
      <time>2014-05-17T12:59:13Z</time>
    </trkpt>
    <trkpt lat="45.883662226" lon="13.774271747">
      <ele>86.6</ele>
      <time>2014-05-17T12:59:18Z</time>
    </trkpt>
    <trkpt lat="45.883454606" lon="13.775087222">
      <ele>84.7</ele>
      <time>2014-05-17T12:59:24Z</time>
    </trkpt>
    <trkpt lat="45.883317562" lon="13.775757691">
      <ele>78.6</ele>
      <time>2014-05-17T12:59:29Z</time>
    </trkpt>
    <trkpt lat="45.883120503" lon="13.776356243">
      <ele>77.8</ele>
      <time>2014-05-17T12:59:34Z</time>
    </trkpt>
    <trkpt lat="45.883064847" lon="13.776475433">
      <ele>77.8</ele>
      <time>2014-05-17T12:59:35Z</time>
    </trkpt>
    <trkpt lat="45.882956553" lon="13.776709372">
      <ele>77.9</ele>
      <time>2014-05-17T12:59:37Z</time>
    </trkpt>
    <trkpt lat="45.882902155" lon="13.776831329">
      <ele>78.1</ele>
      <time>2014-05-17T12:59:38Z</time>
    </trkpt>
    <trkpt lat="45.882845074" lon="13.776956135">
      <ele>78.2</ele>
      <time>2014-05-17T12:59:39Z</time>
    </trkpt>
    <trkpt lat="45.882782545" lon="13.77708287">
      <ele>78.3</ele>
      <time>2014-05-17T12:59:40Z</time>
    </trkpt>
    <trkpt lat="45.882708533" lon="13.777222848">
      <ele>78.2</ele>
      <time>2014-05-17T12:59:41Z</time>
    </trkpt>
    <trkpt lat="45.882484987" lon="13.77760875">
      <ele>77.5</ele>
      <time>2014-05-17T12:59:44Z</time>
    </trkpt>
    <trkpt lat="45.882087601" lon="13.778316434">
      <ele>78.7</ele>
      <time>2014-05-17T12:59:50Z</time>
    </trkpt>
    <trkpt lat="45.88185777" lon="13.778730836">
      <ele>78.1</ele>
      <time>2014-05-17T12:59:54Z</time>
    </trkpt>
    <trkpt lat="45.88180203" lon="13.778831167">
      <ele>77.7</ele>
      <time>2014-05-17T12:59:55Z</time>
    </trkpt>
    <trkpt lat="45.881724665" lon="13.778931163">
      <ele>77.4</ele>
      <time>2014-05-17T12:59:56Z</time>
    </trkpt>
    <trkpt lat="45.881654508" lon="13.779024202">
      <ele>77.2</ele>
      <time>2014-05-17T12:59:57Z</time>
    </trkpt>
    <trkpt lat="45.881586447" lon="13.779116236">
      <ele>78.1</ele>
      <time>2014-05-17T12:59:58Z</time>
    </trkpt>
    <trkpt lat="45.881244801" lon="13.779607583">
      <ele>83.1</ele>
      <time>2014-05-17T13:00:03Z</time>
    </trkpt>
    <trkpt lat="45.881062914" lon="13.780060457">
      <ele>81.4</ele>
      <time>2014-05-17T13:00:07Z</time>
    </trkpt>
    <trkpt lat="45.880844649" lon="13.780602515">
      <ele>77.2</ele>
      <time>2014-05-17T13:00:12Z</time>
    </trkpt>
    <trkpt lat="45.880570561" lon="13.781143315">
      <ele>78.4</ele>
      <time>2014-05-17T13:00:17Z</time>
    </trkpt>
    <trkpt lat="45.880464697" lon="13.781349258">
      <ele>79.1</ele>
      <time>2014-05-17T13:00:19Z</time>
    </trkpt>
    <trkpt lat="45.880369144" lon="13.781512203">
      <ele>79.7</ele>
      <time>2014-05-17T13:00:21Z</time>
    </trkpt>
    <trkpt lat="45.880263112" lon="13.781677913">
      <ele>80.2</ele>
      <time>2014-05-17T13:00:23Z</time>
    </trkpt>
    <trkpt lat="45.880145011" lon="13.781823004">
      <ele>81.0</ele>
      <time>2014-05-17T13:00:25Z</time>
    </trkpt>
    <trkpt lat="45.879853908" lon="13.782106647">
      <ele>83.9</ele>
      <time>2014-05-17T13:00:30Z</time>
    </trkpt>
    <trkpt lat="45.879803617" lon="13.782150149">
      <ele>84.7</ele>
      <time>2014-05-17T13:00:31Z</time>
    </trkpt>
    <trkpt lat="45.879753493" lon="13.782197004">
      <ele>85.5</ele>
      <time>2014-05-17T13:00:32Z</time>
    </trkpt>
    <trkpt lat="45.8797001" lon="13.782238243">
      <ele>86.4</ele>
      <time>2014-05-17T13:00:33Z</time>
    </trkpt>
    <trkpt lat="45.879642852" lon="13.782284595">
      <ele>87.4</ele>
      <time>2014-05-17T13:00:34Z</time>
    </trkpt>
    <trkpt lat="45.879584011" lon="13.782336479">
      <ele>88.3</ele>
      <time>2014-05-17T13:00:35Z</time>
    </trkpt>
    <trkpt lat="45.879521733" lon="13.782392722">
      <ele>89.3</ele>
      <time>2014-05-17T13:00:36Z</time>
    </trkpt>
    <trkpt lat="45.879452834" lon="13.782458771">
      <ele>90.4</ele>
      <time>2014-05-17T13:00:37Z</time>
    </trkpt>
    <trkpt lat="45.879387958" lon="13.782537812">
      <ele>91.1</ele>
      <time>2014-05-17T13:00:38Z</time>
    </trkpt>
    <trkpt lat="45.879323501" lon="13.78263345">
      <ele>91.4</ele>
      <time>2014-05-17T13:00:39Z</time>
    </trkpt>
    <trkpt lat="45.879264409" lon="13.782738056">
      <ele>91.3</ele>
      <time>2014-05-17T13:00:40Z</time>
    </trkpt>
    <trkpt lat="45.879203053" lon="13.782850038">
      <ele>90.9</ele>
      <time>2014-05-17T13:00:41Z</time>
    </trkpt>
    <trkpt lat="45.879131975" lon="13.782966295">
      <ele>90.7</ele>
      <time>2014-05-17T13:00:42Z</time>
    </trkpt>
    <trkpt lat="45.879062656" lon="13.7830735">
      <ele>90.8</ele>
      <time>2014-05-17T13:00:43Z</time>
    </trkpt>
    <trkpt lat="45.878992919" lon="13.78317425">
      <ele>91.1</ele>
      <time>2014-05-17T13:00:44Z</time>
    </trkpt>
    <trkpt lat="45.878922511" lon="13.78327148">
      <ele>91.5</ele>
      <time>2014-05-17T13:00:45Z</time>
    </trkpt>
    <trkpt lat="45.878852019" lon="13.783370135">
      <ele>92.0</ele>
      <time>2014-05-17T13:00:46Z</time>
    </trkpt>
    <trkpt lat="45.878772894" lon="13.783480274">
      <ele>92.8</ele>
      <time>2014-05-17T13:00:47Z</time>
    </trkpt>
    <trkpt lat="45.87868941" lon="13.783590915">
      <ele>93.7</ele>
      <time>2014-05-17T13:00:48Z</time>
    </trkpt>
    <trkpt lat="45.878603328" lon="13.783701388">
      <ele>94.4</ele>
      <time>2014-05-17T13:00:49Z</time>
    </trkpt>
    <trkpt lat="45.878520599" lon="13.783804988">
      <ele>95.1</ele>
      <time>2014-05-17T13:00:50Z</time>
    </trkpt>
    <trkpt lat="45.878439127" lon="13.783903643">
      <ele>95.7</ele>
      <time>2014-05-17T13:00:51Z</time>
    </trkpt>
    <trkpt lat="45.878351871" lon="13.783997018">
      <ele>96.4</ele>
      <time>2014-05-17T13:00:52Z</time>
    </trkpt>
    <trkpt lat="45.878253886" lon="13.784086537">
      <ele>97.8</ele>
      <time>2014-05-17T13:00:53Z</time>
    </trkpt>
    <trkpt lat="45.878156405" lon="13.784173625">
      <ele>99.4</ele>
      <time>2014-05-17T13:00:54Z</time>
    </trkpt>
    <trkpt lat="45.87805842" lon="13.784256019">
      <ele>101.3</ele>
      <time>2014-05-17T13:00:55Z</time>
    </trkpt>
    <trkpt lat="45.877959598" lon="13.784330115">
      <ele>103.2</ele>
      <time>2014-05-17T13:00:56Z</time>
    </trkpt>
    <trkpt lat="45.877861697" lon="13.784408737">
      <ele>104.8</ele>
      <time>2014-05-17T13:00:57Z</time>
    </trkpt>
    <trkpt lat="45.877766479" lon="13.784484426">
      <ele>106.2</ele>
      <time>2014-05-17T13:00:58Z</time>
    </trkpt>
    <trkpt lat="45.877667069" lon="13.784552654">
      <ele>107.7</ele>
      <time>2014-05-17T13:00:59Z</time>
    </trkpt>
    <trkpt lat="45.877567576" lon="13.784624236">
      <ele>108.9</ele>
      <time>2014-05-17T13:01:00Z</time>
    </trkpt>
    <trkpt lat="45.877467999" lon="13.784705708">
      <ele>110.1</ele>
      <time>2014-05-17T13:01:01Z</time>
    </trkpt>
    <trkpt lat="45.87736968" lon="13.784791371">
      <ele>111.5</ele>
      <time>2014-05-17T13:01:02Z</time>
    </trkpt>
    <trkpt lat="45.877283178" lon="13.784874268">
      <ele>112.6</ele>
      <time>2014-05-17T13:01:03Z</time>
    </trkpt>
    <trkpt lat="45.877186535" lon="13.784964457">
      <ele>113.9</ele>
      <time>2014-05-17T13:01:04Z</time>
    </trkpt>
    <trkpt lat="45.877094418" lon="13.785046265">
      <ele>115.3</ele>
      <time>2014-05-17T13:01:05Z</time>
    </trkpt>
    <trkpt lat="45.87701261" lon="13.785124635">
      <ele>116.4</ele>
      <time>2014-05-17T13:01:06Z</time>
    </trkpt>
    <trkpt lat="45.876927869" lon="13.785198983">
      <ele>117.6</ele>
      <time>2014-05-17T13:01:07Z</time>
    </trkpt>
    <trkpt lat="45.876842542" lon="13.785275677">
      <ele>118.6</ele>
      <time>2014-05-17T13:01:08Z</time>
    </trkpt>
    <trkpt lat="45.876756627" lon="13.78535891">
      <ele>119.3</ele>
      <time>2014-05-17T13:01:09Z</time>
    </trkpt>
    <trkpt lat="45.876672054" lon="13.78544013">
      <ele>119.8</ele>
      <time>2014-05-17T13:01:10Z</time>
    </trkpt>
    <trkpt lat="45.876587732" lon="13.785520261">
      <ele>120.6</ele>
      <time>2014-05-17T13:01:11Z</time>
    </trkpt>
    <trkpt lat="45.87649662" lon="13.785605757">
      <ele>121.5</ele>
      <time>2014-05-17T13:01:12Z</time>
    </trkpt>
    <trkpt lat="45.876410371" lon="13.785690665">
      <ele>122.1</ele>
      <time>2014-05-17T13:01:13Z</time>
    </trkpt>
    <trkpt lat="45.876279613" lon="13.785827458">
      <ele>122.8</ele>
      <time>2014-05-17T13:01:14Z</time>
    </trkpt>
    <trkpt lat="45.876151538" lon="13.785978248">
      <ele>123.8</ele>
      <time>2014-05-17T13:01:15Z</time>
    </trkpt>
    <trkpt lat="45.876028072" lon="13.786141528">
      <ele>124.6</ele>
      <time>2014-05-17T13:01:16Z</time>
    </trkpt>
    <trkpt lat="45.875919275" lon="13.786299527">
      <ele>125.0</ele>
      <time>2014-05-17T13:01:17Z</time>
    </trkpt>
    <trkpt lat="45.875817435" lon="13.786441768">
      <ele>125.5</ele>
      <time>2014-05-17T13:01:18Z</time>
    </trkpt>
    <trkpt lat="45.875716517" lon="13.786570933">
      <ele>125.9</ele>
      <time>2014-05-17T13:01:19Z</time>
    </trkpt>
    <trkpt lat="45.875615766" lon="13.786685178">
      <ele>126.7</ele>
      <time>2014-05-17T13:01:20Z</time>
    </trkpt>
    <trkpt lat="45.875517027" lon="13.786788946">
      <ele>127.9</ele>
      <time>2014-05-17T13:01:21Z</time>
    </trkpt>
    <trkpt lat="45.875413092" lon="13.786895312">
      <ele>129.2</ele>
      <time>2014-05-17T13:01:22Z</time>
    </trkpt>
    <trkpt lat="45.875312593" lon="13.787000505">
      <ele>130.2</ele>
      <time>2014-05-17T13:01:23Z</time>
    </trkpt>
    <trkpt lat="45.875219386" lon="13.787095807">
      <ele>131.1</ele>
      <time>2014-05-17T13:01:24Z</time>
    </trkpt>
    <trkpt lat="45.875130622" lon="13.78717904">
      <ele>132.1</ele>
      <time>2014-05-17T13:01:25Z</time>
    </trkpt>
    <trkpt lat="45.875056861" lon="13.787251208">
      <ele>132.8</ele>
      <time>2014-05-17T13:01:26Z</time>
    </trkpt>
    <trkpt lat="45.874989638" lon="13.787310384">
      <ele>133.3</ele>
      <time>2014-05-17T13:01:27Z</time>
    </trkpt>
    <trkpt lat="45.874936413" lon="13.787337206">
      <ele>133.3</ele>
      <time>2014-05-17T13:01:28Z</time>
    </trkpt>
    <trkpt lat="45.874889055" lon="13.787334524">
      <ele>133.7</ele>
      <time>2014-05-17T13:01:29Z</time>
    </trkpt>
    <trkpt lat="45.87485645" lon="13.787306361">
      <ele>134.5</ele>
      <time>2014-05-17T13:01:30Z</time>
    </trkpt>
    <trkpt lat="45.874841278" lon="13.787260177">
      <ele>135.4</ele>
      <time>2014-05-17T13:01:31Z</time>
    </trkpt>
    <trkpt lat="45.874887211" lon="13.787097149">
      <ele>137.8</ele>
      <time>2014-05-17T13:01:34Z</time>
    </trkpt>
    <trkpt lat="45.874933815" lon="13.787032859">
      <ele>138.4</ele>
      <time>2014-05-17T13:01:35Z</time>
    </trkpt>
    <trkpt lat="45.874981591" lon="13.786962703">
      <ele>139.2</ele>
      <time>2014-05-17T13:01:36Z</time>
    </trkpt>
    <trkpt lat="45.875032973" lon="13.786879051">
      <ele>139.6</ele>
      <time>2014-05-17T13:01:37Z</time>
    </trkpt>
    <trkpt lat="45.875081504" lon="13.786787605">
      <ele>139.8</ele>
      <time>2014-05-17T13:01:38Z</time>
    </trkpt>
    <trkpt lat="45.87512509" lon="13.786696242">
      <ele>140.1</ele>
      <time>2014-05-17T13:01:39Z</time>
    </trkpt>
    <trkpt lat="45.87516197" lon="13.78660731">
      <ele>140.5</ele>
      <time>2014-05-17T13:01:40Z</time>
    </trkpt>
    <trkpt lat="45.875184601" lon="13.78652609">
      <ele>141.2</ele>
      <time>2014-05-17T13:01:41Z</time>
    </trkpt>
    <trkpt lat="45.875204131" lon="13.786484851">
      <ele>141.3</ele>
      <time>2014-05-17T13:01:42Z</time>
    </trkpt>
    <trkpt lat="45.875202287" lon="13.786449563">
      <ele>141.9</ele>
      <time>2014-05-17T13:01:47Z</time>
    </trkpt>
    <trkpt lat="45.87518259" lon="13.786462136">
      <ele>142.3</ele>
      <time>2014-05-17T13:01:48Z</time>
    </trkpt>
    <trkpt lat="45.875135316" lon="13.786518043">
      <ele>142.6</ele>
      <time>2014-05-17T13:01:49Z</time>
    </trkpt>
    <trkpt lat="45.875050072" lon="13.786552325">
      <ele>144.4</ele>
      <time>2014-05-17T13:01:50Z</time>
    </trkpt>
    <trkpt lat="45.87494513" lon="13.786551151">
      <ele>146.3</ele>
      <time>2014-05-17T13:01:51Z</time>
    </trkpt>
    <trkpt lat="45.874825437" lon="13.786528353">
      <ele>147.7</ele>
      <time>2014-05-17T13:01:52Z</time>
    </trkpt>
    <trkpt lat="45.874736002" lon="13.786483426">
      <ele>149.2</ele>
      <time>2014-05-17T13:01:53Z</time>
    </trkpt>
    <trkpt lat="45.87466157" lon="13.786447803">
      <ele>150.3</ele>
      <time>2014-05-17T13:01:54Z</time>
    </trkpt>
    <trkpt lat="45.874589989" lon="13.786433805">
      <ele>151.2</ele>
      <time>2014-05-17T13:01:55Z</time>
    </trkpt>
    <trkpt lat="45.874522682" lon="13.786448054">
      <ele>151.5</ele>
      <time>2014-05-17T13:01:56Z</time>
    </trkpt>
    <trkpt lat="45.874462081" lon="13.786478648">
      <ele>151.7</ele>
      <time>2014-05-17T13:01:57Z</time>
    </trkpt>
    <trkpt lat="45.874404833" lon="13.786506224">
      <ele>151.8</ele>
      <time>2014-05-17T13:01:58Z</time>
    </trkpt>
    <trkpt lat="45.874349093" lon="13.786528688">
      <ele>152.0</ele>
      <time>2014-05-17T13:01:59Z</time>
    </trkpt>
    <trkpt lat="45.874291174" lon="13.786551906">
      <ele>152.2</ele>
      <time>2014-05-17T13:02:00Z</time>
    </trkpt>
    <trkpt lat="45.874239206" lon="13.78657328">
      <ele>152.5</ele>
      <time>2014-05-17T13:02:01Z</time>
    </trkpt>
    <trkpt lat="45.874185227" lon="13.786593229">
      <ele>152.7</ele>
      <time>2014-05-17T13:02:02Z</time>
    </trkpt>
    <trkpt lat="45.874128314" lon="13.786613178">
      <ele>152.6</ele>
      <time>2014-05-17T13:02:03Z</time>
    </trkpt>
    <trkpt lat="45.874078861" lon="13.786633294">
      <ele>152.4</ele>
      <time>2014-05-17T13:02:04Z</time>
    </trkpt>
    <trkpt lat="45.874039717" lon="13.786669504">
      <ele>152.0</ele>
      <time>2014-05-17T13:02:05Z</time>
    </trkpt>
    <trkpt lat="45.87401432" lon="13.786700936">
      <ele>151.4</ele>
      <time>2014-05-17T13:02:06Z</time>
    </trkpt>
    <trkpt lat="45.873988252" lon="13.786725998">
      <ele>151.0</ele>
      <time>2014-05-17T13:02:07Z</time>
    </trkpt>
    <trkpt lat="45.873954725" lon="13.786737313">
      <ele>150.8</ele>
      <time>2014-05-17T13:02:08Z</time>
    </trkpt>
    <trkpt lat="45.87392237" lon="13.786729099">
      <ele>151.0</ele>
      <time>2014-05-17T13:02:09Z</time>
    </trkpt>
    <trkpt lat="45.873890268" lon="13.7866804">
      <ele>151.8</ele>
      <time>2014-05-17T13:02:10Z</time>
    </trkpt>
    <trkpt lat="45.873862691" lon="13.786666906">
      <ele>152.0</ele>
      <time>2014-05-17T13:02:11Z</time>
    </trkpt>
    <trkpt lat="45.8738383" lon="13.786664139">
      <ele>152.0</ele>
      <time>2014-05-17T13:02:12Z</time>
    </trkpt>
    <trkpt lat="45.873824554" lon="13.786614435">
      <ele>152.5</ele>
      <time>2014-05-17T13:02:13Z</time>
    </trkpt>
    <trkpt lat="45.873821285" lon="13.786612004">
      <ele>152.5</ele>
      <time>2014-05-17T13:02:14Z</time>
    </trkpt>
    <trkpt lat="45.873814244" lon="13.78657571">
      <ele>152.8</ele>
      <time>2014-05-17T13:02:15Z</time>
    </trkpt>
    <trkpt lat="45.873814244" lon="13.78657571">
      <ele>152.8</ele>
      <time>2014-05-17T13:02:19Z</time>
    </trkpt>
    <trkpt lat="45.873814244" lon="13.78657571">
      <ele>152.8</ele>
      <time>2014-05-17T13:02:32Z</time>
    </trkpt>
    <trkpt lat="45.873814244" lon="13.78657571">
      <ele>152.8</ele>
      <time>2014-05-17T13:02:46Z</time>
    </trkpt>
    <trkpt lat="45.873808796" lon="13.786528688">
      <ele>153.2</ele>
      <time>2014-05-17T13:02:59Z</time>
    </trkpt>
    <trkpt lat="45.873808796" lon="13.786528688">
      <ele>153.2</ele>
      <time>2014-05-17T13:03:17Z</time>
    </trkpt>
    <trkpt lat="45.873808796" lon="13.786528688">
      <ele>153.2</ele>
      <time>2014-05-17T13:03:33Z</time>
    </trkpt>
    <trkpt lat="45.873757163" lon="13.786345543">
      <ele>154.7</ele>
      <time>2014-05-17T13:03:39Z</time>
    </trkpt>
    <trkpt lat="45.873661693" lon="13.786218138">
      <ele>155.4</ele>
      <time>2014-05-17T13:03:41Z</time>
    </trkpt>
    <trkpt lat="45.873599751" lon="13.786161728">
      <ele>155.6</ele>
      <time>2014-05-17T13:03:42Z</time>
    </trkpt>
    <trkpt lat="45.873263218" lon="13.786041867">
      <ele>155.1</ele>
      <time>2014-05-17T13:03:47Z</time>
    </trkpt>
    <trkpt lat="45.873084599" lon="13.785986714">
      <ele>155.5</ele>
      <time>2014-05-17T13:03:50Z</time>
    </trkpt>
    <trkpt lat="45.873026848" lon="13.785957126">
      <ele>155.5</ele>
      <time>2014-05-17T13:03:51Z</time>
    </trkpt>
    <trkpt lat="45.872970186" lon="13.785920413">
      <ele>155.6</ele>
      <time>2014-05-17T13:03:52Z</time>
    </trkpt>
    <trkpt lat="45.872912519" lon="13.785879258">
      <ele>155.5</ele>
      <time>2014-05-17T13:03:53Z</time>
    </trkpt>
    <trkpt lat="45.872854684" lon="13.785837181">
      <ele>155.4</ele>
      <time>2014-05-17T13:03:54Z</time>
    </trkpt>
    <trkpt lat="45.872527957" lon="13.785678847">
      <ele>153.2</ele>
      <time>2014-05-17T13:03:59Z</time>
    </trkpt>
    <trkpt lat="45.872211456" lon="13.785610115">
      <ele>154.0</ele>
      <time>2014-05-17T13:04:04Z</time>
    </trkpt>
    <trkpt lat="45.872074496" lon="13.785601817">
      <ele>154.7</ele>
      <time>2014-05-17T13:04:08Z</time>
    </trkpt>
    <trkpt lat="45.87192555" lon="13.7856247">
      <ele>155.9</ele>
      <time>2014-05-17T13:35:50Z</time>
    </trkpt>
    <trkpt lat="45.871868972" lon="13.785639619">
      <ele>156.5</ele>
      <time>2014-05-17T13:35:51Z</time>
    </trkpt>
    <trkpt lat="45.871804263" lon="13.785661496">
      <ele>157.3</ele>
      <time>2014-05-17T13:35:52Z</time>
    </trkpt>
    <trkpt lat="45.871741064" lon="13.785691923">
      <ele>158.1</ele>
      <time>2014-05-17T13:35:53Z</time>
    </trkpt>
    <trkpt lat="45.871679122" lon="13.785727797">
      <ele>159.1</ele>
      <time>2014-05-17T13:35:54Z</time>
    </trkpt>
    <trkpt lat="45.871618772" lon="13.785769539">
      <ele>160.2</ele>
      <time>2014-05-17T13:35:55Z</time>
    </trkpt>
    <trkpt lat="45.871561188" lon="13.785813376">
      <ele>161.3</ele>
      <time>2014-05-17T13:35:56Z</time>
    </trkpt>
    <trkpt lat="45.871315179" lon="13.785979589">
      <ele>164.1</ele>
      <time>2014-05-17T13:36:00Z</time>
    </trkpt>
    <trkpt lat="45.871194061" lon="13.785987804">
      <ele>164.6</ele>
      <time>2014-05-17T13:36:02Z</time>
    </trkpt>
    <trkpt lat="45.871143518" lon="13.785997611">
      <ele>164.9</ele>
      <time>2014-05-17T13:36:03Z</time>
    </trkpt>
    <trkpt lat="45.871096747" lon="13.78602745">
      <ele>165.2</ele>
      <time>2014-05-17T13:36:04Z</time>
    </trkpt>
    <trkpt lat="45.871049138" lon="13.786065839">
      <ele>165.4</ele>
      <time>2014-05-17T13:36:05Z</time>
    </trkpt>
    <trkpt lat="45.871001109" lon="13.786102384">
      <ele>165.6</ele>
      <time>2014-05-17T13:36:06Z</time>
    </trkpt>
    <trkpt lat="45.870950064" lon="13.786133314">
      <ele>165.8</ele>
      <time>2014-05-17T13:36:07Z</time>
    </trkpt>
    <trkpt lat="45.870901113" lon="13.786163824">
      <ele>165.9</ele>
      <time>2014-05-17T13:36:08Z</time>
    </trkpt>
    <trkpt lat="45.870855348" lon="13.78619995">
      <ele>166.0</ele>
      <time>2014-05-17T13:36:09Z</time>
    </trkpt>
    <trkpt lat="45.870814947" lon="13.786235405">
      <ele>165.7</ele>
      <time>2014-05-17T13:36:10Z</time>
    </trkpt>
    <trkpt lat="45.870748898" lon="13.786340766">
      <ele>164.8</ele>
      <time>2014-05-17T13:36:12Z</time>
    </trkpt>
    <trkpt lat="45.870520491" lon="13.78686782">
      <ele>161.8</ele>
      <time>2014-05-17T13:36:18Z</time>
    </trkpt>
    <trkpt lat="45.870481348" lon="13.786955327">
      <ele>161.0</ele>
      <time>2014-05-17T13:36:19Z</time>
    </trkpt>
    <trkpt lat="45.870437594" lon="13.78703705">
      <ele>160.2</ele>
      <time>2014-05-17T13:36:20Z</time>
    </trkpt>
    <trkpt lat="45.870389147" lon="13.787108213">
      <ele>159.4</ele>
      <time>2014-05-17T13:36:21Z</time>
    </trkpt>
    <trkpt lat="45.870337849" lon="13.787170239">
      <ele>158.7</ele>
      <time>2014-05-17T13:36:22Z</time>
    </trkpt>
    <trkpt lat="45.870274482" lon="13.787229918">
      <ele>157.9</ele>
      <time>2014-05-17T13:36:23Z</time>
    </trkpt>
    <trkpt lat="45.870215222" lon="13.787286663">
      <ele>157.3</ele>
      <time>2014-05-17T13:36:24Z</time>
    </trkpt>
    <trkpt lat="45.870154621" lon="13.787344918">
      <ele>156.6</ele>
      <time>2014-05-17T13:36:25Z</time>
    </trkpt>
    <trkpt lat="45.870093936" lon="13.787400154">
      <ele>156.0</ele>
      <time>2014-05-17T13:36:26Z</time>
    </trkpt>
    <trkpt lat="45.87003082" lon="13.78745296">
      <ele>155.4</ele>
      <time>2014-05-17T13:36:27Z</time>
    </trkpt>
    <trkpt lat="45.869966866" lon="13.787504844">
      <ele>154.6</ele>
      <time>2014-05-17T13:36:28Z</time>
    </trkpt>
    <trkpt lat="45.869896207" lon="13.787546922">
      <ele>153.4</ele>
      <time>2014-05-17T13:36:29Z</time>
    </trkpt>
    <trkpt lat="45.869819513" lon="13.78758464">
      <ele>152.3</ele>
      <time>2014-05-17T13:36:30Z</time>
    </trkpt>
    <trkpt lat="45.869454732" lon="13.787780525">
      <ele>148.2</ele>
      <time>2014-05-17T13:36:35Z</time>
    </trkpt>
    <trkpt lat="45.869389018" lon="13.787821932">
      <ele>147.7</ele>
      <time>2014-05-17T13:36:36Z</time>
    </trkpt>
    <trkpt lat="45.869323974" lon="13.787865769">
      <ele>147.3</ele>
      <time>2014-05-17T13:36:37Z</time>
    </trkpt>
    <trkpt lat="45.869261781" lon="13.787910109">
      <ele>147.0</ele>
      <time>2014-05-17T13:36:38Z</time>
    </trkpt>
    <trkpt lat="45.869203275" lon="13.787961407">
      <ele>146.8</ele>
      <time>2014-05-17T13:36:39Z</time>
    </trkpt>
    <trkpt lat="45.869150469" lon="13.788015386">
      <ele>146.8</ele>
      <time>2014-05-17T13:36:40Z</time>
    </trkpt>
    <trkpt lat="45.869103028" lon="13.788073892">
      <ele>146.8</ele>
      <time>2014-05-17T13:36:41Z</time>
    </trkpt>
    <trkpt lat="45.869061034" lon="13.78813969">
      <ele>147.0</ele>
      <time>2014-05-17T13:36:42Z</time>
    </trkpt>
    <trkpt lat="45.86896305" lon="13.788369521">
      <ele>148.1</ele>
      <time>2014-05-17T13:36:45Z</time>
    </trkpt>
    <trkpt lat="45.868921978" lon="13.788441606">
      <ele>147.8</ele>
      <time>2014-05-17T13:36:46Z</time>
    </trkpt>
    <trkpt lat="45.868821479" lon="13.788522156">
      <ele>147.9</ele>
      <time>2014-05-17T13:36:48Z</time>
    </trkpt>
    <trkpt lat="45.868692901" lon="13.78851763">
      <ele>148.4</ele>
      <time>2014-05-17T13:36:51Z</time>
    </trkpt>
    <trkpt lat="45.868645543" lon="13.788524419">
      <ele>148.6</ele>
      <time>2014-05-17T13:36:52Z</time>
    </trkpt>
    <trkpt lat="45.86853574" lon="13.788573621">
      <ele>149.1</ele>
      <time>2014-05-17T13:36:54Z</time>
    </trkpt>
    <trkpt lat="45.868260227" lon="13.788734637">
      <ele>151.1</ele>
      <time>2014-05-17T13:36:58Z</time>
    </trkpt>
    <trkpt lat="45.86818018" lon="13.788771015">
      <ele>151.6</ele>
      <time>2014-05-17T13:36:59Z</time>
    </trkpt>
    <trkpt lat="45.868096361" lon="13.788799178">
      <ele>152.1</ele>
      <time>2014-05-17T13:37:00Z</time>
    </trkpt>
    <trkpt lat="45.86801162" lon="13.788830107">
      <ele>152.7</ele>
      <time>2014-05-17T13:37:01Z</time>
    </trkpt>
    <trkpt lat="45.867927466" lon="13.788864473">
      <ele>153.4</ele>
      <time>2014-05-17T13:37:02Z</time>
    </trkpt>
    <trkpt lat="45.867842054" lon="13.7889037">
      <ele>154.2</ele>
      <time>2014-05-17T13:37:03Z</time>
    </trkpt>
    <trkpt lat="45.867751613" lon="13.788940581">
      <ele>155.1</ele>
      <time>2014-05-17T13:37:04Z</time>
    </trkpt>
    <trkpt lat="45.867662095" lon="13.78898534">
      <ele>156.2</ele>
      <time>2014-05-17T13:37:05Z</time>
    </trkpt>
    <trkpt lat="45.867584646" lon="13.789039822">
      <ele>157.4</ele>
      <time>2014-05-17T13:37:06Z</time>
    </trkpt>
    <trkpt lat="45.867511891" lon="13.789107045">
      <ele>159.0</ele>
      <time>2014-05-17T13:37:07Z</time>
    </trkpt>
    <trkpt lat="45.86745129" lon="13.789188936">
      <ele>159.8</ele>
      <time>2014-05-17T13:37:08Z</time>
    </trkpt>
    <trkpt lat="45.867402591" lon="13.78928625">
      <ele>160.7</ele>
      <time>2014-05-17T13:37:09Z</time>
    </trkpt>
    <trkpt lat="45.867358502" lon="13.789393036">
      <ele>162.0</ele>
      <time>2014-05-17T13:37:10Z</time>
    </trkpt>
    <trkpt lat="45.867318772" lon="13.789496385">
      <ele>163.3</ele>
      <time>2014-05-17T13:37:11Z</time>
    </trkpt>
    <trkpt lat="45.867280383" lon="13.789599733">
      <ele>164.9</ele>
      <time>2014-05-17T13:37:12Z</time>
    </trkpt>
    <trkpt lat="45.867250459" lon="13.789689336">
      <ele>166.3</ele>
      <time>2014-05-17T13:37:13Z</time>
    </trkpt>
    <trkpt lat="45.867220117" lon="13.78977525">
      <ele>167.8</ele>
      <time>2014-05-17T13:37:14Z</time>
    </trkpt>
    <trkpt lat="45.867192205" lon="13.789850939">
      <ele>169.2</ele>
      <time>2014-05-17T13:37:15Z</time>
    </trkpt>
    <trkpt lat="45.867161443" lon="13.789927298">
      <ele>170.7</ele>
      <time>2014-05-17T13:37:16Z</time>
    </trkpt>
    <trkpt lat="45.867119953" lon="13.790008267">
      <ele>172.3</ele>
      <time>2014-05-17T13:37:17Z</time>
    </trkpt>
    <trkpt lat="45.867067482" lon="13.790088315">
      <ele>172.9</ele>
      <time>2014-05-17T13:37:18Z</time>
    </trkpt>
    <trkpt lat="45.867011826" lon="13.790168697">
      <ele>173.5</ele>
      <time>2014-05-17T13:37:19Z</time>
    </trkpt>
    <trkpt lat="45.866951896" lon="13.790251762">
      <ele>174.3</ele>
      <time>2014-05-17T13:37:20Z</time>
    </trkpt>
    <trkpt lat="45.866886936" lon="13.790340442">
      <ele>175.2</ele>
      <time>2014-05-17T13:37:21Z</time>
    </trkpt>
    <trkpt lat="45.866815271" lon="13.790426273">
      <ele>176.2</ele>
      <time>2014-05-17T13:37:22Z</time>
    </trkpt>
    <trkpt lat="45.866745533" lon="13.790507074">
      <ele>177.3</ele>
      <time>2014-05-17T13:37:23Z</time>
    </trkpt>
    <trkpt lat="45.866688872" lon="13.790560719">
      <ele>178.1</ele>
      <time>2014-05-17T13:37:24Z</time>
    </trkpt>
    <trkpt lat="45.866631456" lon="13.790582009">
      <ele>179.0</ele>
      <time>2014-05-17T13:37:25Z</time>
    </trkpt>
    <trkpt lat="45.866560461" lon="13.790577985">
      <ele>180.1</ele>
      <time>2014-05-17T13:37:26Z</time>
    </trkpt>
    <trkpt lat="45.866483012" lon="13.790553426">
      <ele>181.2</ele>
      <time>2014-05-17T13:37:27Z</time>
    </trkpt>
    <trkpt lat="45.866409251" lon="13.790524425">
      <ele>182.1</ele>
      <time>2014-05-17T13:37:28Z</time>
    </trkpt>
    <trkpt lat="45.866333479" lon="13.790501961">
      <ele>183.1</ele>
      <time>2014-05-17T13:37:29Z</time>
    </trkpt>
    <trkpt lat="45.866253935" lon="13.790491568">
      <ele>184.3</ele>
      <time>2014-05-17T13:37:30Z</time>
    </trkpt>
    <trkpt lat="45.866171038" lon="13.790491568">
      <ele>185.5</ele>
      <time>2014-05-17T13:37:31Z</time>
    </trkpt>
    <trkpt lat="45.866087805" lon="13.790499615">
      <ele>186.9</ele>
      <time>2014-05-17T13:37:32Z</time>
    </trkpt>
    <trkpt lat="45.866003986" lon="13.790510679">
      <ele>188.3</ele>
      <time>2014-05-17T13:37:33Z</time>
    </trkpt>
    <trkpt lat="45.865917234" lon="13.790522916">
      <ele>189.7</ele>
      <time>2014-05-17T13:37:34Z</time>
    </trkpt>
    <trkpt lat="45.865836097" lon="13.790543452">
      <ele>191.2</ele>
      <time>2014-05-17T13:37:35Z</time>
    </trkpt>
    <trkpt lat="45.865760408" lon="13.790582931">
      <ele>190.7</ele>
      <time>2014-05-17T13:37:36Z</time>
    </trkpt>
    <trkpt lat="45.865691844" lon="13.79063582">
      <ele>190.6</ele>
      <time>2014-05-17T13:37:37Z</time>
    </trkpt>
    <trkpt lat="45.86562789" lon="13.790699858">
      <ele>190.6</ele>
      <time>2014-05-17T13:37:38Z</time>
    </trkpt>
    <trkpt lat="45.865566954" lon="13.790773284">
      <ele>191.0</ele>
      <time>2014-05-17T13:37:39Z</time>
    </trkpt>
    <trkpt lat="45.865505598" lon="13.790849475">
      <ele>191.4</ele>
      <time>2014-05-17T13:37:40Z</time>
    </trkpt>
    <trkpt lat="45.865452038" lon="13.790931618">
      <ele>191.8</ele>
      <time>2014-05-17T13:37:41Z</time>
    </trkpt>
    <trkpt lat="45.865409626" lon="13.791053239">
      <ele>192.8</ele>
      <time>2014-05-17T13:37:42Z</time>
    </trkpt>
    <trkpt lat="45.865362603" lon="13.791167317">
      <ele>194.0</ele>
      <time>2014-05-17T13:37:43Z</time>
    </trkpt>
    <trkpt lat="45.865306193" lon="13.791268235">
      <ele>195.1</ele>
      <time>2014-05-17T13:37:44Z</time>
    </trkpt>
    <trkpt lat="45.865241149" lon="13.791354988">
      <ele>196.2</ele>
      <time>2014-05-17T13:37:45Z</time>
    </trkpt>
    <trkpt lat="45.865175016" lon="13.791433191">
      <ele>197.5</ele>
      <time>2014-05-17T13:37:46Z</time>
    </trkpt>
    <trkpt lat="45.865110978" lon="13.791509634">
      <ele>198.8</ele>
      <time>2014-05-17T13:37:47Z</time>
    </trkpt>
    <trkpt lat="45.86505943" lon="13.791599404">
      <ele>200.5</ele>
      <time>2014-05-17T13:37:48Z</time>
    </trkpt>
    <trkpt lat="45.865022885" lon="13.791708956">
      <ele>202.5</ele>
      <time>2014-05-17T13:37:49Z</time>
    </trkpt>
    <trkpt lat="45.86499732" lon="13.791822111">
      <ele>204.2</ele>
      <time>2014-05-17T13:37:50Z</time>
    </trkpt>
    <trkpt lat="45.86498877" lon="13.791929819">
      <ele>205.6</ele>
      <time>2014-05-17T13:37:51Z</time>
    </trkpt>
    <trkpt lat="45.864993213" lon="13.792041969">
      <ele>207.3</ele>
      <time>2014-05-17T13:37:52Z</time>
    </trkpt>
    <trkpt lat="45.865017017" lon="13.792159148">
      <ele>208.9</ele>
      <time>2014-05-17T13:37:53Z</time>
    </trkpt>
    <trkpt lat="45.865051467" lon="13.792277081">
      <ele>210.1</ele>
      <time>2014-05-17T13:37:54Z</time>
    </trkpt>
    <trkpt lat="45.865094382" lon="13.792390237">
      <ele>211.1</ele>
      <time>2014-05-17T13:37:55Z</time>
    </trkpt>
    <trkpt lat="45.865128078" lon="13.792497441">
      <ele>212.0</ele>
      <time>2014-05-17T13:37:56Z</time>
    </trkpt>
    <trkpt lat="45.86514811" lon="13.792605568">
      <ele>212.0</ele>
      <time>2014-05-17T13:37:57Z</time>
    </trkpt>
    <trkpt lat="45.865153978" lon="13.792707659">
      <ele>212.1</ele>
      <time>2014-05-17T13:37:58Z</time>
    </trkpt>
    <trkpt lat="45.865148613" lon="13.792804973">
      <ele>212.5</ele>
      <time>2014-05-17T13:37:59Z</time>
    </trkpt>
    <trkpt lat="45.865126485" lon="13.792885691">
      <ele>213.1</ele>
      <time>2014-05-17T13:38:00Z</time>
    </trkpt>
    <trkpt lat="45.865089102" lon="13.792956518">
      <ele>214.0</ele>
      <time>2014-05-17T13:38:01Z</time>
    </trkpt>
    <trkpt lat="45.865040738" lon="13.793006055">
      <ele>215.0</ele>
      <time>2014-05-17T13:38:02Z</time>
    </trkpt>
    <trkpt lat="45.864984412" lon="13.793042935">
      <ele>216.1</ele>
      <time>2014-05-17T13:38:03Z</time>
    </trkpt>
    <trkpt lat="45.864910483" lon="13.793068584">
      <ele>216.6</ele>
      <time>2014-05-17T13:38:04Z</time>
    </trkpt>
    <trkpt lat="45.86483161" lon="13.793086186">
      <ele>217.3</ele>
      <time>2014-05-17T13:38:05Z</time>
    </trkpt>
    <trkpt lat="45.864747874" lon="13.79310362">
      <ele>218.0</ele>
      <time>2014-05-17T13:38:06Z</time>
    </trkpt>
    <trkpt lat="45.864661457" lon="13.793128347">
      <ele>218.8</ele>
      <time>2014-05-17T13:38:07Z</time>
    </trkpt>
    <trkpt lat="45.864575207" lon="13.793160114">
      <ele>219.8</ele>
      <time>2014-05-17T13:38:08Z</time>
    </trkpt>
    <trkpt lat="45.86449231" lon="13.793199593">
      <ele>220.9</ele>
      <time>2014-05-17T13:38:09Z</time>
    </trkpt>
    <trkpt lat="45.864416119" lon="13.793246364">
      <ele>222.2</ele>
      <time>2014-05-17T13:38:10Z</time>
    </trkpt>
    <trkpt lat="45.864348728" lon="13.793309899">
      <ele>223.7</ele>
      <time>2014-05-17T13:38:11Z</time>
    </trkpt>
    <trkpt lat="45.86428226" lon="13.793395897">
      <ele>225.3</ele>
      <time>2014-05-17T13:38:12Z</time>
    </trkpt>
    <trkpt lat="45.86422191" lon="13.793482818">
      <ele>226.6</ele>
      <time>2014-05-17T13:38:13Z</time>
    </trkpt>
    <trkpt lat="45.864166673" lon="13.793563955">
      <ele>227.9</ele>
      <time>2014-05-17T13:38:14Z</time>
    </trkpt>
    <trkpt lat="45.864118645" lon="13.793646349">
      <ele>228.2</ele>
      <time>2014-05-17T13:38:15Z</time>
    </trkpt>
    <trkpt lat="45.864074472" lon="13.79372078">
      <ele>228.6</ele>
      <time>2014-05-17T13:38:16Z</time>
    </trkpt>
    <trkpt lat="45.864030467" lon="13.793787584">
      <ele>228.9</ele>
      <time>2014-05-17T13:38:17Z</time>
    </trkpt>
    <trkpt lat="45.863983864" lon="13.793843491">
      <ele>229.2</ele>
      <time>2014-05-17T13:38:18Z</time>
    </trkpt>
    <trkpt lat="45.863929801" lon="13.79389395">
      <ele>229.4</ele>
      <time>2014-05-17T13:38:19Z</time>
    </trkpt>
    <trkpt lat="45.863871714" lon="13.793950947">
      <ele>229.7</ele>
      <time>2014-05-17T13:38:20Z</time>
    </trkpt>
    <trkpt lat="45.863816813" lon="13.794010961">
      <ele>230.2</ele>
      <time>2014-05-17T13:38:21Z</time>
    </trkpt>
    <trkpt lat="45.863762666" lon="13.794064857">
      <ele>230.7</ele>
      <time>2014-05-17T13:38:22Z</time>
    </trkpt>
    <trkpt lat="45.863714973" lon="13.794127302">
      <ele>231.4</ele>
      <time>2014-05-17T13:38:23Z</time>
    </trkpt>
    <trkpt lat="45.863677924" lon="13.794205505">
      <ele>231.9</ele>
      <time>2014-05-17T13:38:24Z</time>
    </trkpt>
    <trkpt lat="45.8636449" lon="13.79428681">
      <ele>232.1</ele>
      <time>2014-05-17T13:38:25Z</time>
    </trkpt>
    <trkpt lat="45.863609612" lon="13.794359481">
      <ele>232.4</ele>
      <time>2014-05-17T13:38:26Z</time>
    </trkpt>
    <trkpt lat="45.863563428" lon="13.794428129">
      <ele>232.7</ele>
      <time>2014-05-17T13:38:27Z</time>
    </trkpt>
    <trkpt lat="45.86351213" lon="13.794494849">
      <ele>233.0</ele>
      <time>2014-05-17T13:38:28Z</time>
    </trkpt>
    <trkpt lat="45.863461168" lon="13.794576991">
      <ele>233.6</ele>
      <time>2014-05-17T13:38:29Z</time>
    </trkpt>
    <trkpt lat="45.863411296" lon="13.794669863">
      <ele>234.3</ele>
      <time>2014-05-17T13:38:30Z</time>
    </trkpt>
    <trkpt lat="45.863364358" lon="13.794775894">
      <ele>235.2</ele>
      <time>2014-05-17T13:38:31Z</time>
    </trkpt>
    <trkpt lat="45.863323286" lon="13.794883266">
      <ele>236.0</ele>
      <time>2014-05-17T13:38:32Z</time>
    </trkpt>
    <trkpt lat="45.86328079" lon="13.794997344">
      <ele>236.2</ele>
      <time>2014-05-17T13:38:33Z</time>
    </trkpt>
    <trkpt lat="45.863237204" lon="13.795107566">
      <ele>235.6</ele>
      <time>2014-05-17T13:38:34Z</time>
    </trkpt>
    <trkpt lat="45.86307141" lon="13.795432951">
      <ele>234.4</ele>
      <time>2014-05-17T13:38:37Z</time>
    </trkpt>
    <trkpt lat="45.863008797" lon="13.795553651">
      <ele>234.3</ele>
      <time>2014-05-17T13:38:38Z</time>
    </trkpt>
    <trkpt lat="45.862947525" lon="13.795685833">
      <ele>234.4</ele>
      <time>2014-05-17T13:38:39Z</time>
    </trkpt>
    <trkpt lat="45.862891199" lon="13.795835199">
      <ele>234.9</ele>
      <time>2014-05-17T13:38:40Z</time>
    </trkpt>
    <trkpt lat="45.862846356" lon="13.795981715">
      <ele>234.8</ele>
      <time>2014-05-17T13:38:41Z</time>
    </trkpt>
    <trkpt lat="45.86280914" lon="13.796128063">
      <ele>234.8</ele>
      <time>2014-05-17T13:38:42Z</time>
    </trkpt>
    <trkpt lat="45.86277754" lon="13.796270806">
      <ele>235.0</ele>
      <time>2014-05-17T13:38:43Z</time>
    </trkpt>
    <trkpt lat="45.862751305" lon="13.79641179">
      <ele>235.3</ele>
      <time>2014-05-17T13:38:44Z</time>
    </trkpt>
    <trkpt lat="45.862727333" lon="13.796550678">
      <ele>235.7</ele>
      <time>2014-05-17T13:38:45Z</time>
    </trkpt>
    <trkpt lat="45.862707216" lon="13.796695434">
      <ele>236.1</ele>
      <time>2014-05-17T13:38:46Z</time>
    </trkpt>
    <trkpt lat="45.862694811" lon="13.796848068">
      <ele>236.9</ele>
      <time>2014-05-17T13:38:47Z</time>
    </trkpt>
    <trkpt lat="45.862660864" lon="13.7971354">
      <ele>238.5</ele>
      <time>2014-05-17T13:38:49Z</time>
    </trkpt>
    <trkpt lat="45.862617195" lon="13.797266074">
      <ele>239.5</ele>
      <time>2014-05-17T13:38:50Z</time>
    </trkpt>
    <trkpt lat="45.862561036" lon="13.797381744">
      <ele>240.7</ele>
      <time>2014-05-17T13:38:51Z</time>
    </trkpt>
    <trkpt lat="45.862505212" lon="13.797503449">
      <ele>242.0</ele>
      <time>2014-05-17T13:38:52Z</time>
    </trkpt>
    <trkpt lat="45.862464225" lon="13.797635129">
      <ele>242.2</ele>
      <time>2014-05-17T13:38:53Z</time>
    </trkpt>
    <trkpt lat="45.862440085" lon="13.797773262">
      <ele>242.6</ele>
      <time>2014-05-17T13:38:54Z</time>
    </trkpt>
    <trkpt lat="45.862426003" lon="13.797913073">
      <ele>243.1</ele>
      <time>2014-05-17T13:38:55Z</time>
    </trkpt>
    <trkpt lat="45.862409323" lon="13.798042405">
      <ele>243.7</ele>
      <time>2014-05-17T13:38:56Z</time>
    </trkpt>
    <trkpt lat="45.862385938" lon="13.798173163">
      <ele>244.1</ele>
      <time>2014-05-17T13:38:57Z</time>
    </trkpt>
    <trkpt lat="45.862356937" lon="13.798305178">
      <ele>244.6</ele>
      <time>2014-05-17T13:38:58Z</time>
    </trkpt>
    <trkpt lat="45.862324499" lon="13.798440965">
      <ele>244.7</ele>
      <time>2014-05-17T13:38:59Z</time>
    </trkpt>
    <trkpt lat="45.86229248" lon="13.798580021">
      <ele>244.6</ele>
      <time>2014-05-17T13:39:00Z</time>
    </trkpt>
    <trkpt lat="45.86226373" lon="13.798719663">
      <ele>244.6</ele>
      <time>2014-05-17T13:39:01Z</time>
    </trkpt>
    <trkpt lat="45.862239422" lon="13.798855953">
      <ele>244.6</ele>
      <time>2014-05-17T13:39:02Z</time>
    </trkpt>
    <trkpt lat="45.862220563" lon="13.798994171">
      <ele>244.7</ele>
      <time>2014-05-17T13:39:03Z</time>
    </trkpt>
    <trkpt lat="45.862208158" lon="13.799120905">
      <ele>244.8</ele>
      <time>2014-05-17T13:39:04Z</time>
    </trkpt>
    <trkpt lat="45.862200614" lon="13.799244203">
      <ele>245.2</ele>
      <time>2014-05-17T13:39:05Z</time>
    </trkpt>
    <trkpt lat="45.862199944" lon="13.79935937">
      <ele>245.7</ele>
      <time>2014-05-17T13:39:06Z</time>
    </trkpt>
    <trkpt lat="45.862201033" lon="13.799472274">
      <ele>246.2</ele>
      <time>2014-05-17T13:39:07Z</time>
    </trkpt>
    <trkpt lat="45.862200195" lon="13.799584256">
      <ele>246.7</ele>
      <time>2014-05-17T13:39:08Z</time>
    </trkpt>
    <trkpt lat="45.862200698" lon="13.799696239">
      <ele>247.2</ele>
      <time>2014-05-17T13:39:09Z</time>
    </trkpt>
    <trkpt lat="45.862203464" lon="13.799815848">
      <ele>247.8</ele>
      <time>2014-05-17T13:39:10Z</time>
    </trkpt>
    <trkpt lat="45.862205727" lon="13.799925568">
      <ele>248.3</ele>
      <time>2014-05-17T13:39:11Z</time>
    </trkpt>
    <trkpt lat="45.862205643" lon="13.800033862">
      <ele>248.7</ele>
      <time>2014-05-17T13:39:12Z</time>
    </trkpt>
    <trkpt lat="45.862206398" lon="13.800140312">
      <ele>249.0</ele>
      <time>2014-05-17T13:39:13Z</time>
    </trkpt>
    <trkpt lat="45.86220908" lon="13.800245002">
      <ele>249.3</ele>
      <time>2014-05-17T13:39:14Z</time>
    </trkpt>
    <trkpt lat="45.862222994" lon="13.800344914">
      <ele>249.6</ele>
      <time>2014-05-17T13:39:15Z</time>
    </trkpt>
    <trkpt lat="45.862370515" lon="13.800834501">
      <ele>251.0</ele>
      <time>2014-05-17T13:39:20Z</time>
    </trkpt>
    <trkpt lat="45.862563048" lon="13.801381588">
      <ele>251.0</ele>
      <time>2014-05-17T13:39:26Z</time>
    </trkpt>
    <trkpt lat="45.862600179" lon="13.801475633">
      <ele>250.9</ele>
      <time>2014-05-17T13:39:27Z</time>
    </trkpt>
    <trkpt lat="45.862636892" lon="13.801561547">
      <ele>250.9</ele>
      <time>2014-05-17T13:39:28Z</time>
    </trkpt>
    <trkpt lat="45.862676371" lon="13.801652575">
      <ele>250.9</ele>
      <time>2014-05-17T13:39:29Z</time>
    </trkpt>
    <trkpt lat="45.862715514" lon="13.801753242">
      <ele>250.2</ele>
      <time>2014-05-17T13:39:30Z</time>
    </trkpt>
    <trkpt lat="45.862796064" lon="13.801975446">
      <ele>248.8</ele>
      <time>2014-05-17T13:39:32Z</time>
    </trkpt>
    <trkpt lat="45.862828502" lon="13.802095056">
      <ele>248.3</ele>
      <time>2014-05-17T13:39:33Z</time>
    </trkpt>
    <trkpt lat="45.862891702" lon="13.80244894">
      <ele>247.0</ele>
      <time>2014-05-17T13:39:36Z</time>
    </trkpt>
    <trkpt lat="45.862898827" lon="13.802569052">
      <ele>246.5</ele>
      <time>2014-05-17T13:39:37Z</time>
    </trkpt>
    <trkpt lat="45.86289363" lon="13.802691931">
      <ele>245.8</ele>
      <time>2014-05-17T13:39:38Z</time>
    </trkpt>
    <trkpt lat="45.86288617" lon="13.802814307">
      <ele>245.1</ele>
      <time>2014-05-17T13:39:39Z</time>
    </trkpt>
    <trkpt lat="45.862877034" lon="13.802933162">
      <ele>244.4</ele>
      <time>2014-05-17T13:39:40Z</time>
    </trkpt>
    <trkpt lat="45.862863455" lon="13.803052101">
      <ele>243.7</ele>
      <time>2014-05-17T13:39:41Z</time>
    </trkpt>
    <trkpt lat="45.862827916" lon="13.803413613">
      <ele>241.7</ele>
      <time>2014-05-17T13:39:44Z</time>
    </trkpt>
    <trkpt lat="45.862819869" lon="13.804104868">
      <ele>239.2</ele>
      <time>2014-05-17T13:39:49Z</time>
    </trkpt>
    <trkpt lat="45.862828" lon="13.804229423">
      <ele>239.4</ele>
      <time>2014-05-17T13:39:50Z</time>
    </trkpt>
    <trkpt lat="45.862843757" lon="13.804347273">
      <ele>240.2</ele>
      <time>2014-05-17T13:39:51Z</time>
    </trkpt>
    <trkpt lat="45.862862282" lon="13.804462021">
      <ele>241.1</ele>
      <time>2014-05-17T13:39:52Z</time>
    </trkpt>
    <trkpt lat="45.862881728" lon="13.804574339">
      <ele>242.1</ele>
      <time>2014-05-17T13:39:53Z</time>
    </trkpt>
    <trkpt lat="45.862913579" lon="13.804809451">
      <ele>243.9</ele>
      <time>2014-05-17T13:39:55Z</time>
    </trkpt>
    <trkpt lat="45.862919195" lon="13.804928055">
      <ele>244.7</ele>
      <time>2014-05-17T13:39:56Z</time>
    </trkpt>
    <trkpt lat="45.862922464" lon="13.805040121">
      <ele>245.5</ele>
      <time>2014-05-17T13:39:57Z</time>
    </trkpt>
    <trkpt lat="45.862909807" lon="13.805153528">
      <ele>246.2</ele>
      <time>2014-05-17T13:39:58Z</time>
    </trkpt>
    <trkpt lat="45.862878878" lon="13.805392161">
      <ele>247.7</ele>
      <time>2014-05-17T13:40:00Z</time>
    </trkpt>
    <trkpt lat="45.862830346" lon="13.805609252">
      <ele>249.0</ele>
      <time>2014-05-17T13:40:02Z</time>
    </trkpt>
    <trkpt lat="45.862786509" lon="13.805706315">
      <ele>249.4</ele>
      <time>2014-05-17T13:40:03Z</time>
    </trkpt>
    <trkpt lat="45.862743007" lon="13.805797342">
      <ele>249.9</ele>
      <time>2014-05-17T13:40:04Z</time>
    </trkpt>
    <trkpt lat="45.86269917" lon="13.80589759">
      <ele>250.3</ele>
      <time>2014-05-17T13:40:05Z</time>
    </trkpt>
    <trkpt lat="45.862660697" lon="13.806000771">
      <ele>250.7</ele>
      <time>2014-05-17T13:40:06Z</time>
    </trkpt>
    <trkpt lat="45.862627923" lon="13.806100516">
      <ele>251.3</ele>
      <time>2014-05-17T13:40:07Z</time>
    </trkpt>
    <trkpt lat="45.862599425" lon="13.806200763">
      <ele>251.9</ele>
      <time>2014-05-17T13:40:08Z</time>
    </trkpt>
    <trkpt lat="45.862579728" lon="13.806303106">
      <ele>252.7</ele>
      <time>2014-05-17T13:40:09Z</time>
    </trkpt>
    <trkpt lat="45.862564724" lon="13.806411568">
      <ele>253.6</ele>
      <time>2014-05-17T13:40:10Z</time>
    </trkpt>
    <trkpt lat="45.862550475" lon="13.806524305">
      <ele>254.6</ele>
      <time>2014-05-17T13:40:11Z</time>
    </trkpt>
    <trkpt lat="45.862536225" lon="13.806650368">
      <ele>255.7</ele>
      <time>2014-05-17T13:40:12Z</time>
    </trkpt>
    <trkpt lat="45.862521641" lon="13.80677023">
      <ele>255.9</ele>
      <time>2014-05-17T13:40:13Z</time>
    </trkpt>
    <trkpt lat="45.86243799" lon="13.807531558">
      <ele>255.1</ele>
      <time>2014-05-17T13:40:19Z</time>
    </trkpt>
    <trkpt lat="45.862389039" lon="13.80840579">
      <ele>260.5</ele>
      <time>2014-05-17T13:40:25Z</time>
    </trkpt>
    <trkpt lat="45.862404294" lon="13.808963606">
      <ele>264.8</ele>
      <time>2014-05-17T13:40:29Z</time>
    </trkpt>
    <trkpt lat="45.862400942" lon="13.809097717">
      <ele>265.9</ele>
      <time>2014-05-17T13:40:30Z</time>
    </trkpt>
    <trkpt lat="45.862394739" lon="13.809233671">
      <ele>266.6</ele>
      <time>2014-05-17T13:40:31Z</time>
    </trkpt>
    <trkpt lat="45.862385435" lon="13.809366189">
      <ele>267.1</ele>
      <time>2014-05-17T13:40:32Z</time>
    </trkpt>
    <trkpt lat="45.862365989" lon="13.809492253">
      <ele>267.6</ele>
      <time>2014-05-17T13:40:33Z</time>
    </trkpt>
    <trkpt lat="45.862334054" lon="13.809600882">
      <ele>268.4</ele>
      <time>2014-05-17T13:40:34Z</time>
    </trkpt>
    <trkpt lat="45.862281416" lon="13.809709596">
      <ele>269.7</ele>
      <time>2014-05-17T13:40:35Z</time>
    </trkpt>
    <trkpt lat="45.862220312" lon="13.80980867">
      <ele>271.1</ele>
      <time>2014-05-17T13:40:36Z</time>
    </trkpt>
    <trkpt lat="45.862168176" lon="13.809881676">
      <ele>272.3</ele>
      <time>2014-05-17T13:40:37Z</time>
    </trkpt>
    <trkpt lat="45.862120399" lon="13.809933057">
      <ele>273.5</ele>
      <time>2014-05-17T13:40:38Z</time>
    </trkpt>
    <trkpt lat="45.862073544" lon="13.809974799">
      <ele>274.6</ele>
      <time>2014-05-17T13:40:39Z</time>
    </trkpt>
    <trkpt lat="45.862034401" lon="13.810005058">
      <ele>275.5</ele>
      <time>2014-05-17T13:40:40Z</time>
    </trkpt>
    <trkpt lat="45.862000454" lon="13.810029365">
      <ele>276.1</ele>
      <time>2014-05-17T13:40:41Z</time>
    </trkpt>
    <trkpt lat="45.861979332" lon="13.810044955">
      <ele>276.5</ele>
      <time>2014-05-17T13:40:42Z</time>
    </trkpt>
    <trkpt lat="45.861956785" lon="13.81006239">
      <ele>276.9</ele>
      <time>2014-05-17T13:40:43Z</time>
    </trkpt>
    <trkpt lat="45.861931806" lon="13.810086781">
      <ele>277.3</ele>
      <time>2014-05-17T13:40:44Z</time>
    </trkpt>
    <trkpt lat="45.861897608" lon="13.810128858">
      <ele>277.8</ele>
      <time>2014-05-17T13:40:45Z</time>
    </trkpt>
    <trkpt lat="45.861822339" lon="13.810238913">
      <ele>279.0</ele>
      <time>2014-05-17T13:40:47Z</time>
    </trkpt>
    <trkpt lat="45.861789901" lon="13.810311165">
      <ele>279.4</ele>
      <time>2014-05-17T13:40:48Z</time>
    </trkpt>
    <trkpt lat="45.861760397" lon="13.810381573">
      <ele>279.7</ele>
      <time>2014-05-17T13:40:49Z</time>
    </trkpt>
    <trkpt lat="45.86172997" lon="13.810456926">
      <ele>280.1</ele>
      <time>2014-05-17T13:40:50Z</time>
    </trkpt>
    <trkpt lat="45.861703735" lon="13.81052725">
      <ele>280.3</ele>
      <time>2014-05-17T13:40:51Z</time>
    </trkpt>
    <trkpt lat="45.861678421" lon="13.810599418">
      <ele>280.6</ele>
      <time>2014-05-17T13:40:52Z</time>
    </trkpt>
    <trkpt lat="45.861653276" lon="13.810670581">
      <ele>281.0</ele>
      <time>2014-05-17T13:40:53Z</time>
    </trkpt>
    <trkpt lat="45.861628884" lon="13.810740653">
      <ele>281.4</ele>
      <time>2014-05-17T13:40:54Z</time>
    </trkpt>
    <trkpt lat="45.861603152" lon="13.810810558">
      <ele>281.9</ele>
      <time>2014-05-17T13:40:55Z</time>
    </trkpt>
    <trkpt lat="45.861578174" lon="13.810879542">
      <ele>282.5</ele>
      <time>2014-05-17T13:40:56Z</time>
    </trkpt>
    <trkpt lat="45.861546826" lon="13.810978197">
      <ele>283.3</ele>
      <time>2014-05-17T13:40:57Z</time>
    </trkpt>
    <trkpt lat="45.861522099" lon="13.811121276">
      <ele>283.9</ele>
      <time>2014-05-17T13:40:58Z</time>
    </trkpt>
    <trkpt lat="45.861500641" lon="13.811255889">
      <ele>284.3</ele>
      <time>2014-05-17T13:40:59Z</time>
    </trkpt>
    <trkpt lat="45.861478345" lon="13.811374325">
      <ele>284.7</ele>
      <time>2014-05-17T13:41:00Z</time>
    </trkpt>
    <trkpt lat="45.861457558" lon="13.811497372">
      <ele>285.0</ele>
      <time>2014-05-17T13:41:01Z</time>
    </trkpt>
    <trkpt lat="45.861363094" lon="13.811725527">
      <ele>286.6</ele>
      <time>2014-05-17T13:41:02Z</time>
    </trkpt>
    <trkpt lat="45.861318167" lon="13.811832564">
      <ele>287.0</ele>
      <time>2014-05-17T13:41:03Z</time>
    </trkpt>
    <trkpt lat="45.861259829" lon="13.811977487">
      <ele>287.6</ele>
      <time>2014-05-17T13:41:04Z</time>
    </trkpt>
    <trkpt lat="45.861142986" lon="13.812160129">
      <ele>289.4</ele>
      <time>2014-05-17T13:41:05Z</time>
    </trkpt>
    <trkpt lat="45.861035194" lon="13.812279822">
      <ele>291.3</ele>
      <time>2014-05-17T13:41:06Z</time>
    </trkpt>
    <trkpt lat="45.860954393" lon="13.812355343">
      <ele>292.8</ele>
      <time>2014-05-17T13:41:07Z</time>
    </trkpt>
    <trkpt lat="45.860832017" lon="13.812471014">
      <ele>295.1</ele>
      <time>2014-05-17T13:41:08Z</time>
    </trkpt>
    <trkpt lat="45.860826485" lon="13.812545445">
      <ele>294.8</ele>
      <time>2014-05-17T13:41:09Z</time>
    </trkpt>
    <trkpt lat="45.860791029" lon="13.812600095">
      <ele>294.6</ele>
      <time>2014-05-17T13:41:10Z</time>
    </trkpt>
    <trkpt lat="45.860764123" lon="13.812614847">
      <ele>294.6</ele>
      <time>2014-05-17T13:41:11Z</time>
    </trkpt>
    <trkpt lat="45.860759262" lon="13.812620295">
      <ele>294.6</ele>
      <time>2014-05-17T13:41:12Z</time>
    </trkpt>
    <trkpt lat="45.860742079" lon="13.812705874">
      <ele>294.0</ele>
      <time>2014-05-17T13:46:50Z</time>
    </trkpt>
    <trkpt lat="45.860757586" lon="13.812770834">
      <ele>293.6</ele>
      <time>2014-05-17T13:46:51Z</time>
    </trkpt>
    <trkpt lat="45.860769069" lon="13.812845433">
      <ele>293.1</ele>
      <time>2014-05-17T13:46:52Z</time>
    </trkpt>
    <trkpt lat="45.860774098" lon="13.812919194">
      <ele>292.7</ele>
      <time>2014-05-17T13:46:53Z</time>
    </trkpt>
    <trkpt lat="45.860773511" lon="13.812985914">
      <ele>292.3</ele>
      <time>2014-05-17T13:46:54Z</time>
    </trkpt>
    <trkpt lat="45.860773008" lon="13.81304048">
      <ele>291.9</ele>
      <time>2014-05-17T13:46:55Z</time>
    </trkpt>
    <trkpt lat="45.860772086" lon="13.813037714">
      <ele>292.0</ele>
      <time>2014-05-17T13:48:08Z</time>
    </trkpt>
    <trkpt lat="45.860775271" lon="13.813045928">
      <ele>291.9</ele>
      <time>2014-05-17T13:48:10Z</time>
    </trkpt>
    <trkpt lat="45.860789437" lon="13.813078115">
      <ele>291.9</ele>
      <time>2014-05-17T13:48:11Z</time>
    </trkpt>
    <trkpt lat="45.860816762" lon="13.813247681">
      <ele>291.2</ele>
      <time>2014-05-17T13:48:14Z</time>
    </trkpt>
    <trkpt lat="45.860823132" lon="13.813327476">
      <ele>290.9</ele>
      <time>2014-05-17T13:48:15Z</time>
    </trkpt>
    <trkpt lat="45.860860096" lon="13.813545154">
      <ele>288.1</ele>
      <time>2014-05-17T13:48:18Z</time>
    </trkpt>
    <trkpt lat="45.860871412" lon="13.81360651">
      <ele>287.3</ele>
      <time>2014-05-17T13:48:19Z</time>
    </trkpt>
    <trkpt lat="45.860879794" lon="13.813662836">
      <ele>286.5</ele>
      <time>2014-05-17T13:48:20Z</time>
    </trkpt>
    <trkpt lat="45.860884655" lon="13.813716983">
      <ele>285.8</ele>
      <time>2014-05-17T13:48:21Z</time>
    </trkpt>
    <trkpt lat="45.860887757" lon="13.813764341">
      <ele>285.3</ele>
      <time>2014-05-17T13:48:22Z</time>
    </trkpt>
    <trkpt lat="45.8608808" lon="13.813809352">
      <ele>284.9</ele>
      <time>2014-05-17T13:48:23Z</time>
    </trkpt>
    <trkpt lat="45.860869903" lon="13.813838605">
      <ele>284.8</ele>
      <time>2014-05-17T13:48:24Z</time>
    </trkpt>
    <trkpt lat="45.860860432" lon="13.813854866">
      <ele>284.9</ele>
      <time>2014-05-17T13:48:25Z</time>
    </trkpt>
    <trkpt lat="45.860853223" lon="13.813862242">
      <ele>284.9</ele>
      <time>2014-05-17T13:48:26Z</time>
    </trkpt>
    <trkpt lat="45.8608378" lon="13.813882358">
      <ele>285.0</ele>
      <time>2014-05-17T13:48:28Z</time>
    </trkpt>
    <trkpt lat="45.860835118" lon="13.813882275">
      <ele>285.0</ele>
      <time>2014-05-17T13:48:29Z</time>
    </trkpt>
    <trkpt lat="45.860833358" lon="13.813881772">
      <ele>285.1</ele>
      <time>2014-05-17T13:48:30Z</time>
    </trkpt>
    <trkpt lat="45.860833358" lon="13.813881772">
      <ele>285.1</ele>
      <time>2014-05-17T13:48:31Z</time>
    </trkpt>
    <trkpt lat="45.860833358" lon="13.813881772">
      <ele>285.1</ele>
      <time>2014-05-17T13:48:32Z</time>
    </trkpt>
    <trkpt lat="45.860833358" lon="13.813881772">
      <ele>285.1</ele>
      <time>2014-05-17T13:48:33Z</time>
    </trkpt>
    <trkpt lat="45.860833358" lon="13.813881772">
      <ele>285.1</ele>
      <time>2014-05-17T13:48:47Z</time>
    </trkpt>
    <trkpt lat="45.860833358" lon="13.813881772">
      <ele>285.1</ele>
      <time>2014-05-17T13:49:05Z</time>
    </trkpt>
    <trkpt lat="45.86082791" lon="13.813894344">
      <ele>284.8</ele>
      <time>2014-05-17T13:49:10Z</time>
    </trkpt>
    <trkpt lat="45.860825563" lon="13.813916054">
      <ele>284.5</ele>
      <time>2014-05-17T13:49:12Z</time>
    </trkpt>
    <trkpt lat="45.86082573" lon="13.813914964">
      <ele>284.6</ele>
      <time>2014-05-17T13:49:13Z</time>
    </trkpt>
    <trkpt lat="45.860842075" lon="13.814021666">
      <ele>283.4</ele>
      <time>2014-05-17T13:49:19Z</time>
    </trkpt>
    <trkpt lat="45.860852301" lon="13.814202715">
      <ele>281.2</ele>
      <time>2014-05-17T13:49:22Z</time>
    </trkpt>
    <trkpt lat="45.860864455" lon="13.814276643">
      <ele>280.1</ele>
      <time>2014-05-17T13:49:23Z</time>
    </trkpt>
    <trkpt lat="45.860874681" lon="13.814357528">
      <ele>278.9</ele>
      <time>2014-05-17T13:49:24Z</time>
    </trkpt>
    <trkpt lat="45.860881973" lon="13.814437659">
      <ele>277.7</ele>
      <time>2014-05-17T13:49:25Z</time>
    </trkpt>
    <trkpt lat="45.860887254" lon="13.814524664">
      <ele>276.5</ele>
      <time>2014-05-17T13:49:26Z</time>
    </trkpt>
    <trkpt lat="45.860894378" lon="13.814618541">
      <ele>275.2</ele>
      <time>2014-05-17T13:49:27Z</time>
    </trkpt>
    <trkpt lat="45.860899324" lon="13.814711832">
      <ele>274.0</ele>
      <time>2014-05-17T13:49:28Z</time>
    </trkpt>
    <trkpt lat="45.860900497" lon="13.8147985">
      <ele>272.9</ele>
      <time>2014-05-17T13:49:29Z</time>
    </trkpt>
    <trkpt lat="45.860899491" lon="13.814870836">
      <ele>272.0</ele>
      <time>2014-05-17T13:49:30Z</time>
    </trkpt>
    <trkpt lat="45.860893121" lon="13.814936131">
      <ele>271.2</ele>
      <time>2014-05-17T13:49:31Z</time>
    </trkpt>
    <trkpt lat="45.860888846" lon="13.814971503">
      <ele>270.8</ele>
      <time>2014-05-17T13:49:32Z</time>
    </trkpt>
    <trkpt lat="45.860883566" lon="13.814979717">
      <ele>270.8</ele>
      <time>2014-05-17T13:49:33Z</time>
    </trkpt>
    <trkpt lat="45.860880464" lon="13.814985836">
      <ele>270.7</ele>
      <time>2014-05-17T13:49:34Z</time>
    </trkpt>
    <trkpt lat="45.860880045" lon="13.814984411">
      <ele>270.8</ele>
      <time>2014-05-17T13:49:35Z</time>
    </trkpt>
    <trkpt lat="45.860880045" lon="13.814984411">
      <ele>270.8</ele>
      <time>2014-05-17T13:49:36Z</time>
    </trkpt>
    <trkpt lat="45.860880045" lon="13.814984411">
      <ele>270.8</ele>
      <time>2014-05-17T13:49:43Z</time>
    </trkpt>
    <trkpt lat="45.860880045" lon="13.814984411">
      <ele>270.8</ele>
      <time>2014-05-17T13:50:02Z</time>
    </trkpt>
    <trkpt lat="45.86087862" lon="13.814994721">
      <ele>270.6</ele>
      <time>2014-05-17T13:50:15Z</time>
    </trkpt>
    <trkpt lat="45.860874681" lon="13.815032439">
      <ele>270.4</ele>
      <time>2014-05-17T13:50:16Z</time>
    </trkpt>
    <trkpt lat="45.860855989" lon="13.815255985">
      <ele>269.3</ele>
      <time>2014-05-17T13:50:19Z</time>
    </trkpt>
    <trkpt lat="45.860838639" lon="13.815465532">
      <ele>268.2</ele>
      <time>2014-05-17T13:50:21Z</time>
    </trkpt>
    <trkpt lat="45.860826485" lon="13.815573324">
      <ele>267.4</ele>
      <time>2014-05-17T13:50:22Z</time>
    </trkpt>
    <trkpt lat="45.860811062" lon="13.815684468">
      <ele>266.3</ele>
      <time>2014-05-17T13:50:23Z</time>
    </trkpt>
    <trkpt lat="45.86079279" lon="13.815797791">
      <ele>265.2</ele>
      <time>2014-05-17T13:50:24Z</time>
    </trkpt>
    <trkpt lat="45.860771416" lon="13.815905079">
      <ele>264.8</ele>
      <time>2014-05-17T13:50:25Z</time>
    </trkpt>
    <trkpt lat="45.860671923" lon="13.816451747">
      <ele>264.6</ele>
      <time>2014-05-17T13:50:30Z</time>
    </trkpt>
    <trkpt lat="45.860655997" lon="13.816566411">
      <ele>264.8</ele>
      <time>2014-05-17T13:50:31Z</time>
    </trkpt>
    <trkpt lat="45.86064091" lon="13.816676298">
      <ele>264.8</ele>
      <time>2014-05-17T13:50:32Z</time>
    </trkpt>
    <trkpt lat="45.860625152" lon="13.816786772">
      <ele>264.1</ele>
      <time>2014-05-17T13:50:33Z</time>
    </trkpt>
    <trkpt lat="45.860577878" lon="13.817091873">
      <ele>262.3</ele>
      <time>2014-05-17T13:50:36Z</time>
    </trkpt>
    <trkpt lat="45.860561114" lon="13.817185331">
      <ele>261.8</ele>
      <time>2014-05-17T13:50:37Z</time>
    </trkpt>
    <trkpt lat="45.860550385" lon="13.817276442">
      <ele>261.5</ele>
      <time>2014-05-17T13:50:38Z</time>
    </trkpt>
    <trkpt lat="45.860548541" lon="13.817375433">
      <ele>261.2</ele>
      <time>2014-05-17T13:50:39Z</time>
    </trkpt>
    <trkpt lat="45.860553067" lon="13.817476686">
      <ele>261.0</ele>
      <time>2014-05-17T13:50:40Z</time>
    </trkpt>
    <trkpt lat="45.86055533" lon="13.817690508">
      <ele>260.4</ele>
      <time>2014-05-17T13:50:42Z</time>
    </trkpt>
    <trkpt lat="45.860561617" lon="13.817803161">
      <ele>260.1</ele>
      <time>2014-05-17T13:50:43Z</time>
    </trkpt>
    <trkpt lat="45.860569831" lon="13.817915227">
      <ele>259.7</ele>
      <time>2014-05-17T13:50:44Z</time>
    </trkpt>
    <trkpt lat="45.860583661" lon="13.818026874">
      <ele>259.4</ele>
      <time>2014-05-17T13:50:45Z</time>
    </trkpt>
    <trkpt lat="45.860598413" lon="13.818147657">
      <ele>259.0</ele>
      <time>2014-05-17T13:50:46Z</time>
    </trkpt>
    <trkpt lat="45.86061459" lon="13.8182614">
      <ele>258.6</ele>
      <time>2014-05-17T13:50:47Z</time>
    </trkpt>
    <trkpt lat="45.860628672" lon="13.818374556">
      <ele>258.3</ele>
      <time>2014-05-17T13:50:48Z</time>
    </trkpt>
    <trkpt lat="45.860644765" lon="13.818482766">
      <ele>258.6</ele>
      <time>2014-05-17T13:50:49Z</time>
    </trkpt>
    <trkpt lat="45.860662283" lon="13.818586869">
      <ele>258.9</ele>
      <time>2014-05-17T13:50:50Z</time>
    </trkpt>
    <trkpt lat="45.860680724" lon="13.818687871">
      <ele>259.1</ele>
      <time>2014-05-17T13:50:51Z</time>
    </trkpt>
    <trkpt lat="45.860701595" lon="13.818787197">
      <ele>259.4</ele>
      <time>2014-05-17T13:50:52Z</time>
    </trkpt>
    <trkpt lat="45.860732105" lon="13.818877051">
      <ele>259.8</ele>
      <time>2014-05-17T13:50:53Z</time>
    </trkpt>
    <trkpt lat="45.860766973" lon="13.818953913">
      <ele>260.1</ele>
      <time>2014-05-17T13:50:54Z</time>
    </trkpt>
    <trkpt lat="45.860805865" lon="13.819031864">
      <ele>260.4</ele>
      <time>2014-05-17T13:50:55Z</time>
    </trkpt>
    <trkpt lat="45.860845344" lon="13.819115516">
      <ele>260.5</ele>
      <time>2014-05-17T13:50:56Z</time>
    </trkpt>
    <trkpt lat="45.86088541" lon="13.819199335">
      <ele>260.1</ele>
      <time>2014-05-17T13:50:57Z</time>
    </trkpt>
    <trkpt lat="45.861021364" lon="13.819429586">
      <ele>260.0</ele>
      <time>2014-05-17T13:51:00Z</time>
    </trkpt>
    <trkpt lat="45.861069392" lon="13.819500413">
      <ele>259.9</ele>
      <time>2014-05-17T13:51:01Z</time>
    </trkpt>
    <trkpt lat="45.861122785" lon="13.819561852">
      <ele>259.6</ele>
      <time>2014-05-17T13:51:02Z</time>
    </trkpt>
    <trkpt lat="45.86118171" lon="13.8196103">
      <ele>259.0</ele>
      <time>2014-05-17T13:51:03Z</time>
    </trkpt>
    <trkpt lat="45.861246251" lon="13.81964433">
      <ele>258.0</ele>
      <time>2014-05-17T13:51:04Z</time>
    </trkpt>
    <trkpt lat="45.861378685" lon="13.819696549">
      <ele>255.9</ele>
      <time>2014-05-17T13:51:06Z</time>
    </trkpt>
    <trkpt lat="45.861445824" lon="13.81971918">
      <ele>254.8</ele>
      <time>2014-05-17T13:51:07Z</time>
    </trkpt>
    <trkpt lat="45.861509778" lon="13.819731418">
      <ele>253.6</ele>
      <time>2014-05-17T13:51:08Z</time>
    </trkpt>
    <trkpt lat="45.861569876" lon="13.819727143">
      <ele>252.2</ele>
      <time>2014-05-17T13:51:09Z</time>
    </trkpt>
    <trkpt lat="45.861626118" lon="13.81970929">
      <ele>250.7</ele>
      <time>2014-05-17T13:51:10Z</time>
    </trkpt>
    <trkpt lat="45.861671548" lon="13.819693364">
      <ele>249.4</ele>
      <time>2014-05-17T13:51:11Z</time>
    </trkpt>
    <trkpt lat="45.861713877" lon="13.8196823">
      <ele>248.5</ele>
      <time>2014-05-17T13:51:12Z</time>
    </trkpt>
    <trkpt lat="45.861756625" lon="13.819682887">
      <ele>247.8</ele>
      <time>2014-05-17T13:51:13Z</time>
    </trkpt>
    <trkpt lat="45.861797528" lon="13.819696801">
      <ele>247.4</ele>
      <time>2014-05-17T13:51:14Z</time>
    </trkpt>
    <trkpt lat="45.861841198" lon="13.819710715">
      <ele>246.9</ele>
      <time>2014-05-17T13:51:15Z</time>
    </trkpt>
    <trkpt lat="45.861893333" lon="13.81972136">
      <ele>246.3</ele>
      <time>2014-05-17T13:51:16Z</time>
    </trkpt>
    <trkpt lat="45.861949744" lon="13.819722869">
      <ele>245.4</ele>
      <time>2014-05-17T13:51:17Z</time>
    </trkpt>
    <trkpt lat="45.862010848" lon="13.8197196">
      <ele>244.3</ele>
      <time>2014-05-17T13:51:18Z</time>
    </trkpt>
    <trkpt lat="45.862071533" lon="13.819713062">
      <ele>243.2</ele>
      <time>2014-05-17T13:51:19Z</time>
    </trkpt>
    <trkpt lat="45.862132134" lon="13.819710128">
      <ele>242.2</ele>
      <time>2014-05-17T13:51:20Z</time>
    </trkpt>
    <trkpt lat="45.862189718" lon="13.819710799">
      <ele>241.2</ele>
      <time>2014-05-17T13:51:21Z</time>
    </trkpt>
    <trkpt lat="45.862246379" lon="13.819721695">
      <ele>240.5</ele>
      <time>2014-05-17T13:51:22Z</time>
    </trkpt>
    <trkpt lat="45.862293905" lon="13.81974265">
      <ele>240.1</ele>
      <time>2014-05-17T13:51:23Z</time>
    </trkpt>
    <trkpt lat="45.862334808" lon="13.819788247">
      <ele>240.2</ele>
      <time>2014-05-17T13:51:24Z</time>
    </trkpt>
    <trkpt lat="45.862372192" lon="13.81983418">
      <ele>240.3</ele>
      <time>2014-05-17T13:51:25Z</time>
    </trkpt>
    <trkpt lat="45.862408653" lon="13.819860164">
      <ele>240.2</ele>
      <time>2014-05-17T13:51:26Z</time>
    </trkpt>
    <trkpt lat="45.862448048" lon="13.81985765">
      <ele>239.5</ele>
      <time>2014-05-17T13:51:27Z</time>
    </trkpt>
    <trkpt lat="45.862488868" lon="13.819823116">
      <ele>238.2</ele>
      <time>2014-05-17T13:51:28Z</time>
    </trkpt>
    <trkpt lat="45.862530861" lon="13.819757318">
      <ele>236.4</ele>
      <time>2014-05-17T13:51:29Z</time>
    </trkpt>
    <trkpt lat="45.862569753" lon="13.819679618">
      <ele>234.5</ele>
      <time>2014-05-17T13:51:30Z</time>
    </trkpt>
    <trkpt lat="45.862612417" lon="13.819586243">
      <ele>232.4</ele>
      <time>2014-05-17T13:51:31Z</time>
    </trkpt>
    <trkpt lat="45.862653824" lon="13.819500329">
      <ele>230.7</ele>
      <time>2014-05-17T13:51:32Z</time>
    </trkpt>
    <trkpt lat="45.862698667" lon="13.81942464">
      <ele>229.2</ele>
      <time>2014-05-17T13:51:33Z</time>
    </trkpt>
    <trkpt lat="45.862741666" lon="13.81935834">
      <ele>228.0</ele>
      <time>2014-05-17T13:51:34Z</time>
    </trkpt>
    <trkpt lat="45.862781899" lon="13.819317436">
      <ele>227.2</ele>
      <time>2014-05-17T13:51:35Z</time>
    </trkpt>
    <trkpt lat="45.862822384" lon="13.819316011">
      <ele>226.9</ele>
      <time>2014-05-17T13:51:36Z</time>
    </trkpt>
    <trkpt lat="45.862859096" lon="13.819330847">
      <ele>226.7</ele>
      <time>2014-05-17T13:51:37Z</time>
    </trkpt>
    <trkpt lat="45.862890026" lon="13.819361106">
      <ele>226.6</ele>
      <time>2014-05-17T13:51:38Z</time>
    </trkpt>
    <trkpt lat="45.862916932" lon="13.819415085">
      <ele>226.8</ele>
      <time>2014-05-17T13:51:39Z</time>
    </trkpt>
    <trkpt lat="45.86294367" lon="13.819477865">
      <ele>226.9</ele>
      <time>2014-05-17T13:51:40Z</time>
    </trkpt>
    <trkpt lat="45.862967474" lon="13.819536455">
      <ele>227.0</ele>
      <time>2014-05-17T13:51:41Z</time>
    </trkpt>
    <trkpt lat="45.862990776" lon="13.819588255">
      <ele>227.0</ele>
      <time>2014-05-17T13:51:42Z</time>
    </trkpt>
    <trkpt lat="45.863015" lon="13.819619436">
      <ele>226.8</ele>
      <time>2014-05-17T13:51:43Z</time>
    </trkpt>
    <trkpt lat="45.863055903" lon="13.819641145">
      <ele>226.2</ele>
      <time>2014-05-17T13:51:44Z</time>
    </trkpt>
    <trkpt lat="45.863098986" lon="13.819645336">
      <ele>225.6</ele>
      <time>2014-05-17T13:51:45Z</time>
    </trkpt>
    <trkpt lat="45.863146344" lon="13.819633685">
      <ele>224.8</ele>
      <time>2014-05-17T13:51:46Z</time>
    </trkpt>
    <trkpt lat="45.863196133" lon="13.819614239">
      <ele>224.0</ele>
      <time>2014-05-17T13:51:47Z</time>
    </trkpt>
    <trkpt lat="45.863259919" lon="13.819574341">
      <ele>223.1</ele>
      <time>2014-05-17T13:51:48Z</time>
    </trkpt>
    <trkpt lat="45.863341223" lon="13.819502676">
      <ele>222.0</ele>
      <time>2014-05-17T13:51:49Z</time>
    </trkpt>
    <trkpt lat="45.863413308" lon="13.819413073">
      <ele>220.4</ele>
      <time>2014-05-17T13:51:50Z</time>
    </trkpt>
    <trkpt lat="45.863473238" lon="13.81931006">
      <ele>219.0</ele>
      <time>2014-05-17T13:51:51Z</time>
    </trkpt>
    <trkpt lat="45.863530822" lon="13.819195228">
      <ele>217.7</ele>
      <time>2014-05-17T13:51:52Z</time>
    </trkpt>
    <trkpt lat="45.863585807" lon="13.819074444">
      <ele>215.0</ele>
      <time>2014-05-17T13:51:53Z</time>
    </trkpt>
    <trkpt lat="45.863635093" lon="13.818953242">
      <ele>212.0</ele>
      <time>2014-05-17T13:51:54Z</time>
    </trkpt>
    <trkpt lat="45.863679182" lon="13.818829525">
      <ele>209.3</ele>
      <time>2014-05-17T13:51:55Z</time>
    </trkpt>
    <trkpt lat="45.863720337" lon="13.818732798">
      <ele>207.1</ele>
      <time>2014-05-17T13:51:56Z</time>
    </trkpt>
    <trkpt lat="45.863741208" lon="13.818638334">
      <ele>205.5</ele>
      <time>2014-05-17T13:51:57Z</time>
    </trkpt>
    <trkpt lat="45.863735927" lon="13.818536745">
      <ele>204.3</ele>
      <time>2014-05-17T13:51:58Z</time>
    </trkpt>
    <trkpt lat="45.86371623" lon="13.818445802">
      <ele>203.5</ele>
      <time>2014-05-17T13:51:59Z</time>
    </trkpt>
    <trkpt lat="45.863694856" lon="13.81835687">
      <ele>202.7</ele>
      <time>2014-05-17T13:52:00Z</time>
    </trkpt>
    <trkpt lat="45.86367256" lon="13.81826886">
      <ele>202.3</ele>
      <time>2014-05-17T13:52:01Z</time>
    </trkpt>
    <trkpt lat="45.863639452" lon="13.818180934">
      <ele>202.2</ele>
      <time>2014-05-17T13:52:02Z</time>
    </trkpt>
    <trkpt lat="45.863596201" lon="13.818092672">
      <ele>202.3</ele>
      <time>2014-05-17T13:52:03Z</time>
    </trkpt>
    <trkpt lat="45.863542557" lon="13.818018325">
      <ele>202.6</ele>
      <time>2014-05-17T13:52:04Z</time>
    </trkpt>
    <trkpt lat="45.863506934" lon="13.817952359">
      <ele>202.6</ele>
      <time>2014-05-17T13:52:05Z</time>
    </trkpt>
    <trkpt lat="45.863490338" lon="13.817885974">
      <ele>202.4</ele>
      <time>2014-05-17T13:52:06Z</time>
    </trkpt>
    <trkpt lat="45.863497462" lon="13.817838533">
      <ele>202.0</ele>
      <time>2014-05-17T13:52:07Z</time>
    </trkpt>
    <trkpt lat="45.863513304" lon="13.817799892">
      <ele>201.5</ele>
      <time>2014-05-17T13:52:08Z</time>
    </trkpt>
    <trkpt lat="45.863530822" lon="13.817758653">
      <ele>200.9</ele>
      <time>2014-05-17T13:52:09Z</time>
    </trkpt>
    <trkpt lat="45.86354834" lon="13.817712469">
      <ele>200.4</ele>
      <time>2014-05-17T13:52:10Z</time>
    </trkpt>
    <trkpt lat="45.863561668" lon="13.817682546">
      <ele>200.0</ele>
      <time>2014-05-17T13:52:11Z</time>
    </trkpt>
    <trkpt lat="45.863584299" lon="13.817663267">
      <ele>199.5</ele>
      <time>2014-05-17T13:52:12Z</time>
    </trkpt>
    <trkpt lat="45.863639535" lon="13.817668715">
      <ele>198.7</ele>
      <time>2014-05-17T13:52:13Z</time>
    </trkpt>
    <trkpt lat="45.863726037" lon="13.817678271">
      <ele>197.5</ele>
      <time>2014-05-17T13:52:14Z</time>
    </trkpt>
    <trkpt lat="45.863808347" lon="13.817650443">
      <ele>196.1</ele>
      <time>2014-05-17T13:52:15Z</time>
    </trkpt>
    <trkpt lat="45.863894094" lon="13.817612724">
      <ele>194.6</ele>
      <time>2014-05-17T13:52:16Z</time>
    </trkpt>
    <trkpt lat="45.86398093" lon="13.817590261">
      <ele>193.2</ele>
      <time>2014-05-17T13:52:17Z</time>
    </trkpt>
    <trkpt lat="45.86414136" lon="13.817528486">
      <ele>190.5</ele>
      <time>2014-05-17T13:52:19Z</time>
    </trkpt>
    <trkpt lat="45.86427371" lon="13.817382976">
      <ele>188.7</ele>
      <time>2014-05-17T13:52:21Z</time>
    </trkpt>
    <trkpt lat="45.864439588" lon="13.817163119">
      <ele>186.3</ele>
      <time>2014-05-17T13:52:24Z</time>
    </trkpt>
    <trkpt lat="45.864488035" lon="13.817089107">
      <ele>185.5</ele>
      <time>2014-05-17T13:52:25Z</time>
    </trkpt>
    <trkpt lat="45.864532292" lon="13.817013586">
      <ele>184.7</ele>
      <time>2014-05-17T13:52:26Z</time>
    </trkpt>
    <trkpt lat="45.864569675" lon="13.816947453">
      <ele>184.1</ele>
      <time>2014-05-17T13:52:27Z</time>
    </trkpt>
    <trkpt lat="45.864581242" lon="13.816848882">
      <ele>183.8</ele>
      <time>2014-05-17T13:52:28Z</time>
    </trkpt>
    <trkpt lat="45.864589205" lon="13.816752406">
      <ele>183.5</ele>
      <time>2014-05-17T13:52:29Z</time>
    </trkpt>
    <trkpt lat="45.86459524" lon="13.816665066">
      <ele>183.3</ele>
      <time>2014-05-17T13:52:30Z</time>
    </trkpt>
    <trkpt lat="45.864628181" lon="13.816573201">
      <ele>182.5</ele>
      <time>2014-05-17T13:52:31Z</time>
    </trkpt>
    <trkpt lat="45.864662882" lon="13.816483011">
      <ele>181.7</ele>
      <time>2014-05-17T13:52:32Z</time>
    </trkpt>
    <trkpt lat="45.864698254" lon="13.816408664">
      <ele>180.8</ele>
      <time>2014-05-17T13:52:33Z</time>
    </trkpt>
    <trkpt lat="45.864744605" lon="13.816352421">
      <ele>179.6</ele>
      <time>2014-05-17T13:52:34Z</time>
    </trkpt>
    <trkpt lat="45.864789197" lon="13.816293413">
      <ele>178.5</ele>
      <time>2014-05-17T13:52:35Z</time>
    </trkpt>
    <trkpt lat="45.864838818" lon="13.816248653">
      <ele>177.2</ele>
      <time>2014-05-17T13:52:36Z</time>
    </trkpt>
    <trkpt lat="45.864913166" lon="13.816239182">
      <ele>175.4</ele>
      <time>2014-05-17T13:52:37Z</time>
    </trkpt>
    <trkpt lat="45.865011234" lon="13.816253096">
      <ele>173.4</ele>
      <time>2014-05-17T13:52:38Z</time>
    </trkpt>
    <trkpt lat="45.865112823" lon="13.816281846">
      <ele>172.1</ele>
      <time>2014-05-17T13:52:39Z</time>
    </trkpt>
    <trkpt lat="45.865185158" lon="13.8162883">
      <ele>171.1</ele>
      <time>2014-05-17T13:52:40Z</time>
    </trkpt>
    <trkpt lat="45.865250956" lon="13.816299113">
      <ele>170.2</ele>
      <time>2014-05-17T13:52:41Z</time>
    </trkpt>
    <trkpt lat="45.865291776" lon="13.816294251">
      <ele>169.6</ele>
      <time>2014-05-17T13:52:42Z</time>
    </trkpt>
    <trkpt lat="45.865329998" lon="13.816276314">
      <ele>169.0</ele>
      <time>2014-05-17T13:52:43Z</time>
    </trkpt>
    <trkpt lat="45.865355898" lon="13.816234488">
      <ele>168.6</ele>
      <time>2014-05-17T13:52:44Z</time>
    </trkpt>
    <trkpt lat="45.865389928" lon="13.816183275">
      <ele>168.1</ele>
      <time>2014-05-17T13:52:45Z</time>
    </trkpt>
    <trkpt lat="45.865413146" lon="13.816119991">
      <ele>167.7</ele>
      <time>2014-05-17T13:52:46Z</time>
    </trkpt>
    <trkpt lat="45.865443069" lon="13.816058217">
      <ele>167.3</ele>
      <time>2014-05-17T13:52:47Z</time>
    </trkpt>
    <trkpt lat="45.865471065" lon="13.816001806">
      <ele>167.0</ele>
      <time>2014-05-17T13:52:48Z</time>
    </trkpt>
    <trkpt lat="45.865490008" lon="13.815958556">
      <ele>166.8</ele>
      <time>2014-05-17T13:52:49Z</time>
    </trkpt>
    <trkpt lat="45.86550694" lon="13.815927459">
      <ele>166.7</ele>
      <time>2014-05-17T13:52:50Z</time>
    </trkpt>
    <trkpt lat="45.865526805" lon="13.815913294">
      <ele>166.5</ele>
      <time>2014-05-17T13:52:51Z</time>
    </trkpt>
    <trkpt lat="45.865552872" lon="13.815892003">
      <ele>166.3</ele>
      <time>2014-05-17T13:52:52Z</time>
    </trkpt>
    <trkpt lat="45.865596961" lon="13.815876581">
      <ele>165.9</ele>
      <time>2014-05-17T13:52:53Z</time>
    </trkpt>
    <trkpt lat="45.865640966" lon="13.815863002">
      <ele>165.5</ele>
      <time>2014-05-17T13:52:54Z</time>
    </trkpt>
    <trkpt lat="45.865686061" lon="13.815843891">
      <ele>165.2</ele>
      <time>2014-05-17T13:52:55Z</time>
    </trkpt>
    <trkpt lat="45.865715733" lon="13.815803155">
      <ele>165.0</ele>
      <time>2014-05-17T13:52:56Z</time>
    </trkpt>
    <trkpt lat="45.865744399" lon="13.815751439">
      <ele>164.8</ele>
      <time>2014-05-17T13:52:57Z</time>
    </trkpt>
    <trkpt lat="45.865773987" lon="13.815689916">
      <ele>164.5</ele>
      <time>2014-05-17T13:52:58Z</time>
    </trkpt>
    <trkpt lat="45.865794607" lon="13.815614646">
      <ele>164.3</ele>
      <time>2014-05-17T13:52:59Z</time>
    </trkpt>
    <trkpt lat="45.865836181" lon="13.815541137">
      <ele>164.0</ele>
      <time>2014-05-17T13:53:00Z</time>
    </trkpt>
    <trkpt lat="45.865882868" lon="13.815463437">
      <ele>163.4</ele>
      <time>2014-05-17T13:53:01Z</time>
    </trkpt>
    <trkpt lat="45.865926789" lon="13.815387748">
      <ele>162.9</ele>
      <time>2014-05-17T13:53:02Z</time>
    </trkpt>
    <trkpt lat="45.865977332" lon="13.815319939">
      <ele>162.4</ele>
      <time>2014-05-17T13:53:03Z</time>
    </trkpt>
    <trkpt lat="45.86600801" lon="13.815233354">
      <ele>162.1</ele>
      <time>2014-05-17T13:53:04Z</time>
    </trkpt>
    <trkpt lat="45.866023516" lon="13.815146014">
      <ele>162.1</ele>
      <time>2014-05-17T13:53:05Z</time>
    </trkpt>
    <trkpt lat="45.866045728" lon="13.815072337">
      <ele>161.9</ele>
      <time>2014-05-17T13:53:06Z</time>
    </trkpt>
    <trkpt lat="45.866055619" lon="13.814985165">
      <ele>162.0</ele>
      <time>2014-05-17T13:53:07Z</time>
    </trkpt>
    <trkpt lat="45.86607012" lon="13.814912913">
      <ele>162.3</ele>
      <time>2014-05-17T13:53:08Z</time>
    </trkpt>
    <trkpt lat="45.866085878" lon="13.814841416">
      <ele>162.6</ele>
      <time>2014-05-17T13:53:09Z</time>
    </trkpt>
    <trkpt lat="45.866108341" lon="13.814775199">
      <ele>162.8</ele>
      <time>2014-05-17T13:53:10Z</time>
    </trkpt>
    <trkpt lat="45.86614388" lon="13.814722057">
      <ele>162.8</ele>
      <time>2014-05-17T13:53:11Z</time>
    </trkpt>
    <trkpt lat="45.86621915" lon="13.814604459">
      <ele>162.7</ele>
      <time>2014-05-17T13:53:13Z</time>
    </trkpt>
    <trkpt lat="45.866270196" lon="13.814466912">
      <ele>163.0</ele>
      <time>2014-05-17T13:53:15Z</time>
    </trkpt>
    <trkpt lat="45.866318811" lon="13.8143209">
      <ele>163.3</ele>
      <time>2014-05-17T13:53:17Z</time>
    </trkpt>
    <trkpt lat="45.866446635" lon="13.81408738">
      <ele>162.7</ele>
      <time>2014-05-17T13:53:20Z</time>
    </trkpt>
    <trkpt lat="45.866635982" lon="13.81397523">
      <ele>160.6</ele>
      <time>2014-05-17T13:53:23Z</time>
    </trkpt>
    <trkpt lat="45.866903197" lon="13.813967099">
      <ele>160.0</ele>
      <time>2014-05-17T13:53:27Z</time>
    </trkpt>
    <trkpt lat="45.867046528" lon="13.814033568">
      <ele>160.1</ele>
      <time>2014-05-17T13:53:30Z</time>
    </trkpt>
    <trkpt lat="45.867064213" lon="13.814042117">
      <ele>160.1</ele>
      <time>2014-05-17T13:53:31Z</time>
    </trkpt>
    <trkpt lat="45.867070751" lon="13.814044381">
      <ele>160.1</ele>
      <time>2014-05-17T13:53:35Z</time>
    </trkpt>
    <trkpt lat="45.867070751" lon="13.814044381">
      <ele>160.1</ele>
      <time>2014-05-17T13:53:48Z</time>
    </trkpt>
    <trkpt lat="45.867070751" lon="13.814044381">
      <ele>160.1</ele>
      <time>2014-05-17T13:54:02Z</time>
    </trkpt>
    <trkpt lat="45.867070751" lon="13.814044381">
      <ele>160.1</ele>
      <time>2014-05-17T13:54:11Z</time>
    </trkpt>
    <trkpt lat="45.867071338" lon="13.814040022">
      <ele>160.1</ele>
      <time>2014-05-17T13:54:22Z</time>
    </trkpt>
    <trkpt lat="45.867071338" lon="13.814040022">
      <ele>160.1</ele>
      <time>2014-05-17T13:54:23Z</time>
    </trkpt>
    <trkpt lat="45.867076367" lon="13.814044297">
      <ele>160.1</ele>
      <time>2014-05-17T13:54:30Z</time>
    </trkpt>
    <trkpt lat="45.867097825" lon="13.814039687">
      <ele>160.1</ele>
      <time>2014-05-17T13:54:35Z</time>
    </trkpt>
    <trkpt lat="45.867131855" lon="13.81405008">
      <ele>160.2</ele>
      <time>2014-05-17T13:54:36Z</time>
    </trkpt>
    <trkpt lat="45.867188852" lon="13.814092996">
      <ele>160.3</ele>
      <time>2014-05-17T13:54:38Z</time>
    </trkpt>
    <trkpt lat="45.867267894" lon="13.814198943">
      <ele>160.7</ele>
      <time>2014-05-17T13:54:40Z</time>
    </trkpt>
    <trkpt lat="45.867482638" lon="13.814461129">
      <ele>161.6</ele>
      <time>2014-05-17T13:54:44Z</time>
    </trkpt>
    <trkpt lat="45.867537288" lon="13.814538242">
      <ele>161.8</ele>
      <time>2014-05-17T13:54:45Z</time>
    </trkpt>
    <trkpt lat="45.867593531" lon="13.81461435">
      <ele>162.0</ele>
      <time>2014-05-17T13:54:46Z</time>
    </trkpt>
    <trkpt lat="45.867647929" lon="13.814684087">
      <ele>162.2</ele>
      <time>2014-05-17T13:54:47Z</time>
    </trkpt>
    <trkpt lat="45.867709201" lon="13.814751813">
      <ele>162.6</ele>
      <time>2014-05-17T13:54:48Z</time>
    </trkpt>
    <trkpt lat="45.867767371" lon="13.814820293">
      <ele>163.0</ele>
      <time>2014-05-17T13:54:49Z</time>
    </trkpt>
    <trkpt lat="45.867827218" lon="13.814888187">
      <ele>163.5</ele>
      <time>2014-05-17T13:54:50Z</time>
    </trkpt>
    <trkpt lat="45.867882622" lon="13.814945016">
      <ele>164.0</ele>
      <time>2014-05-17T13:54:51Z</time>
    </trkpt>
    <trkpt lat="45.867940793" lon="13.814997571">
      <ele>164.6</ele>
      <time>2014-05-17T13:54:52Z</time>
    </trkpt>
    <trkpt lat="45.867990581" lon="13.815040737">
      <ele>164.7</ele>
      <time>2014-05-17T13:54:53Z</time>
    </trkpt>
    <trkpt lat="45.868035089" lon="13.815067979">
      <ele>164.9</ele>
      <time>2014-05-17T13:54:54Z</time>
    </trkpt>
    <trkpt lat="45.868085045" lon="13.815103769">
      <ele>165.1</ele>
      <time>2014-05-17T13:54:55Z</time>
    </trkpt>
    <trkpt lat="45.868137348" lon="13.815146098">
      <ele>165.3</ele>
      <time>2014-05-17T13:54:56Z</time>
    </trkpt>
    <trkpt lat="45.86819292" lon="13.815188259">
      <ele>165.6</ele>
      <time>2014-05-17T13:54:57Z</time>
    </trkpt>
    <trkpt lat="45.868256288" lon="13.815229582">
      <ele>165.9</ele>
      <time>2014-05-17T13:54:58Z</time>
    </trkpt>
    <trkpt lat="45.868315212" lon="13.815265372">
      <ele>166.2</ele>
      <time>2014-05-17T13:54:59Z</time>
    </trkpt>
    <trkpt lat="45.868372042" lon="13.815296805">
      <ele>166.0</ele>
      <time>2014-05-17T13:55:00Z</time>
    </trkpt>
    <trkpt lat="45.868514786" lon="13.81535464">
      <ele>165.0</ele>
      <time>2014-05-17T13:55:03Z</time>
    </trkpt>
    <trkpt lat="45.868567843" lon="13.815350449">
      <ele>164.5</ele>
      <time>2014-05-17T13:55:04Z</time>
    </trkpt>
    <trkpt lat="45.868789377" lon="13.815238886">
      <ele>162.4</ele>
      <time>2014-05-17T13:55:08Z</time>
    </trkpt>
    <trkpt lat="45.868893731" lon="13.81522472">
      <ele>161.4</ele>
      <time>2014-05-17T13:55:10Z</time>
    </trkpt>
    <trkpt lat="45.868951986" lon="13.815253554">
      <ele>161.0</ele>
      <time>2014-05-17T13:55:11Z</time>
    </trkpt>
    <trkpt lat="45.869010827" lon="13.815298397">
      <ele>160.7</ele>
      <time>2014-05-17T13:55:12Z</time>
    </trkpt>
    <trkpt lat="45.869065812" lon="13.81535355">
      <ele>160.5</ele>
      <time>2014-05-17T13:55:13Z</time>
    </trkpt>
    <trkpt lat="45.869114762" lon="13.815439129">
      <ele>160.5</ele>
      <time>2014-05-17T13:55:14Z</time>
    </trkpt>
    <trkpt lat="45.869159605" lon="13.815532839">
      <ele>160.6</ele>
      <time>2014-05-17T13:55:15Z</time>
    </trkpt>
    <trkpt lat="45.869202772" lon="13.815625207">
      <ele>160.5</ele>
      <time>2014-05-17T13:55:16Z</time>
    </trkpt>
    <trkpt lat="45.869254237" lon="13.815710954">
      <ele>160.3</ele>
      <time>2014-05-17T13:55:17Z</time>
    </trkpt>
    <trkpt lat="45.869316179" lon="13.815784128">
      <ele>159.9</ele>
      <time>2014-05-17T13:55:18Z</time>
    </trkpt>
    <trkpt lat="45.869392287" lon="13.815833665">
      <ele>159.3</ele>
      <time>2014-05-17T13:55:19Z</time>
    </trkpt>
    <trkpt lat="45.869475519" lon="13.815863589">
      <ele>158.6</ele>
      <time>2014-05-17T13:55:20Z</time>
    </trkpt>
    <trkpt lat="45.869564619" lon="13.815893177">
      <ele>157.8</ele>
      <time>2014-05-17T13:55:21Z</time>
    </trkpt>
    <trkpt lat="45.869648354" lon="13.815922597">
      <ele>157.1</ele>
      <time>2014-05-17T13:55:22Z</time>
    </trkpt>
    <trkpt lat="45.869728234" lon="13.815961741">
      <ele>156.6</ele>
      <time>2014-05-17T13:55:23Z</time>
    </trkpt>
    <trkpt lat="45.869807862" lon="13.81599661">
      <ele>156.0</ele>
      <time>2014-05-17T13:55:24Z</time>
    </trkpt>
    <trkpt lat="45.869895536" lon="13.816009182">
      <ele>155.1</ele>
      <time>2014-05-17T13:55:25Z</time>
    </trkpt>
    <trkpt lat="45.8699755" lon="13.815991497">
      <ele>154.0</ele>
      <time>2014-05-17T13:55:26Z</time>
    </trkpt>
    <trkpt lat="45.870054709" lon="13.815972637">
      <ele>152.6</ele>
      <time>2014-05-17T13:55:27Z</time>
    </trkpt>
    <trkpt lat="45.870140372" lon="13.815983366">
      <ele>151.3</ele>
      <time>2014-05-17T13:55:28Z</time>
    </trkpt>
    <trkpt lat="45.870216899" lon="13.816018738">
      <ele>150.3</ele>
      <time>2014-05-17T13:55:29Z</time>
    </trkpt>
    <trkpt lat="45.870290659" lon="13.816059139">
      <ele>149.2</ele>
      <time>2014-05-17T13:55:30Z</time>
    </trkpt>
    <trkpt lat="45.870375987" lon="13.816060983">
      <ele>147.6</ele>
      <time>2014-05-17T13:55:31Z</time>
    </trkpt>
    <trkpt lat="45.870455448" lon="13.816017229">
      <ele>146.2</ele>
      <time>2014-05-17T13:55:32Z</time>
    </trkpt>
    <trkpt lat="45.870519653" lon="13.815944726">
      <ele>145.1</ele>
      <time>2014-05-17T13:55:33Z</time>
    </trkpt>
    <trkpt lat="45.87056458" lon="13.815841544">
      <ele>144.5</ele>
      <time>2014-05-17T13:55:34Z</time>
    </trkpt>
    <trkpt lat="45.870618979" lon="13.815729897">
      <ele>143.9</ele>
      <time>2014-05-17T13:55:35Z</time>
    </trkpt>
    <trkpt lat="45.870682681" lon="13.815598218">
      <ele>143.3</ele>
      <time>2014-05-17T13:55:36Z</time>
    </trkpt>
    <trkpt lat="45.870748563" lon="13.815463688">
      <ele>143.0</ele>
      <time>2014-05-17T13:55:37Z</time>
    </trkpt>
    <trkpt lat="45.870976551" lon="13.814869914">
      <ele>140.2</ele>
      <time>2014-05-17T13:55:41Z</time>
    </trkpt>
    <trkpt lat="45.871202108" lon="13.814145382">
      <ele>136.0</ele>
      <time>2014-05-17T13:55:46Z</time>
    </trkpt>
    <trkpt lat="45.871246867" lon="13.81400113">
      <ele>135.7</ele>
      <time>2014-05-17T13:55:47Z</time>
    </trkpt>
    <trkpt lat="45.871298583" lon="13.813867019">
      <ele>135.2</ele>
      <time>2014-05-17T13:55:48Z</time>
    </trkpt>
    <trkpt lat="45.871351222" lon="13.813737771">
      <ele>134.7</ele>
      <time>2014-05-17T13:55:49Z</time>
    </trkpt>
    <trkpt lat="45.871399753" lon="13.813601481">
      <ele>134.4</ele>
      <time>2014-05-17T13:55:50Z</time>
    </trkpt>
    <trkpt lat="45.871439651" lon="13.813440045">
      <ele>134.4</ele>
      <time>2014-05-17T13:55:51Z</time>
    </trkpt>
    <trkpt lat="45.871477453" lon="13.813297804">
      <ele>134.4</ele>
      <time>2014-05-17T13:55:52Z</time>
    </trkpt>
    <trkpt lat="45.871518776" lon="13.813142739">
      <ele>134.5</ele>
      <time>2014-05-17T13:55:53Z</time>
    </trkpt>
    <trkpt lat="45.871560434" lon="13.812981807">
      <ele>134.7</ele>
      <time>2014-05-17T13:55:54Z</time>
    </trkpt>
    <trkpt lat="45.871606031" lon="13.81281903">
      <ele>134.9</ele>
      <time>2014-05-17T13:55:55Z</time>
    </trkpt>
    <trkpt lat="45.871646348" lon="13.812658517">
      <ele>135.3</ele>
      <time>2014-05-17T13:55:56Z</time>
    </trkpt>
    <trkpt lat="45.871693706" lon="13.81250144">
      <ele>135.1</ele>
      <time>2014-05-17T13:55:57Z</time>
    </trkpt>
    <trkpt lat="45.871741986" lon="13.812341765">
      <ele>134.0</ele>
      <time>2014-05-17T13:55:58Z</time>
    </trkpt>
    <trkpt lat="45.87178817" lon="13.81219089">
      <ele>132.9</ele>
      <time>2014-05-17T13:55:59Z</time>
    </trkpt>
    <trkpt lat="45.871826475" lon="13.812046805">
      <ele>132.0</ele>
      <time>2014-05-17T13:56:00Z</time>
    </trkpt>
    <trkpt lat="45.871864446" lon="13.811909845">
      <ele>131.1</ele>
      <time>2014-05-17T13:56:01Z</time>
    </trkpt>
    <trkpt lat="45.871896297" lon="13.811804736">
      <ele>130.3</ele>
      <time>2014-05-17T13:56:02Z</time>
    </trkpt>
    <trkpt lat="45.871923789" lon="13.811725108">
      <ele>129.6</ele>
      <time>2014-05-17T13:56:03Z</time>
    </trkpt>
    <trkpt lat="45.871955222" lon="13.811666183">
      <ele>128.7</ele>
      <time>2014-05-17T13:56:04Z</time>
    </trkpt>
    <trkpt lat="45.87199688" lon="13.811662914">
      <ele>127.3</ele>
      <time>2014-05-17T13:56:05Z</time>
    </trkpt>
    <trkpt lat="45.87201599" lon="13.811701387">
      <ele>126.6</ele>
      <time>2014-05-17T13:56:06Z</time>
    </trkpt>
    <trkpt lat="45.872036694" lon="13.811765509">
      <ele>125.8</ele>
      <time>2014-05-17T13:56:07Z</time>
    </trkpt>
    <trkpt lat="45.872033844" lon="13.811838347">
      <ele>125.8</ele>
      <time>2014-05-17T13:56:08Z</time>
    </trkpt>
    <trkpt lat="45.872033508" lon="13.811913617">
      <ele>125.7</ele>
      <time>2014-05-17T13:56:09Z</time>
    </trkpt>
    <trkpt lat="45.872029569" lon="13.811987713">
      <ele>125.6</ele>
      <time>2014-05-17T13:56:10Z</time>
    </trkpt>
    <trkpt lat="45.872025294" lon="13.812105395">
      <ele>125.6</ele>
      <time>2014-05-17T13:56:11Z</time>
    </trkpt>
    <trkpt lat="45.872023953" lon="13.812228441">
      <ele>125.4</ele>
      <time>2014-05-17T13:56:12Z</time>
    </trkpt>
    <trkpt lat="45.872018002" lon="13.81236448">
      <ele>125.3</ele>
      <time>2014-05-17T13:56:13Z</time>
    </trkpt>
    <trkpt lat="45.872005764" lon="13.812508732">
      <ele>125.4</ele>
      <time>2014-05-17T13:56:14Z</time>
    </trkpt>
    <trkpt lat="45.871982714" lon="13.812815761">
      <ele>124.1</ele>
      <time>2014-05-17T13:56:16Z</time>
    </trkpt>
    <trkpt lat="45.871985732" lon="13.812970826">
      <ele>123.0</ele>
      <time>2014-05-17T13:56:17Z</time>
    </trkpt>
    <trkpt lat="45.871992437" lon="13.813130837">
      <ele>121.8</ele>
      <time>2014-05-17T13:56:18Z</time>
    </trkpt>
    <trkpt lat="45.871991683" lon="13.813294871">
      <ele>120.7</ele>
      <time>2014-05-17T13:56:19Z</time>
    </trkpt>
    <trkpt lat="45.87198372" lon="13.813466448">
      <ele>119.7</ele>
      <time>2014-05-17T13:56:20Z</time>
    </trkpt>
    <trkpt lat="45.871963939" lon="13.813628806">
      <ele>119.2</ele>
      <time>2014-05-17T13:56:21Z</time>
    </trkpt>
    <trkpt lat="45.871933345" lon="13.813786805">
      <ele>119.1</ele>
      <time>2014-05-17T13:56:22Z</time>
    </trkpt>
    <trkpt lat="45.871903589" lon="13.813943714">
      <ele>119.1</ele>
      <time>2014-05-17T13:56:23Z</time>
    </trkpt>
    <trkpt lat="45.871886238" lon="13.814084614">
      <ele>118.9</ele>
      <time>2014-05-17T13:56:24Z</time>
    </trkpt>
    <trkpt lat="45.871871486" lon="13.814236578">
      <ele>118.4</ele>
      <time>2014-05-17T13:56:25Z</time>
    </trkpt>
    <trkpt lat="45.871849693" lon="13.814388374">
      <ele>118.3</ele>
      <time>2014-05-17T13:56:26Z</time>
    </trkpt>
    <trkpt lat="45.871835779" lon="13.814542014">
      <ele>117.9</ele>
      <time>2014-05-17T13:56:27Z</time>
    </trkpt>
    <trkpt lat="45.87182723" lon="13.814713508">
      <ele>117.1</ele>
      <time>2014-05-17T13:56:28Z</time>
    </trkpt>
    <trkpt lat="45.871823626" lon="13.81487947">
      <ele>116.2</ele>
      <time>2014-05-17T13:56:29Z</time>
    </trkpt>
    <trkpt lat="45.871831253" lon="13.81504342">
      <ele>114.9</ele>
      <time>2014-05-17T13:56:30Z</time>
    </trkpt>
    <trkpt lat="45.871842569" lon="13.81519991">
      <ele>113.7</ele>
      <time>2014-05-17T13:56:31Z</time>
    </trkpt>
    <trkpt lat="45.87183536" lon="13.815372996">
      <ele>113.2</ele>
      <time>2014-05-17T13:56:32Z</time>
    </trkpt>
    <trkpt lat="45.871820692" lon="13.815545328">
      <ele>113.0</ele>
      <time>2014-05-17T13:56:33Z</time>
    </trkpt>
    <trkpt lat="45.871824715" lon="13.815709529">
      <ele>112.1</ele>
      <time>2014-05-17T13:56:34Z</time>
    </trkpt>
    <trkpt lat="45.871845838" lon="13.815876748">
      <ele>110.6</ele>
      <time>2014-05-17T13:56:35Z</time>
    </trkpt>
    <trkpt lat="45.871878527" lon="13.816043213">
      <ele>108.6</ele>
      <time>2014-05-17T13:56:36Z</time>
    </trkpt>
    <trkpt lat="45.871917922" lon="13.816198613">
      <ele>106.5</ele>
      <time>2014-05-17T13:56:37Z</time>
    </trkpt>
    <trkpt lat="45.871957233" lon="13.816364324">
      <ele>104.3</ele>
      <time>2014-05-17T13:56:38Z</time>
    </trkpt>
    <trkpt lat="45.871985564" lon="13.816526849">
      <ele>102.6</ele>
      <time>2014-05-17T13:56:39Z</time>
    </trkpt>
    <trkpt lat="45.872014314" lon="13.816681327">
      <ele>100.8</ele>
      <time>2014-05-17T13:56:40Z</time>
    </trkpt>
    <trkpt lat="45.872017331" lon="13.816804541">
      <ele>100.2</ele>
      <time>2014-05-17T13:56:41Z</time>
    </trkpt>
    <trkpt lat="45.872014984" lon="13.81691929">
      <ele>99.8</ele>
      <time>2014-05-17T13:56:42Z</time>
    </trkpt>
    <trkpt lat="45.872017751" lon="13.817022722">
      <ele>99.2</ele>
      <time>2014-05-17T13:56:43Z</time>
    </trkpt>
    <trkpt lat="45.872032838" lon="13.817097405">
      <ele>98.5</ele>
      <time>2014-05-17T13:56:44Z</time>
    </trkpt>
    <trkpt lat="45.872071395" lon="13.81714887">
      <ele>97.1</ele>
      <time>2014-05-17T13:56:45Z</time>
    </trkpt>
    <trkpt lat="45.87212068" lon="13.817184828">
      <ele>95.6</ele>
      <time>2014-05-17T13:56:46Z</time>
    </trkpt>
    <trkpt lat="45.872172732" lon="13.817170411">
      <ele>94.1</ele>
      <time>2014-05-17T13:56:47Z</time>
    </trkpt>
    <trkpt lat="45.872211708" lon="13.817112911">
      <ele>93.1</ele>
      <time>2014-05-17T13:56:48Z</time>
    </trkpt>
    <trkpt lat="45.872237356" lon="13.817043593">
      <ele>92.5</ele>
      <time>2014-05-17T13:56:49Z</time>
    </trkpt>
    <trkpt lat="45.872216234" lon="13.816930354">
      <ele>93.3</ele>
      <time>2014-05-17T13:56:50Z</time>
    </trkpt>
    <trkpt lat="45.872207265" lon="13.816818791">
      <ele>93.9</ele>
      <time>2014-05-17T13:56:51Z</time>
    </trkpt>
    <trkpt lat="45.872201649" lon="13.816696415">
      <ele>94.3</ele>
      <time>2014-05-17T13:56:52Z</time>
    </trkpt>
    <trkpt lat="45.872201314" lon="13.816562388">
      <ele>94.9</ele>
      <time>2014-05-17T13:56:53Z</time>
    </trkpt>
    <trkpt lat="45.872219" lon="13.816423835">
      <ele>94.9</ele>
      <time>2014-05-17T13:56:54Z</time>
    </trkpt>
    <trkpt lat="45.872245487" lon="13.816279918">
      <ele>94.7</ele>
      <time>2014-05-17T13:56:55Z</time>
    </trkpt>
    <trkpt lat="45.872281529" lon="13.816131139">
      <ele>94.2</ele>
      <time>2014-05-17T13:56:56Z</time>
    </trkpt>
    <trkpt lat="45.872316565" lon="13.815979511">
      <ele>93.7</ele>
      <time>2014-05-17T13:56:57Z</time>
    </trkpt>
    <trkpt lat="45.872347411" lon="13.815816566">
      <ele>93.3</ele>
      <time>2014-05-17T13:56:58Z</time>
    </trkpt>
    <trkpt lat="45.872378927" lon="13.815661585">
      <ele>92.2</ele>
      <time>2014-05-17T13:56:59Z</time>
    </trkpt>
    <trkpt lat="45.872408515" lon="13.8155175">
      <ele>91.1</ele>
      <time>2014-05-17T13:57:00Z</time>
    </trkpt>
    <trkpt lat="45.872449335" lon="13.815378025">
      <ele>89.4</ele>
      <time>2014-05-17T13:57:01Z</time>
    </trkpt>
    <trkpt lat="45.872499878" lon="13.815240897">
      <ele>87.3</ele>
      <time>2014-05-17T13:57:02Z</time>
    </trkpt>
    <trkpt lat="45.872567268" lon="13.815118186">
      <ele>86.1</ele>
      <time>2014-05-17T13:57:03Z</time>
    </trkpt>
    <trkpt lat="45.8726303" lon="13.814990781">
      <ele>85.0</ele>
      <time>2014-05-17T13:57:04Z</time>
    </trkpt>
    <trkpt lat="45.872683441" lon="13.814866897">
      <ele>85.0</ele>
      <time>2014-05-17T13:57:05Z</time>
    </trkpt>
    <trkpt lat="45.87273851" lon="13.814740833">
      <ele>84.8</ele>
      <time>2014-05-17T13:57:06Z</time>
    </trkpt>
    <trkpt lat="45.872776899" lon="13.814622564">
      <ele>84.8</ele>
      <time>2014-05-17T13:57:07Z</time>
    </trkpt>
    <trkpt lat="45.872809673" lon="13.814514354">
      <ele>84.7</ele>
      <time>2014-05-17T13:57:08Z</time>
    </trkpt>
    <trkpt lat="45.87283859" lon="13.814424835">
      <ele>84.6</ele>
      <time>2014-05-17T13:57:09Z</time>
    </trkpt>
    <trkpt lat="45.872864742" lon="13.814369347">
      <ele>84.3</ele>
      <time>2014-05-17T13:57:10Z</time>
    </trkpt>
    <trkpt lat="45.872884272" lon="13.814349985">
      <ele>83.9</ele>
      <time>2014-05-17T13:57:11Z</time>
    </trkpt>
    <trkpt lat="45.872900784" lon="13.814367922">
      <ele>83.5</ele>
      <time>2014-05-17T13:57:12Z</time>
    </trkpt>
    <trkpt lat="45.872902209" lon="13.81439751">
      <ele>83.3</ele>
      <time>2014-05-17T13:57:13Z</time>
    </trkpt>
    <trkpt lat="45.87290246" lon="13.814443946">
      <ele>83.1</ele>
      <time>2014-05-17T13:57:14Z</time>
    </trkpt>
    <trkpt lat="45.872891815" lon="13.814498344">
      <ele>83.1</ele>
      <time>2014-05-17T13:57:15Z</time>
    </trkpt>
    <trkpt lat="45.872875974" lon="13.814567579">
      <ele>83.1</ele>
      <time>2014-05-17T13:57:16Z</time>
    </trkpt>
    <trkpt lat="45.872864155" lon="13.814648297">
      <ele>83.0</ele>
      <time>2014-05-17T13:57:17Z</time>
    </trkpt>
    <trkpt lat="45.872804224" lon="13.815093627">
      <ele>82.2</ele>
      <time>2014-05-17T13:57:21Z</time>
    </trkpt>
    <trkpt lat="45.872772289" lon="13.815589165">
      <ele>82.8</ele>
      <time>2014-05-17T13:57:25Z</time>
    </trkpt>
    <trkpt lat="45.872797938" lon="13.81569922">
      <ele>82.3</ele>
      <time>2014-05-17T13:57:26Z</time>
    </trkpt>
    <trkpt lat="45.872840099" lon="13.815810699">
      <ele>81.5</ele>
      <time>2014-05-17T13:57:27Z</time>
    </trkpt>
    <trkpt lat="45.872899275" lon="13.815910444">
      <ele>80.1</ele>
      <time>2014-05-17T13:57:28Z</time>
    </trkpt>
    <trkpt lat="45.872969013" lon="13.816010859">
      <ele>78.4</ele>
      <time>2014-05-17T13:57:29Z</time>
    </trkpt>
    <trkpt lat="45.873036487" lon="13.816112196">
      <ele>76.8</ele>
      <time>2014-05-17T13:57:30Z</time>
    </trkpt>
    <trkpt lat="45.873104967" lon="13.816215545">
      <ele>75.2</ele>
      <time>2014-05-17T13:57:31Z</time>
    </trkpt>
    <trkpt lat="45.873392131" lon="13.816631706">
      <ele>70.1</ele>
      <time>2014-05-17T13:57:35Z</time>
    </trkpt>
    <trkpt lat="45.873636715" lon="13.817017525">
      <ele>70.6</ele>
      <time>2014-05-17T13:57:39Z</time>
    </trkpt>
    <trkpt lat="45.873838803" lon="13.817281052">
      <ele>70.9</ele>
      <time>2014-05-17T13:58:02Z</time>
    </trkpt>
    <trkpt lat="45.874044662" lon="13.817524631">
      <ele>71.0</ele>
      <time>2014-05-17T13:58:05Z</time>
    </trkpt>
    <trkpt lat="45.874444395" lon="13.81785823">
      <ele>70.4</ele>
      <time>2014-05-17T13:58:09Z</time>
    </trkpt>
    <trkpt lat="45.874848654" lon="13.818294592">
      <ele>71.4</ele>
      <time>2014-05-17T13:58:13Z</time>
    </trkpt>
    <trkpt lat="45.87529608" lon="13.818883505">
      <ele>72.7</ele>
      <time>2014-05-17T13:58:18Z</time>
    </trkpt>
    <trkpt lat="45.875470759" lon="13.819040498">
      <ele>73.1</ele>
      <time>2014-05-17T13:58:20Z</time>
    </trkpt>
    <trkpt lat="45.875574527" lon="13.819082659">
      <ele>73.4</ele>
      <time>2014-05-17T13:58:21Z</time>
    </trkpt>
    <trkpt lat="45.875898823" lon="13.819098836">
      <ele>74.2</ele>
      <time>2014-05-17T13:58:24Z</time>
    </trkpt>
    <trkpt lat="45.876282966" lon="13.81917486">
      <ele>75.6</ele>
      <time>2014-05-17T13:58:28Z</time>
    </trkpt>
    <trkpt lat="45.876360666" lon="13.819223559">
      <ele>76.1</ele>
      <time>2014-05-17T13:58:29Z</time>
    </trkpt>
    <trkpt lat="45.876551354" lon="13.819456324">
      <ele>77.5</ele>
      <time>2014-05-17T13:58:32Z</time>
    </trkpt>
    <trkpt lat="45.87659955" lon="13.819537126">
      <ele>78.0</ele>
      <time>2014-05-17T13:58:33Z</time>
    </trkpt>
    <trkpt lat="45.876645567" lon="13.81960066">
      <ele>78.5</ele>
      <time>2014-05-17T13:58:34Z</time>
    </trkpt>
    <trkpt lat="45.876688231" lon="13.819658244">
      <ele>78.9</ele>
      <time>2014-05-17T13:58:35Z</time>
    </trkpt>
    <trkpt lat="45.876729554" lon="13.819706189">
      <ele>79.2</ele>
      <time>2014-05-17T13:58:36Z</time>
    </trkpt>
    <trkpt lat="45.876778755" lon="13.81976285">
      <ele>79.7</ele>
      <time>2014-05-17T13:58:37Z</time>
    </trkpt>
    <trkpt lat="45.876829382" lon="13.819818087">
      <ele>80.1</ele>
      <time>2014-05-17T13:58:38Z</time>
    </trkpt>
    <trkpt lat="45.876892246" lon="13.819869803">
      <ele>80.6</ele>
      <time>2014-05-17T13:58:39Z</time>
    </trkpt>
    <trkpt lat="45.877019567" lon="13.819951359">
      <ele>81.5</ele>
      <time>2014-05-17T13:58:41Z</time>
    </trkpt>
    <trkpt lat="45.877091568" lon="13.819984132">
      <ele>82.0</ele>
      <time>2014-05-17T13:58:42Z</time>
    </trkpt>
    <trkpt lat="45.877168179" lon="13.82001766">
      <ele>82.4</ele>
      <time>2014-05-17T13:58:43Z</time>
    </trkpt>
    <trkpt lat="45.877242526" lon="13.820053115">
      <ele>82.7</ele>
      <time>2014-05-17T13:58:44Z</time>
    </trkpt>
    <trkpt lat="45.877317041" lon="13.82009645">
      <ele>83.1</ele>
      <time>2014-05-17T13:58:45Z</time>
    </trkpt>
    <trkpt lat="45.877390215" lon="13.820148082">
      <ele>83.4</ele>
      <time>2014-05-17T13:58:46Z</time>
    </trkpt>
    <trkpt lat="45.877462467" lon="13.820213042">
      <ele>83.8</ele>
      <time>2014-05-17T13:58:47Z</time>
    </trkpt>
    <trkpt lat="45.877534552" lon="13.820291078">
      <ele>84.2</ele>
      <time>2014-05-17T13:58:48Z</time>
    </trkpt>
    <trkpt lat="45.877604708" lon="13.820376908">
      <ele>84.6</ele>
      <time>2014-05-17T13:58:49Z</time>
    </trkpt>
    <trkpt lat="45.877682995" lon="13.820452094">
      <ele>85.1</ele>
      <time>2014-05-17T13:58:50Z</time>
    </trkpt>
    <trkpt lat="45.877772095" lon="13.820515042">
      <ele>85.6</ele>
      <time>2014-05-17T13:58:51Z</time>
    </trkpt>
    <trkpt lat="45.877863625" lon="13.82056064">
      <ele>86.2</ele>
      <time>2014-05-17T13:58:52Z</time>
    </trkpt>
    <trkpt lat="45.87795591" lon="13.820599783">
      <ele>86.7</ele>
      <time>2014-05-17T13:58:53Z</time>
    </trkpt>
    <trkpt lat="45.87805314" lon="13.82063482">
      <ele>87.3</ele>
      <time>2014-05-17T13:58:54Z</time>
    </trkpt>
    <trkpt lat="45.878151124" lon="13.820669437">
      <ele>87.9</ele>
      <time>2014-05-17T13:58:55Z</time>
    </trkpt>
    <trkpt lat="45.878247768" lon="13.820702545">
      <ele>88.5</ele>
      <time>2014-05-17T13:58:56Z</time>
    </trkpt>
    <trkpt lat="45.878345249" lon="13.820738923">
      <ele>89.1</ele>
      <time>2014-05-17T13:58:57Z</time>
    </trkpt>
    <trkpt lat="45.878446" lon="13.820780832">
      <ele>89.7</ele>
      <time>2014-05-17T13:58:58Z</time>
    </trkpt>
    <trkpt lat="45.878544236" lon="13.820824921">
      <ele>90.3</ele>
      <time>2014-05-17T13:58:59Z</time>
    </trkpt>
    <trkpt lat="45.878639119" lon="13.820872363">
      <ele>90.8</ele>
      <time>2014-05-17T13:59:00Z</time>
    </trkpt>
    <trkpt lat="45.878733667" lon="13.820923325">
      <ele>91.4</ele>
      <time>2014-05-17T13:59:01Z</time>
    </trkpt>
    <trkpt lat="45.878827292" lon="13.82097831">
      <ele>92.0</ele>
      <time>2014-05-17T13:59:02Z</time>
    </trkpt>
    <trkpt lat="45.878923098" lon="13.821033463">
      <ele>92.5</ele>
      <time>2014-05-17T13:59:03Z</time>
    </trkpt>
    <trkpt lat="45.879021836" lon="13.821083754">
      <ele>93.1</ele>
      <time>2014-05-17T13:59:04Z</time>
    </trkpt>
    <trkpt lat="45.879118983" lon="13.821127592">
      <ele>93.7</ele>
      <time>2014-05-17T13:59:05Z</time>
    </trkpt>
    <trkpt lat="45.879214201" lon="13.82116992">
      <ele>94.0</ele>
      <time>2014-05-17T13:59:06Z</time>
    </trkpt>
    <trkpt lat="45.879314784" lon="13.82120789">
      <ele>94.1</ele>
      <time>2014-05-17T13:59:07Z</time>
    </trkpt>
    <trkpt lat="45.879415032" lon="13.82123488">
      <ele>94.2</ele>
      <time>2014-05-17T13:59:08Z</time>
    </trkpt>
    <trkpt lat="45.879623238" lon="13.82125969">
      <ele>94.3</ele>
      <time>2014-05-17T13:59:10Z</time>
    </trkpt>
    <trkpt lat="45.879950048" lon="13.821263965">
      <ele>94.5</ele>
      <time>2014-05-17T13:59:13Z</time>
    </trkpt>
    <trkpt lat="45.880076699" lon="13.82126539">
      <ele>94.7</ele>
      <time>2014-05-17T13:59:14Z</time>
    </trkpt>
    <trkpt lat="45.880198656" lon="13.821265977">
      <ele>95.0</ele>
      <time>2014-05-17T13:59:15Z</time>
    </trkpt>
    <trkpt lat="45.880319858" lon="13.82126254">
      <ele>95.3</ele>
      <time>2014-05-17T13:59:16Z</time>
    </trkpt>
    <trkpt lat="45.880437875" lon="13.821256757">
      <ele>95.6</ele>
      <time>2014-05-17T13:59:17Z</time>
    </trkpt>
    <trkpt lat="45.880767116" lon="13.821220966">
      <ele>96.3</ele>
      <time>2014-05-17T13:59:20Z</time>
    </trkpt>
    <trkpt lat="45.881133573" lon="13.821177799">
      <ele>96.4</ele>
      <time>2014-05-17T13:59:24Z</time>
    </trkpt>
    <trkpt lat="45.881597763" lon="13.821229013">
      <ele>96.5</ele>
      <time>2014-05-17T13:59:29Z</time>
    </trkpt>
    <trkpt lat="45.881707231" lon="13.82124804">
      <ele>96.5</ele>
      <time>2014-05-17T13:59:30Z</time>
    </trkpt>
    <trkpt lat="45.88182047" lon="13.821269413">
      <ele>96.4</ele>
      <time>2014-05-17T13:59:31Z</time>
    </trkpt>
    <trkpt lat="45.881935721" lon="13.821291542">
      <ele>96.4</ele>
      <time>2014-05-17T13:59:32Z</time>
    </trkpt>
    <trkpt lat="45.882055666" lon="13.821315933">
      <ele>96.4</ele>
      <time>2014-05-17T13:59:33Z</time>
    </trkpt>
    <trkpt lat="45.882175276" lon="13.821341498">
      <ele>96.4</ele>
      <time>2014-05-17T13:59:34Z</time>
    </trkpt>
    <trkpt lat="45.882778438" lon="13.82149321">
      <ele>96.7</ele>
      <time>2014-05-17T13:59:39Z</time>
    </trkpt>
    <trkpt lat="45.883121258" lon="13.821597062">
      <ele>97.0</ele>
      <time>2014-05-17T13:59:42Z</time>
    </trkpt>
    <trkpt lat="45.883689802" lon="13.821828654">
      <ele>97.0</ele>
      <time>2014-05-17T13:59:47Z</time>
    </trkpt>
    <trkpt lat="45.883901529" lon="13.821923621">
      <ele>96.9</ele>
      <time>2014-05-17T13:59:49Z</time>
    </trkpt>
    <trkpt lat="45.884388266" lon="13.822134007">
      <ele>97.7</ele>
      <time>2014-05-17T13:59:54Z</time>
    </trkpt>
    <trkpt lat="45.884477114" lon="13.822178347">
      <ele>98.1</ele>
      <time>2014-05-17T13:59:55Z</time>
    </trkpt>
    <trkpt lat="45.884562694" lon="13.822228303">
      <ele>98.5</ele>
      <time>2014-05-17T13:59:56Z</time>
    </trkpt>
    <trkpt lat="45.884646932" lon="13.822281444">
      <ele>98.9</ele>
      <time>2014-05-17T13:59:57Z</time>
    </trkpt>
    <trkpt lat="45.884734523" lon="13.822331233">
      <ele>99.4</ele>
      <time>2014-05-17T13:59:58Z</time>
    </trkpt>
    <trkpt lat="45.884999475" lon="13.822459979">
      <ele>101.0</ele>
      <time>2014-05-17T14:00:01Z</time>
    </trkpt>
    <trkpt lat="45.885083042" lon="13.822477581">
      <ele>101.2</ele>
      <time>2014-05-17T14:00:02Z</time>
    </trkpt>
    <trkpt lat="45.885254536" lon="13.822462577">
      <ele>101.7</ele>
      <time>2014-05-17T14:00:04Z</time>
    </trkpt>
    <trkpt lat="45.885437932" lon="13.822216904">
      <ele>102.4</ele>
      <time>2014-05-17T14:00:07Z</time>
    </trkpt>
    <trkpt lat="45.885468023" lon="13.821810046">
      <ele>103.0</ele>
      <time>2014-05-17T14:00:10Z</time>
    </trkpt>
    <trkpt lat="45.885471124" lon="13.821660848">
      <ele>103.1</ele>
      <time>2014-05-17T14:00:11Z</time>
    </trkpt>
    <trkpt lat="45.885473136" lon="13.82150461">
      <ele>103.2</ele>
      <time>2014-05-17T14:00:12Z</time>
    </trkpt>
    <trkpt lat="45.885475902" lon="13.821354406">
      <ele>103.2</ele>
      <time>2014-05-17T14:00:13Z</time>
    </trkpt>
    <trkpt lat="45.88548244" lon="13.821204789">
      <ele>103.2</ele>
      <time>2014-05-17T14:00:14Z</time>
    </trkpt>
    <trkpt lat="45.88549342" lon="13.821049388">
      <ele>103.3</ele>
      <time>2014-05-17T14:00:15Z</time>
    </trkpt>
    <trkpt lat="45.885593835" lon="13.820480844">
      <ele>103.0</ele>
      <time>2014-05-17T14:00:19Z</time>
    </trkpt>
    <trkpt lat="45.885697016" lon="13.820224609">
      <ele>102.9</ele>
      <time>2014-05-17T14:00:21Z</time>
    </trkpt>
    <trkpt lat="45.885834731" lon="13.819989916">
      <ele>103.0</ele>
      <time>2014-05-17T14:00:23Z</time>
    </trkpt>
    <trkpt lat="45.885915449" lon="13.819916407">
      <ele>102.9</ele>
      <time>2014-05-17T14:00:24Z</time>
    </trkpt>
    <trkpt lat="45.886000609" lon="13.819889249">
      <ele>103.0</ele>
      <time>2014-05-17T14:00:25Z</time>
    </trkpt>
    <trkpt lat="45.886090379" lon="13.819913724">
      <ele>103.2</ele>
      <time>2014-05-17T14:00:26Z</time>
    </trkpt>
    <trkpt lat="45.886176545" lon="13.81997508">
      <ele>103.4</ele>
      <time>2014-05-17T14:00:27Z</time>
    </trkpt>
    <trkpt lat="45.886266734" lon="13.820035178">
      <ele>103.6</ele>
      <time>2014-05-17T14:00:28Z</time>
    </trkpt>
    <trkpt lat="45.8864622" lon="13.820155542">
      <ele>104.1</ele>
      <time>2014-05-17T14:00:30Z</time>
    </trkpt>
    <trkpt lat="45.886561023" lon="13.820215305">
      <ele>104.4</ele>
      <time>2014-05-17T14:00:31Z</time>
    </trkpt>
    <trkpt lat="45.886661438" lon="13.820276661">
      <ele>104.7</ele>
      <time>2014-05-17T14:00:32Z</time>
    </trkpt>
    <trkpt lat="45.886762021" lon="13.820340615">
      <ele>105.4</ele>
      <time>2014-05-17T14:00:33Z</time>
    </trkpt>
    <trkpt lat="45.886866124" lon="13.820401886">
      <ele>106.2</ele>
      <time>2014-05-17T14:00:34Z</time>
    </trkpt>
    <trkpt lat="45.886973077" lon="13.82046584">
      <ele>106.9</ele>
      <time>2014-05-17T14:00:35Z</time>
    </trkpt>
    <trkpt lat="45.887081875" lon="13.820528956">
      <ele>107.6</ele>
      <time>2014-05-17T14:00:36Z</time>
    </trkpt>
    <trkpt lat="45.887190672" lon="13.820591485">
      <ele>108.3</ele>
      <time>2014-05-17T14:00:37Z</time>
    </trkpt>
    <trkpt lat="45.887292093" lon="13.820651751">
      <ele>108.9</ele>
      <time>2014-05-17T14:00:38Z</time>
    </trkpt>
    <trkpt lat="45.887395022" lon="13.820714196">
      <ele>109.5</ele>
      <time>2014-05-17T14:00:39Z</time>
    </trkpt>
    <trkpt lat="45.887494767" lon="13.820772702">
      <ele>110.0</ele>
      <time>2014-05-17T14:00:40Z</time>
    </trkpt>
    <trkpt lat="45.88759602" lon="13.820831878">
      <ele>110.6</ele>
      <time>2014-05-17T14:00:41Z</time>
    </trkpt>
    <trkpt lat="45.887695849" lon="13.820890803">
      <ele>111.2</ele>
      <time>2014-05-17T14:00:42Z</time>
    </trkpt>
    <trkpt lat="45.888020312" lon="13.821097082">
      <ele>113.0</ele>
      <time>2014-05-17T14:00:46Z</time>
    </trkpt>
    <trkpt lat="45.888059121" lon="13.821115606">
      <ele>113.2</ele>
      <time>2014-05-17T14:01:07Z</time>
    </trkpt>
    <trkpt lat="45.88811243" lon="13.821150726">
      <ele>113.5</ele>
      <time>2014-05-17T14:01:34Z</time>
    </trkpt>
    <trkpt lat="45.888159117" lon="13.821177548">
      <ele>113.7</ele>
      <time>2014-05-17T14:01:35Z</time>
    </trkpt>
    <trkpt lat="45.888239583" lon="13.82123312">
      <ele>114.1</ele>
      <time>2014-05-17T14:01:37Z</time>
    </trkpt>
    <trkpt lat="45.888438402" lon="13.82134242">
      <ele>114.6</ele>
      <time>2014-05-17T14:01:43Z</time>
    </trkpt>
    <trkpt lat="45.888516689" lon="13.821238736">
      <ele>115.0</ele>
      <time>2014-05-17T14:01:47Z</time>
    </trkpt>
    <trkpt lat="45.888528926" lon="13.821164472">
      <ele>115.1</ele>
      <time>2014-05-17T14:01:48Z</time>
    </trkpt>
    <trkpt lat="45.888558682" lon="13.820967078">
      <ele>115.6</ele>
      <time>2014-05-17T14:01:50Z</time>
    </trkpt>
    <trkpt lat="45.888624312" lon="13.820594">
      <ele>116.0</ele>
      <time>2014-05-17T14:01:53Z</time>
    </trkpt>
    <trkpt lat="45.888650045" lon="13.820461649">
      <ele>116.1</ele>
      <time>2014-05-17T14:01:54Z</time>
    </trkpt>
    <trkpt lat="45.888679633" lon="13.820318654">
      <ele>116.2</ele>
      <time>2014-05-17T14:01:55Z</time>
    </trkpt>
    <trkpt lat="45.888713328" lon="13.820160907">
      <ele>116.4</ele>
      <time>2014-05-17T14:01:56Z</time>
    </trkpt>
    <trkpt lat="45.888747526" lon="13.819993855">
      <ele>116.5</ele>
      <time>2014-05-17T14:01:57Z</time>
    </trkpt>
  </trkseg>
</trk>
</gpx>
